[[[{"header":{"parameterUnit":"kt","parameterCategory":2,"dx":1,"dy":1,"la1":29.285339999999998,"la2":30.599998999999997,"lo1":-89.70041500000002,"lo2":-87.6738589999976,"nx":112,"ny":82,"refTime":"2022-10-17T06:00:00:Z","depth":0,"parameterNumber":1,"parameterNumberName":"U-component_of_WINDS"},"data":[11.9825,12.0177,0.0,11.6797,11.56,0.0,11.1236,0.0,0.0,0.0,0.0,0.0,0.0,0.0,0.0,0.0,0.0,0.0,0.0,0.0,0.0,0.0,0.0,0.0,0.0,0.0,0.0,0.0,0.0,0.0,0.0,0.0,15.4641,15.4641,15.4818,15.5076,15.5402,15.5245,15.5337,15.5968,15.6399,15.6534,15.6534,15.7125,15.7689,15.8215,15.8215,15.8827,15.9826,15.9826,16.0656,16.1891,16.1891,16.2548,16.3351,16.2256,16.1891,16.2037,16.3132,16.3497,16.3497,16.3497,16.3497,16.3497,16.3497,16.3497,16.3497,16.3497,16.3497,16.3497,16.3497,16.3497,16.3526,16.3627,16.3727,16.3754,16.4261,16.4144,16.4239,16.541,16.5325,16.5336,16.6065,16.6221,16.6221,16.6221,16.6221,16.6221,16.6221,16.6221,16.6221,16.6221,16.6221,16.6221,16.6221,16.6221,16.6221,16.6221,16.6221,16.6221,16.6221,16.6221,16.5924,16.5404,16.5924,16.5924,16.5329,16.5924,16.6221,16.6221,16.6221,16.6221,0.0,0.0,11.7149,11.2996,0.0,0.0,0.0,0.0,0.0,0.0,0.0,0.0,0.0,0.0,0.0,0.0,0.0,0.0,0.0,0.0,0.0,0.0,0.0,0.0,0.0,0.0,0.0,0.0,0.0,0.0,0.0,15.2951,15.3761,15.4277,15.4866,15.5328,15.5574,15.5493,15.5654,15.627,15.6195,15.6119,15.6119,15.6119,15.6479,15.7025,15.7025,15.7654,15.8607,15.8515,15.9189,16.0338,16.014,16.087,16.1672,16.0578,16.014,16.0359,16.1453,16.2183,16.2621,16.2621,16.2986,16.3497,16.3497,16.3497,16.3497,16.3497,16.3497,16.3497,16.3497,16.3497,16.3497,16.3497,16.3526,16.3754,16.3974,16.4047,16.4239,16.5325,16.5325,16.541,16.6065,16.6221,16.6221,16.6221,16.6221,16.6221,16.6221,16.6221,16.6221,16.6221,16.6221,16.6221,16.6221,16.6221,16.6221,16.6221,16.6221,16.6221,16.6221,16.6221,16.6221,16.6221,16.6221,16.6221,16.6221,16.6221,16.6221,16.6221,16.6221,16.6221,0.0,0.0,0.0,10.9546,0.0,0.0,0.0,0.0,10.6167,0.0,0.0,0.0,0.0,0.0,0.0,0.0,0.0,0.0,0.0,0.0,0.0,0.0,0.0,0.0,0.0,0.0,0.0,0.0,0.0,0.0,14.9341,15.0225,15.1035,15.2656,15.4361,15.5087,15.5087,15.5654,15.5887,15.5887,15.627,15.6491,15.6491,15.6491,15.627,15.5887,15.5887,15.6534,15.7506,15.7081,15.7689,15.9063,15.8658,15.8534,15.8461,15.8534,15.8534,15.8534,15.8607,15.9629,16.087,16.087,16.2037,16.3424,16.3424,16.3424,16.3497,16.3497,16.3497,16.3497,16.3497,16.3497,16.3497,16.3497,16.3754,16.407,16.4166,16.454,16.499,16.5495,16.5653,16.5744,16.6143,16.6221,16.6221,16.6221,16.6221,16.6221,16.6221,16.6221,16.6221,16.6221,16.6221,16.6221,16.6221,16.6221,16.6221,16.6221,16.6221,16.6221,16.6221,16.6221,16.6221,16.6221,16.6221,16.6221,16.6221,16.6221,16.6221,16.6221,16.6221,16.6221,10.9405,0.0,0.0,0.0,0.0,0.0,0.0,0.0,0.0,0.0,0.0,0.0,0.0,0.0,0.0,0.0,0.0,0.0,0.0,0.0,0.0,0.0,0.0,0.0,0.0,0.0,0.0,0.0,0.0,0.0,14.5085,14.8855,15.1152,15.1895,15.4712,15.6121,15.6121,15.5965,15.6042,15.6344,15.6119,15.6195,15.6491,15.6491,15.627,15.5887,15.6195,15.6187,15.5824,15.6075,15.6941,15.7994,15.7543,15.6698,15.5819,15.6918,15.7146,15.7074,15.8242,15.8899,15.9264,15.9264,16.0359,16.1672,16.1672,16.2475,16.3497,16.3497,16.3497,16.3497,16.3497,16.3497,16.3526,16.3852,16.3974,16.4261,16.5064,16.5064,16.5078,16.5906,16.5825,16.5744,16.6143,16.6221,16.6221,16.6221,16.6221,16.6221,16.6221,16.6221,16.6221,16.6221,16.6221,16.6221,16.6221,16.6221,16.6221,16.6221,16.6221,16.6221,16.6221,16.6221,16.6221,16.6221,16.6221,16.6221,16.6221,16.6221,16.6221,16.6221,16.6221,16.6221,0.0,0.0,0.0,0.0,0.0,0.0,10.5181,0.0,10.335,0.0,0.0,0.0,0.0,0.0,0.0,0.0,0.0,0.0,0.0,0.0,0.0,0.0,0.0,0.0,0.0,0.0,0.0,0.0,0.0,13.6079,14.1755,14.5159,14.7674,14.9298,15.2632,15.4783,15.5451,15.5899,15.627,15.6491,15.627,15.627,15.6491,15.6491,15.6344,15.6195,15.6418,15.6196,15.5734,15.5887,15.6319,15.6804,15.6126,15.536,15.4877,15.5306,15.5559,15.561,15.6369,15.6563,15.6709,15.7366,15.868,15.9994,15.9994,16.1161,16.2402,16.2402,16.2913,16.3497,16.3497,16.3627,16.3607,16.3168,16.3326,16.3781,16.446,16.446,16.4847,16.5995,16.5986,16.5906,16.6143,16.5626,16.5255,16.5255,16.4587,16.4141,16.4141,16.4809,16.5255,16.5255,16.5849,16.6221,16.6221,16.6221,16.6221,16.6221,16.6221,16.6221,16.6221,16.6221,16.6221,16.6221,16.6221,16.6221,16.6221,16.6221,16.6221,16.6221,16.6221,16.6221,0.0,0.0,0.0,0.0,10.6237,0.0,0.0,0.0,0.0,10.3491,0.0,0.0,0.0,0.0,0.0,0.0,0.0,0.0,0.0,0.0,0.0,0.0,0.0,0.0,0.0,0.0,13.5071,13.8913,13.4298,13.3721,13.9221,14.0652,14.2641,14.5602,14.9369,15.2035,15.352,15.5303,15.6194,15.6194,15.6417,15.6491,15.6491,15.6491,15.6491,15.6418,15.6491,15.6418,15.6344,15.6042,15.5887,15.5728,15.4978,15.4818,15.4991,15.4095,15.4075,15.4354,15.398,15.379,15.4008,15.5468,15.6928,15.8096,15.8341,15.9509,16.0824,16.0824,16.1946,16.3116,16.3116,16.334,16.3285,16.1891,16.2248,16.2841,16.2923,16.3242,16.4067,16.5626,16.5924,16.5849,16.5701,16.4512,16.3547,16.3547,16.2284,16.1319,16.1319,16.2656,16.3547,16.3547,16.4809,16.5626,16.5626,16.5849,16.5849,16.5626,16.5998,16.6146,16.5924,16.6146,16.6221,16.6221,16.6221,16.6221,16.6221,16.6221,16.6221,16.6221,16.6221,16.6221,0.0,0.0,0.0,0.0,0.0,10.4054,0.0,0.0,0.0,0.0,0.0,0.0,0.0,0.0,0.0,0.0,0.0,0.0,0.0,0.0,0.0,0.0,0.0,0.0,0.0,13.6576,13.8049,13.7944,13.5686,13.5045,13.6887,13.9761,14.1749,14.2691,14.7207,14.9732,15.0029,15.3075,15.456,15.456,15.5897,15.6491,15.6491,15.6491,15.6344,15.6042,15.6344,15.6045,15.5411,15.5808,15.5574,15.5328,15.5567,15.5235,15.4626,15.4445,15.4168,15.3885,15.379,15.379,15.3863,15.4154,15.4446,15.5054,15.6677,15.8589,16.0111,16.0111,16.0421,16.0715,16.0715,16.0715,16.0746,16.0957,16.105,16.1294,16.1613,16.1689,16.2284,16.3993,16.429,16.3844,16.2507,16.1987,16.1839,16.1839,16.1542,16.1319,16.1319,16.1616,16.1839,16.1839,16.2061,16.2284,16.2284,16.3547,16.3695,16.2359,16.4735,16.5626,16.4364,16.5552,16.6221,16.6221,16.6221,16.6221,16.6221,16.6221,16.6221,16.6221,16.6221,16.6221,0.0,0.0,0.0,10.0886,0.0,0.0,0.0,0.0,10.5555,10.9762,11.0272,11.0561,0.0,0.0,0.0,0.0,0.0,0.0,0.0,0.0,0.0,0.0,0.0,0.0,0.0,13.6126,13.7306,13.6734,13.5851,13.5562,13.6001,13.7765,13.9606,14.1517,14.4169,14.6613,14.9064,15.0772,15.2035,15.2926,15.456,15.5303,15.5303,15.612,15.6418,15.6195,15.6418,15.6196,15.5813,15.6119,15.5734,15.5087,15.5411,15.5245,15.4818,15.4626,15.4354,15.4168,15.3885,15.379,15.379,15.379,15.379,15.3935,15.4952,15.6038,15.7029,15.811,15.9008,15.9596,15.9936,16.0196,16.0144,15.9653,15.9671,15.9978,16.013,16.013,16.065,16.2284,16.1987,16.1393,16.1319,16.065,16.013,16.013,15.9462,15.8868,15.8868,15.961,16.013,16.013,16.0873,16.1319,16.1319,16.2136,16.221,16.1393,16.2878,16.3398,16.2581,16.3324,16.377,16.377,16.4587,16.5109,16.5328,16.4584,16.4211,16.4137,16.4341,16.4923,0.0,0.0,0.0,0.0,0.0,0.0,10.145,10.2224,10.4257,0.0,10.9866,0.0,0.0,0.0,0.0,0.0,0.0,0.0,0.0,0.0,0.0,0.0,0.0,0.0,0.0,13.4458,13.5342,13.5637,13.5784,13.5857,13.5856,13.6212,13.7676,14.0342,14.143,14.3791,14.7653,14.8618,14.9584,15.0698,15.2703,15.3446,15.3223,15.5154,15.6045,15.6045,15.6342,15.6418,15.6418,15.6418,15.5891,15.5328,15.5328,15.5245,15.5076,15.473,15.4715,15.4626,15.4188,15.3907,15.3885,15.3885,15.3885,15.379,15.3885,15.3885,15.4294,15.6003,15.7414,15.846,15.8979,15.9406,15.9512,15.8106,15.8196,15.8496,15.8496,15.8496,15.8868,16.013,15.9388,15.8942,16.013,15.9313,15.8496,15.8496,15.7382,15.6491,15.6491,15.7679,15.8496,15.8496,15.961,16.0353,16.0353,16.065,16.0725,16.0353,16.0947,16.117,16.0873,16.117,16.1319,16.1319,16.2656,16.3548,16.3825,16.2515,16.2043,16.2216,16.2511,16.3435,9.4761,9.631,9.7929,0.0,0.0,0.0,10.6307,10.7011,10.7975,0.0,0.0,0.0,0.0,0.0,0.0,0.0,0.0,0.0,0.0,0.0,0.0,0.0,0.0,0.0,0.0,13.35,13.4164,13.5563,13.6001,13.6349,13.6681,13.6745,13.6968,13.7339,14.03,14.2157,14.2676,14.6984,14.847,14.7356,15.0401,15.1143,14.9732,15.2926,15.4411,15.4486,15.5897,15.627,15.5965,15.5965,15.5887,15.5808,15.5808,15.5493,15.5161,15.5003,15.5076,15.5076,15.4917,15.473,15.4445,15.4445,15.4168,15.3885,15.4354,15.4445,15.4536,15.5212,15.5445,15.5592,15.5677,15.6084,15.6405,15.6183,15.6417,15.6714,15.6714,15.6714,15.6788,15.7011,15.6862,15.6788,15.7011,15.6862,15.6714,15.6714,15.6565,15.6491,15.6491,15.664,15.6714,15.6714,15.6937,15.7011,15.7011,15.8422,15.8645,15.7085,15.9759,16.0725,15.9313,16.0576,16.1319,16.1319,16.1542,16.169,16.169,16.1279,16.1586,16.2628,16.2686,16.2761,9.1945,9.3494,9.4832,9.5465,0.0,0.0,10.2576,10.4477,10.7173,0.0,11.5558,0.0,0.0,0.0,0.0,0.0,0.0,0.0,0.0,0.0,0.0,0.0,0.0,0.0,0.0,0.0,0.0,13.4868,13.515,13.5716,13.6809,13.6883,13.7329,13.8294,13.9706,14.134,14.3271,14.4385,14.5499,14.6761,14.8098,14.8915,14.9138,15.1589,15.3223,15.4189,15.4783,15.5527,15.6122,15.4193,15.3452,15.3526,15.449,15.4561,15.4244,15.5205,15.5411,15.5087,15.5087,15.5076,15.4905,15.4905,15.473,15.4641,15.4818,15.4905,15.4905,15.5076,15.5328,15.5574,15.5891,15.6045,15.627,15.627,15.6344,15.6491,15.6491,15.6491,15.6491,15.6491,15.6491,15.6491,15.6491,15.6491,15.6491,15.6491,15.6491,15.656,15.6764,15.6832,15.6965,15.7222,15.7284,15.7284,15.7284,15.7957,15.8032,15.7359,15.8555,15.9003,15.833,15.8928,15.9302,15.9302,15.9472,15.9981,16.0647,15.9667,15.9483,16.026,16.0529,16.1194,8.9974,0.0,0.0,0.0,0.0,0.0,10.256,10.4543,10.7094,11.2442,11.3916,0.0,0.0,0.0,0.0,0.0,0.0,0.0,0.0,0.0,0.0,0.0,0.0,0.0,0.0,0.0,0.0,0.0,13.3838,13.4507,13.6141,13.6215,13.718,13.9334,13.978,14.1414,14.4236,14.3568,14.4162,14.6019,14.6539,14.7133,14.7801,14.9955,15.1589,15.2777,15.3223,15.4251,15.5275,15.2892,15.1857,15.1871,15.3264,15.3507,15.3302,15.508,15.5454,15.5068,15.5517,15.55,15.5328,15.5328,15.5245,15.5087,15.5087,15.5087,15.5087,15.5087,15.5411,15.5734,15.6045,15.6196,15.6344,15.6344,15.6418,15.6491,15.6491,15.6491,15.6491,15.6491,15.6491,15.6563,15.6631,15.6631,15.6701,15.6839,15.6906,15.6965,15.721,15.7271,15.7392,15.7813,15.7867,15.7867,15.7867,15.7867,15.7867,15.7867,15.7867,15.7867,15.7867,15.7867,15.7867,15.7867,15.8106,15.8707,15.9517,15.8605,15.8375,15.8644,15.8998,15.979,0.0,0.0,0.0,10.1065,10.0517,10.0892,11.0695,11.0635,10.9659,11.3465,11.5577,0.0,0.0,0.0,0.0,0.0,0.0,0.0,0.0,0.0,0.0,0.0,0.0,0.0,0.0,0.0,0.0,0.0,0.0,13.2798,13.4507,13.4581,13.6066,13.926,14.0968,14.2602,14.4236,14.5796,14.587,14.431,14.5944,14.5944,14.4533,14.7727,14.9212,14.9361,15.0995,15.2128,15.2885,15.2736,15.2513,15.2231,15.2644,15.2588,15.253,15.4573,15.5132,15.4941,15.6498,15.6557,15.5887,15.5887,15.5493,15.5087,15.5087,15.5087,15.5087,15.5087,15.5161,15.5087,15.5087,15.5493,15.5887,15.5887,15.6195,15.6491,15.6491,15.6491,15.6491,15.6491,15.6491,15.656,15.6956,15.7084,15.721,15.7757,15.7813,15.7813,15.7813,15.7813,15.7867,15.7867,15.7867,15.7867,15.7867,15.7867,15.7867,15.7867,15.7867,15.7867,15.7867,15.7867,15.7867,15.7867,15.7867,15.7867,15.7942,15.8795,15.9149,15.9186,15.9186,15.9186,9.2033,9.4741,9.8335,10.3945,10.5235,10.631,11.079,11.1796,11.2249,11.3978,11.4708,0.0,0.0,0.0,0.0,0.0,0.0,0.0,0.0,0.0,0.0,0.0,0.0,0.0,0.0,0.0,0.0,0.0,0.0,0.0,13.2724,13.2798,13.3838,13.6066,13.666,13.8814,14.2676,14.431,14.535,14.587,14.535,14.5549,14.6315,14.7433,14.8662,15.0004,15.0602,15.0399,14.9618,14.9618,14.9513,14.948,15.0765,15.1162,15.1278,15.296,15.356,15.3468,15.3992,15.4849,15.5504,15.5504,15.6188,15.6881,15.6881,15.6683,15.6408,15.6408,15.627,15.6045,15.6045,15.6121,15.627,15.627,15.6418,15.6491,15.6491,15.6899,15.7407,15.7407,15.7407,15.7467,15.751,15.7568,15.7625,15.7813,15.7867,15.7975,15.8156,15.8205,15.8375,15.8676,15.8719,15.8719,15.8719,15.774,15.7061,15.7061,15.6006,15.5931,15.7061,15.6006,15.6458,15.8719,15.7664,15.6534,15.5403,15.6809,15.7525,15.7525,15.8658,15.9186,9.3764,9.6561,9.9943,10.6798,10.8745,10.9754,11.2735,11.3747,11.4116,11.4507,11.466,0.0,0.0,0.0,0.0,0.0,0.0,0.0,0.0,0.0,0.0,0.0,0.0,0.0,0.0,0.0,0.0,0.0,0.0,0.0,13.109,13.1164,13.1907,13.3541,13.4393,13.676,14.1212,14.4091,14.6153,14.7196,14.6078,14.6274,14.7536,14.7536,14.8302,14.9543,14.984,14.9332,14.8354,14.8354,14.8309,14.8242,14.9436,14.9887,14.9969,15.1691,15.2245,15.2297,15.2898,15.3697,15.4418,15.4418,15.5168,15.6143,15.6742,15.667,15.6584,15.7183,15.7159,15.6965,15.6965,15.6965,15.6965,15.6965,15.6965,15.6965,15.6965,15.7467,15.7867,15.7867,15.7867,15.7922,15.808,15.8005,15.8131,15.828,15.828,15.8375,15.8719,15.8644,15.8803,15.9149,15.8658,15.828,15.828,15.677,15.5788,15.5788,15.5335,15.5259,15.5713,15.5864,15.6392,15.7374,15.6921,15.5864,15.4127,15.5259,15.5788,15.5788,15.7525,15.828,9.5626,9.7427,9.9946,10.9932,11.1167,11.1316,11.6564,11.6492,11.5251,11.5251,11.5251,0.0,0.0,0.0,0.0,0.0,0.0,0.0,0.0,0.0,0.0,0.0,0.0,0.0,0.0,0.0,0.0,0.0,12.7079,12.7822,12.9456,12.953,13.0259,13.1819,13.3792,13.6403,13.967,14.4837,14.7518,14.7818,14.7818,14.7818,14.7968,14.7968,14.7944,14.7919,14.866,14.8992,14.9067,14.9067,14.8887,14.8573,14.8961,14.8887,14.8799,15.0773,15.1226,15.1166,15.2746,15.3044,15.2693,15.2693,15.2768,15.3195,15.4771,15.5221,15.5543,15.7117,15.7642,15.7717,15.7717,15.7792,15.7867,15.7867,15.7867,15.7867,15.7867,15.7867,15.7922,15.7922,15.7922,15.8005,15.8271,15.8362,15.845,15.8847,15.896,15.896,15.896,15.896,15.896,15.896,15.7525,15.6543,15.6543,15.4957,15.4051,15.4127,15.5486,15.5637,15.4202,15.7072,15.7223,15.4202,15.5637,15.5561,15.39,15.3976,15.3976,15.4051,15.5788,15.6543,9.9143,10.4131,10.8554,11.4814,11.5032,11.4522,11.7148,11.6492,11.5251,0.0,11.5251,0.0,0.0,0.0,0.0,0.0,0.0,0.0,0.0,0.0,0.0,0.0,0.0,0.0,0.0,0.0,0.0,0.0,12.6485,12.7477,12.8128,12.8182,12.9034,13.0911,13.1458,13.3304,13.6599,13.9171,14.2369,14.6093,14.6093,14.6842,14.84,14.84,14.7853,14.704,14.7261,14.801,14.9067,14.9067,14.9033,14.8961,14.9033,14.9033,14.9037,14.9561,14.9677,14.9641,15.0093,15.0999,15.1941,15.1941,15.277,15.3901,15.4354,15.4221,15.4069,15.452,15.5226,15.5993,15.5993,15.6892,15.7867,15.7867,15.7867,15.7867,15.7867,15.8403,15.8878,15.8878,15.8878,15.8466,15.7299,15.7111,15.6772,15.5637,15.541,15.541,15.541,15.541,15.541,15.541,15.5033,15.4806,15.4806,15.3221,15.2767,15.4051,15.2163,15.1937,15.4051,15.2541,15.2465,15.4127,15.3296,15.2088,15.0351,15.1635,15.2239,15.2314,15.3976,15.4806,9.7902,10.358,10.9777,11.5324,11.5981,11.5543,11.6492,11.5981,11.5251,11.5251,11.5251,0.0,0.0,0.0,0.0,0.0,0.0,0.0,0.0,0.0,0.0,0.0,0.0,0.0,0.0,0.0,0.0,0.0,12.5148,12.6155,12.6434,12.7265,12.8219,12.9314,13.0313,13.2439,13.582,13.7602,14.0694,14.4908,14.4908,14.5486,14.6624,14.6624,14.6284,14.5669,14.5669,14.6575,14.8085,14.8085,14.8085,14.8161,14.8841,14.869,14.8161,14.8841,14.9067,14.9067,14.9067,14.9747,15.0502,15.0502,15.1182,15.2088,15.2767,15.2885,15.2881,15.3635,15.4339,15.4764,15.4764,15.5516,15.6193,15.6193,15.6795,15.7096,15.6344,15.6088,15.609,15.6845,15.6996,15.6921,15.6694,15.609,15.5486,15.5259,15.4655,15.4127,15.4127,15.4127,15.4127,15.4127,15.3447,15.3069,15.3069,15.1484,15.0955,15.1861,15.088,15.0729,15.1861,15.1559,15.1484,15.1937,15.0351,14.8992,14.8085,14.8312,14.8388,14.8388,15.0124,15.1257,9.5972,10.0608,10.7222,11.3426,11.4959,11.5032,11.5251,11.5251,11.5251,11.5251,11.5251,11.5251,0.0,0.0,0.0,0.0,0.0,0.0,0.0,0.0,0.0,0.0,0.0,0.0,0.0,0.0,0.0,0.0,12.3571,12.452,12.4576,12.6273,12.7297,12.7571,12.9776,13.2495,13.5659,13.7793,14.0307,14.3253,14.3706,14.4008,14.4234,14.3781,14.3706,14.3932,14.3932,14.4838,14.6424,14.6424,14.6424,14.6575,14.7934,14.7783,14.6877,14.801,14.8614,14.8765,14.8765,14.8765,14.8841,14.9067,14.9067,14.9369,15.088,15.1257,15.1559,15.3069,15.3447,15.3447,15.3447,15.3598,15.3825,15.3825,15.458,15.4957,15.3447,15.2163,15.171,15.3221,15.3447,15.39,15.541,15.4429,15.39,15.5184,15.4278,15.3447,15.3447,15.3447,15.3447,15.3447,15.2163,15.1257,15.1257,14.9898,14.9218,14.9445,15.0577,15.0729,14.952,15.2012,15.1861,14.8539,14.7104,14.6424,14.6424,14.4914,14.4234,14.4234,14.5745,14.7179,10.3049,10.5113,10.7003,11.2112,11.3353,11.3718,11.4959,11.5251,11.5251,11.5251,11.5251,11.5251,11.5251,0.0,0.0,0.0,0.0,0.0,0.0,0.0,0.0,0.0,0.0,0.0,0.0,0.0,0.0,0.0,0.0,12.3313,12.3493,12.4095,12.5196,12.6873,12.8631,13.058,13.2543,13.5519,13.7362,13.7966,14.0836,14.2875,14.4159,14.1365,14.0836,14.212,14.212,14.3101,14.4687,14.4687,14.4687,14.4687,14.4989,14.5745,14.6651,14.5518,14.5971,14.7179,14.7179,14.7179,14.7406,14.869,14.9067,14.9143,14.9445,14.952,14.9596,14.9898,14.9973,14.9973,14.9973,15.1031,15.2012,15.2012,15.02,14.8388,14.8085,14.8841,14.9596,14.9898,14.9973,15.0049,15.0351,15.02,14.9596,14.8614,14.9294,14.9973,14.9973,14.9973,14.9973,14.9973,14.9671,14.952,14.952,14.9294,14.9671,15.1106,15.0124,15.0049,15.1106,15.0426,14.8463,14.514,14.4838,14.4687,14.4687,14.4385,14.4234,14.4234,14.4536,14.4838,10.1192,10.3227,10.5511,10.8852,11.1498,11.3271,11.3864,11.4667,11.5175,11.4716,11.495,11.5323,11.5535,11.5608,0.0,0.0,0.0,0.0,0.0,0.0,0.0,0.0,0.0,0.0,0.0,0.0,0.0,0.0,0.0,12.1726,12.1944,12.3954,12.553,12.6496,12.9146,13.1397,13.3133,13.5474,13.7136,13.7966,13.9628,14.0836,14.1516,13.993,13.9628,14.0383,14.0383,14.1365,14.295,14.295,14.295,14.3026,14.3857,14.4159,14.4159,14.4234,14.4763,14.5442,14.5442,14.5442,14.5593,14.6349,14.7179,14.7708,14.6802,14.7179,14.7708,14.6802,14.6575,14.6575,14.6575,14.7179,14.7783,14.7783,14.6575,14.5442,14.5442,14.5367,14.5518,14.6424,14.582,14.5518,14.6424,14.7255,14.7632,14.6877,14.6651,14.6575,14.6575,14.6575,14.6575,14.6575,14.6575,14.6575,14.6575,14.6575,14.6877,14.7708,14.7028,14.6953,14.7708,14.7028,14.582,14.431,14.3328,14.295,14.295,14.2044,14.1591,14.1591,14.1591,14.2044,9.8572,10.0862,10.3916,10.6065,10.8958,11.1556,11.2389,11.3424,11.4222,11.3871,11.3696,11.4154,11.5458,11.5161,0.0,0.0,0.0,0.0,0.0,0.0,0.0,0.0,0.0,0.0,0.0,0.0,0.0,0.0,0.0,0.0,12.0827,12.3691,12.5716,12.6394,12.9568,13.2076,13.3738,13.5323,13.6985,0.0,13.8646,13.8797,13.9175,13.842,13.8344,13.8646,13.9024,13.993,14.1138,14.1138,14.1138,14.1289,14.2648,14.2573,14.1818,14.2799,14.3404,14.3706,14.3706,14.3706,14.3781,14.4083,14.514,14.5971,14.4612,14.514,14.5971,14.4612,14.3932,14.3706,14.3706,14.3706,14.363,14.3253,14.3177,14.3177,14.3177,14.212,14.1591,14.2875,14.2044,14.1591,14.2875,14.4234,14.5216,14.5593,14.4838,14.4234,14.4234,14.4234,14.4234,14.4234,14.4234,14.4234,14.4234,14.4234,14.4234,14.4234,14.4234,14.4234,14.4234,14.3555,14.3177,14.3177,14.1818,14.1138,14.1138,13.9854,13.9175,13.9175,13.9175,13.993,10.1013,10.191,10.2738,10.5517,10.5638,10.6197,11.054,11.1271,11.1521,11.303,11.0925,11.0069,11.4519,11.2986,11.2174,0.0,0.0,0.0,0.0,0.0,0.0,0.0,0.0,0.0,0.0,0.0,0.0,0.0,0.0,0.0,0.0,12.1854,12.3665,12.661,12.8497,13.0339,13.2001,13.3738,13.5323,13.6909,13.6909,13.7664,13.9099,13.6079,13.555,13.6985,13.8495,13.925,13.9401,13.9401,13.9401,13.9401,13.9552,14.0458,14.1516,14.0156,14.0609,14.1969,14.1969,14.1969,14.2195,14.3706,14.431,14.4461,14.431,14.4385,14.4461,14.431,14.3101,14.1969,14.1969,14.1969,14.1591,14.0005,13.9628,13.9628,13.9628,13.9477,13.9477,13.9628,13.9477,13.9477,13.9628,13.9779,14.0383,14.1969,14.3328,14.4234,14.4234,14.4234,14.4234,14.4234,14.4234,14.4234,14.4234,14.4234,14.4234,14.4234,14.4234,14.4234,14.4234,14.1289,13.9628,13.9628,13.9477,13.9401,13.9401,13.925,13.9175,13.9175,13.9175,13.925,9.3554,9.6403,9.9232,9.9631,10.1984,10.471,10.6624,10.6445,10.6854,11.0569,11.1361,11.1784,11.3052,11.2915,0.0,11.4775,0.0,0.0,0.0,0.0,0.0,0.0,0.0,0.0,0.0,0.0,0.0,0.0,0.0,0.0,0.0,12.424,12.5431,12.6715,12.8376,13.0113,13.1774,13.2454,13.3587,13.5248,13.5248,13.5625,13.623,13.4946,13.4644,13.5323,13.5928,13.623,13.6305,13.7287,13.7664,13.774,13.8797,13.9552,14.0081,13.9401,13.9628,14.0156,14.0156,14.0156,14.0156,13.9779,14.0307,14.0836,13.8873,13.9628,14.0987,13.993,13.993,14.0156,14.0156,14.0156,14.0005,13.9326,13.9175,13.9175,13.9175,13.9175,13.9175,13.9175,13.9175,13.9175,13.9175,13.9175,13.9401,14.0081,14.0761,14.1214,14.1214,14.1214,14.1214,14.1214,14.1214,14.1214,14.1214,14.1214,14.1214,14.1214,14.1214,14.1214,14.1214,13.993,13.9175,13.9175,13.9175,13.9175,13.9175,13.9175,13.9175,13.9175,13.9175,13.9175,8.9256,9.2934,9.6851,9.6301,9.8965,10.2048,10.3331,10.3141,10.3928,10.821,10.9969,11.0993,11.1636,11.1739,0.0,11.4175,11.5417,0.0,0.0,0.0,0.0,0.0,0.0,0.0,0.0,0.0,0.0,0.0,0.0,0.0,0.0,12.5884,12.7017,12.747,12.8678,12.9811,13.1019,13.1019,13.1925,13.3587,13.3587,13.3284,13.2831,13.2831,13.3133,13.3587,13.3587,13.3889,13.4417,13.5474,13.5928,13.6079,13.7287,13.774,13.774,13.774,13.8042,13.842,13.842,13.8722,13.8948,13.7815,13.7891,13.7966,13.5701,13.6305,13.7513,13.6305,13.7136,13.842,13.842,13.8117,13.7891,13.8344,13.842,13.8571,13.9024,13.9175,13.9175,13.9175,13.9175,13.9175,13.9175,13.9175,13.9175,13.9175,13.9175,13.9175,13.9175,13.9175,13.9175,13.9175,13.9175,13.9175,13.9175,13.9175,13.9175,13.9175,13.9175,13.9175,13.9175,13.9175,13.9175,13.9175,13.9175,13.9175,13.9175,13.9175,13.9175,13.9175,13.9175,13.9175,9.1132,9.3638,9.6458,9.7516,9.6856,9.7046,10.1239,10.2664,10.374,10.6246,10.543,10.5725,11.0453,10.8893,10.8494,11.3658,11.4529,11.533,0.0,0.0,0.0,0.0,0.0,0.0,0.0,0.0,0.0,0.0,0.0,0.0,0.0,12.5884,12.7545,12.9207,12.9282,12.9282,12.9282,12.9282,13.0113,13.1774,13.1774,13.0944,12.9282,12.9282,13.0264,13.1774,13.1774,13.2756,13.4342,13.4342,13.4342,13.4342,13.4342,13.4342,13.4342,13.4342,13.5323,13.6683,13.6683,13.7815,13.9175,13.9175,13.8042,13.6683,13.6607,13.555,13.4342,13.4342,13.5474,13.6683,13.6683,13.555,13.4719,13.6305,13.6683,13.7136,13.8797,13.9175,13.9175,13.9175,13.9175,13.9175,13.9175,13.9175,13.9175,13.9175,13.9175,13.9175,13.9175,13.9175,13.9175,13.9175,13.9175,13.9175,13.9175,13.9175,13.9175,13.9175,13.9175,13.9175,13.9175,13.9175,13.9175,13.9175,13.9175,13.9175,13.9175,13.9175,13.9175,13.9175,13.9175,13.9175,8.7821,9.1946,9.5703,9.3768,9.6312,9.9492,9.9715,10.0764,10.2523,10.5569,10.6645,10.7497,10.8857,10.9031,10.9997,11.2925,11.4509,11.6085,0.0,0.0,0.0,0.0,0.0,0.0,0.0,0.0,0.0,0.0,0.0,0.0,0.0,12.5884,12.7017,12.7545,12.8678,12.9282,12.9282,12.9282,12.9509,13.0037,13.0037,12.9811,12.9282,12.9282,12.9584,13.0037,13.0037,13.0339,13.0868,13.0868,13.1548,13.268,13.3889,13.4342,13.4342,13.4342,13.4644,13.5248,13.6305,13.6985,13.7438,13.7438,13.6381,13.487,13.3662,13.2982,13.2605,13.2605,13.3813,13.4795,13.3587,13.3813,13.4417,13.4946,13.5097,13.5172,13.5777,13.6683,13.7438,13.7438,13.8344,13.9175,13.9175,13.9175,13.9175,13.9175,13.9175,13.9175,13.9175,13.9175,13.9175,13.9175,13.9175,13.9175,13.9175,13.9175,13.9175,13.9175,13.9175,13.9175,13.9175,13.9175,13.9175,13.9175,13.9175,13.9175,13.9175,13.9175,13.9175,13.9175,13.9175,13.9175,8.7351,9.1462,9.5043,9.2805,9.5465,9.8276,9.7132,9.8152,10.0147,10.2634,10.4509,10.5821,10.63,10.8044,11.0242,11.269,11.3649,11.4859,11.7302,0.0,0.0,0.0,0.0,0.0,0.0,0.0,0.0,0.0,0.0,0.0,12.3392,12.4978,12.5884,12.5884,12.6866,12.7696,12.83,12.83,12.83,12.83,12.83,12.8678,12.9282,12.9282,12.9282,12.9282,12.9282,12.9282,12.9282,12.9282,12.9886,13.0944,13.2001,13.2454,13.2454,13.2454,13.2831,13.3511,13.4493,13.5248,13.5777,13.5777,13.4644,13.3209,13.2076,13.1321,13.0868,13.0868,13.2076,13.2982,13.1246,13.1623,13.2605,13.3209,13.336,13.3511,13.4191,13.5097,13.5777,13.5777,13.7136,13.8193,13.8193,13.8722,13.9175,13.9175,13.9175,13.9175,13.9175,13.9175,13.9175,13.9175,13.9175,13.9175,13.9175,13.9175,13.9175,13.9175,13.9175,13.9175,13.9175,13.9175,13.9175,13.9175,13.9175,13.8873,13.8193,13.8193,13.7891,13.7362,13.7362,13.7362,8.9033,9.1827,9.4199,9.3804,9.4129,9.4425,9.4129,9.5429,9.6952,9.8054,9.967,10.147,10.297,10.5895,10.9307,11.2758,11.1933,11.212,11.5633,0.0,0.0,0.0,0.0,0.0,0.0,0.0,0.0,0.0,0.0,0.0,12.1731,12.3316,12.4223,12.4223,12.4374,12.5129,12.6564,12.6564,12.6564,12.6564,12.6564,12.747,12.9056,12.9056,12.9131,12.9282,12.9282,12.9282,12.9282,12.9282,12.9282,12.9282,12.9282,12.9282,12.9282,12.9282,13.0264,13.1623,13.1774,13.2831,13.4191,13.4266,13.3209,13.1774,13.1774,13.0641,12.9282,12.9282,13.0415,13.1246,12.966,12.9282,12.966,13.1246,13.1623,13.2076,13.3662,13.404,13.4115,13.4115,13.5399,13.6532,13.6607,13.7966,13.9024,13.9175,13.9175,13.9175,13.9175,13.9175,13.9175,13.9175,13.9175,13.9175,13.9175,13.9175,13.9175,13.9175,13.9175,13.9206,13.9206,13.9055,13.9011,13.9011,13.8935,13.8028,13.6517,13.6517,13.5762,13.4372,13.4372,13.4342,8.9335,9.092,9.2183,9.0878,9.2485,9.4448,9.4403,9.5685,9.6666,9.5613,9.78,9.9934,10.0036,10.2788,10.658,11.1093,11.0727,11.0572,11.2664,11.191,11.2163,0.0,0.0,0.0,0.0,0.0,0.0,0.0,0.0,0.0,11.9918,12.158,12.2486,12.2486,12.3694,12.46,12.4978,12.4978,12.4978,12.4978,12.4978,12.5808,12.7319,12.7319,12.8074,12.9282,12.9282,12.9282,12.9282,12.9282,12.9282,12.9282,12.9282,12.9282,12.9282,12.9282,12.9509,13.0037,13.1321,13.2076,13.2605,13.3889,13.3209,13.1774,13.1774,13.0641,12.9282,12.9282,12.9584,12.9735,12.9358,12.9282,12.9358,12.9735,12.9886,12.9962,13.0339,13.1472,13.2378,13.2378,13.3738,13.5248,13.6456,13.6985,13.7664,13.8948,13.9175,13.9175,13.9175,13.9175,13.9175,13.9175,13.9175,13.9175,13.9175,13.9175,13.9175,13.9175,13.9175,13.9221,13.9283,13.8072,13.7458,13.7551,13.6261,13.5412,13.5032,13.5032,13.4811,13.4514,13.4514,13.4416,8.8126,8.9561,9.0014,8.6843,8.7975,8.9712,8.8957,9.1222,9.3261,9.2355,9.4847,9.7596,9.8931,10.1318,10.4107,10.7603,10.8212,10.912,11.1612,11.1159,11.1536,0.0,0.0,0.0,0.0,0.0,0.0,0.0,0.0,0.0,11.939,12.022,12.0749,12.0749,12.158,12.2486,12.3241,12.2486,12.2486,12.3241,12.3241,12.4072,12.5657,12.5657,12.6186,12.7092,0.0,12.8074,12.8149,12.9045,12.932,12.9312,12.942,12.9442,12.9348,12.9388,12.9442,12.9449,13.0322,13.0641,13.0792,13.1699,13.1397,13.0641,13.0641,12.9962,12.9282,12.9282,12.9282,12.9282,12.9282,12.9282,12.9282,12.9282,12.9282,12.9282,12.9282,12.9962,13.0641,13.0641,13.2001,13.3436,13.4266,13.5097,13.6154,13.7815,13.8042,13.8268,13.9099,13.9175,13.9175,13.9175,13.9175,13.9175,13.9175,13.9175,13.9175,13.9175,13.9284,13.9015,13.8293,13.7459,13.658,13.5899,13.4989,13.4154,13.3471,13.3471,13.3057,13.2303,13.2303,13.2197,8.6314,8.7693,8.7656,8.35,8.369,8.4577,8.3142,8.5861,8.873,8.9033,9.1374,9.4394,9.7717,9.9907,10.1644,10.338,10.5495,10.7911,11.0781,11.0932,11.1461,11.3348,0.0,0.0,0.0,0.0,0.0,0.0,0.0,11.939,11.939,11.939,11.939,11.939,11.939,12.0069,12.1504,12.0069,12.0069,12.1504,12.1504,12.241,12.3996,12.4052,12.4154,12.4532,0.0,12.6373,12.655,12.8047,12.8783,12.892,12.9224,12.939,12.9507,12.9655,12.9541,12.947,12.9348,12.9347,12.9347,12.9293,12.9265,12.9265,12.9282,12.9282,12.9312,12.932,12.932,12.9265,12.9265,12.9312,12.9282,12.9282,12.9282,12.9282,12.9282,12.9282,12.9282,12.9282,13.0415,13.1472,13.1774,13.2982,13.4493,13.6079,13.6532,13.7211,13.8646,13.9024,13.9175,13.9175,13.9175,13.9175,13.9175,13.9237,13.9116,13.8872,13.8807,13.8187,13.6734,13.6679,13.5854,13.42,13.3897,13.3138,13.1847,13.1847,13.1088,12.9714,12.9714,12.9655,8.4879,8.514,8.5098,8.4341,8.5442,8.6616,8.6389,8.5785,8.571,8.7145,8.7824,8.9259,9.2506,9.5602,9.8321,9.9982,10.3985,10.7081,10.7609,10.6477,10.6703,10.9799,11.0403,0.0,0.0,0.0,0.0,0.0,0.0,11.939,11.939,11.939,11.939,11.939,11.939,11.9465,11.9767,11.9465,11.9465,11.9767,11.9767,12.0598,12.2259,12.2261,12.3029,12.4392,0.0,0.0,12.4915,12.5243,12.6153,12.7431,12.7466,12.8387,12.9666,12.9687,12.9601,12.9579,12.9567,12.9554,12.9617,12.945,12.9388,12.9442,12.9293,12.9282,12.932,12.9558,12.9541,12.9388,12.9388,12.9323,12.9282,12.9282,12.9282,12.9282,12.9282,12.9282,12.9282,12.9282,12.9509,13.0113,13.1548,13.2001,13.2756,13.4417,13.5777,13.6758,13.6985,13.8268,13.9175,13.9175,13.9175,13.9175,13.9175,13.9257,13.8788,13.7429,13.6028,13.5141,13.4913,13.4985,13.4322,13.269,13.1247,13.0412,13.0185,13.0185,13.0059,12.9841,12.9841,12.9747,8.197,8.1939,8.2121,8.304,8.391,8.4684,8.5508,8.6551,8.7501,8.8146,8.9033,9.0467,9.2884,9.4621,9.6509,9.9076,10.2927,10.5872,10.6779,10.7005,10.7685,10.9271,11.0252,11.1385,0.0,0.0,0.0,0.0,0.0,11.803,11.803,11.8861,11.939,11.939,11.939,11.939,11.939,11.939,11.939,11.939,11.9468,11.984,12.0597,12.0581,12.1034,0.0,0.0,0.0,12.3313,12.4264,12.5092,12.5741,12.5889,12.6423,12.717,12.8172,12.8474,12.8537,12.9448,12.9729,12.9601,12.9541,12.9527,12.9589,12.9507,12.947,12.9507,12.9579,12.9655,12.9527,12.9527,12.947,12.9348,12.9348,12.932,12.9282,12.9282,12.9282,12.9282,12.9282,12.9282,12.9509,13.0264,13.0415,13.1019,13.268,13.3587,13.4644,13.6456,13.7362,13.8193,13.9099,13.9175,13.9162,13.9257,13.7762,13.6545,13.582,13.5079,13.4702,13.4702,13.3855,13.3145,13.2419,13.0674,12.9839,12.9839,12.9839,12.9866,12.9817,12.9817,12.984,8.0244,0.0,8.1826,8.3045,8.3415,8.3846,0.0,8.7473,8.918,8.9442,9.0811,9.2361,9.3721,9.4588,9.5904,9.8547,10.1644,10.4362,10.6099,10.776,10.8969,10.9422,11.0554,11.1385,11.1385,0.0,0.0,0.0,0.0,11.6295,11.6218,11.7857,11.8763,11.8786,11.8436,11.8433,11.8811,11.8811,11.9038,11.9416,11.9528,11.952,11.952,11.9585,11.9551,0.0,0.0,0.0,12.1699,12.3085,12.3843,12.4129,12.4276,12.4567,12.4978,12.6375,12.6845,12.7028,12.8699,12.9234,12.9215,12.9595,12.966,12.9714,12.9621,12.9646,12.9671,12.9671,12.966,12.9722,12.9722,12.9567,12.9524,12.9524,12.9388,12.9323,12.932,12.9373,12.9373,12.9312,12.9265,12.9293,12.9282,12.9282,12.9735,13.1019,13.1548,13.268,13.5172,13.5852,13.6638,13.7907,13.8088,13.8123,13.8222,13.5719,13.4095,13.4168,13.3904,13.3709,13.3709,13.2495,13.1736,13.1736,13.0522,12.9839,12.9839,12.9839,12.9839,12.9839,12.9839,12.9881,0.0,8.4428,8.6789,8.6865,8.6928,8.735,8.902,8.8413,0.0,8.9468,9.1058,9.2169,9.2306,9.4743,9.6886,9.7113,9.9907,10.2625,10.4287,10.6023,10.7685,10.9271,10.9497,10.9573,10.9573,0.0,0.0,0.0,0.0,0.0,11.4481,11.6208,11.7138,11.6973,11.5699,11.5772,11.7365,11.7365,11.8048,11.95,11.9585,11.9509,11.9509,11.9657,11.9743,0.0,0.0,0.0,0.0,12.0211,12.1206,12.2648,12.2639,12.3626,12.4992,12.5144,12.5144,12.5371,12.7117,12.7657,12.7884,12.9327,12.9827,12.984,12.9714,12.9765,12.9858,12.9858,12.9831,12.9842,12.9842,12.9741,12.9601,12.9601,12.9666,12.963,12.947,12.9574,12.9589,12.932,12.9348,12.942,12.9265,12.9282,12.9282,12.9433,13.0792,13.185,13.2076,13.3511,13.4611,13.4839,13.4862,13.4887,13.489,13.3315,13.2419,13.2514,13.1063,13.0219,13.0219,13.0067,12.9991,12.9991,12.9915,12.9839,12.9839,12.9839,12.9839,12.9839,12.9839,12.9849,8.3561,8.4857,8.6086,8.7148,8.8222,8.9141,8.9671,9.096,9.1565,9.0088,9.1047,9.216,9.215,9.4015,9.6177,9.822,10.0448,10.2776,10.557,10.6477,10.7156,10.776,10.7836,10.8289,0.0,11.0016,0.0,0.0,0.0,0.0,11.2987,11.4637,11.5016,11.3972,11.4384,11.5033,11.564,11.564,11.5943,11.6483,11.6527,11.6541,11.6696,11.7762,11.8273,0.0,0.0,0.0,0.0,11.9974,12.0278,12.0885,12.0885,12.1264,12.1947,12.301,12.3389,12.3693,12.5362,12.5969,12.6045,12.6652,12.7513,12.8375,12.8316,12.8369,12.8625,12.9612,12.9866,12.9812,12.9812,12.9841,12.9755,12.9755,12.9729,12.9601,12.963,12.9579,12.9666,12.9558,12.9489,12.941,12.9396,12.932,12.9282,12.9282,12.9903,13.0759,13.1742,13.2535,13.3407,13.4381,13.4532,13.3709,13.1739,13.1108,13.0769,13.0805,13.0174,12.9858,12.9858,12.9858,12.9858,12.9858,12.9858,12.9871,12.9818,12.9818,12.9829,12.9839,12.9839,12.9839,8.5447,8.6129,8.6812,8.7951,8.9165,9.024,9.1183,9.3162,9.4379,9.2557,9.3078,9.3601,9.3065,9.4369,9.6177,9.8388,10.0121,10.2155,10.5031,10.5409,10.5617,10.6146,10.616,10.6614,10.7811,0.0,0.0,0.0,0.0,0.0,11.1399,11.3009,11.3187,11.153,11.3124,11.396,11.396,11.396,11.4187,11.4722,11.4732,11.4801,11.4953,11.6052,11.6635,0.0,0.0,0.0,0.0,11.9747,11.9974,11.9974,11.9974,11.9974,12.005,12.1264,12.1644,12.1871,12.3617,12.4224,12.43,12.4831,12.5741,12.6728,12.6728,12.6728,12.6956,12.8018,12.8701,12.908,12.908,12.9508,12.9835,12.9835,12.9766,12.9675,12.9736,12.9747,12.9747,12.963,12.9655,12.9589,12.947,12.9396,12.9347,12.9347,12.942,12.9849,13.1074,13.1236,13.1755,13.2841,13.2993,13.2118,13.0057,12.9871,12.9858,12.9858,12.9831,12.9816,12.9816,12.9816,12.9816,12.9816,12.9816,12.9831,12.9858,12.9858,12.9871,12.9818,12.9818,12.9818,8.7495,8.871,9.0,9.0,9.0,9.091,9.4097,9.4856,9.5387,9.7057,9.7329,9.6888,9.5142,9.611,9.7209,9.7209,9.8575,10.0244,10.1981,10.2209,10.2816,10.4325,10.4528,10.4575,10.4543,10.6079,0.0,0.0,0.0,0.0,10.9662,11.1306,11.1615,11.0109,11.1551,11.2386,11.2386,11.2386,11.322,11.489,11.489,11.489,11.489,11.489,11.489,0.0,0.0,0.0,0.0,11.9215,11.9898,11.9898,11.9974,11.9974,11.9974,11.9974,11.9974,12.0202,12.1871,12.2478,12.2706,12.4376,12.4983,12.4983,12.4983,12.4983,12.4983,12.4983,12.6197,12.7487,12.7487,12.8625,12.9839,12.9839,12.9839,12.9866,12.9841,12.9823,12.9812,12.9653,12.9751,12.9751,12.9524,12.945,12.945,12.945,12.945,12.9466,12.9487,12.9426,12.9524,12.9612,12.9686,12.9736,12.9831,12.9816,12.9816,12.9816,12.9816,12.9816,12.9816,12.9816,12.9816,12.9816,12.9816,12.9816,12.9816,12.9816,12.9816,12.9816,12.9816,12.9831,8.8586,8.9368,8.9769,8.9985,9.091,9.2049,9.2959,9.5008,9.645,9.5767,9.6539,9.686,9.519,9.5217,9.5971,9.711,9.6703,9.758,10.1678,10.016,9.9773,10.2588,10.2941,10.2931,10.2892,10.441,10.6102,0.0,0.0,0.0,10.986,11.0383,11.0511,11.0033,11.1551,11.2386,11.2386,11.3524,11.4359,11.489,11.489,11.4283,11.3145,11.4359,11.4207,11.322,11.489,0.0,0.0,11.747,11.8153,11.8305,11.9443,11.9974,11.9974,11.9974,11.9974,12.005,12.0505,12.0657,12.0809,12.1264,12.2251,12.3237,12.3237,12.4072,12.4755,12.3541,12.4451,12.5741,12.5741,12.6956,12.817,12.817,12.908,12.9849,12.9874,12.9858,12.9858,12.9823,12.984,12.9841,12.9747,12.9687,12.9554,12.9554,12.9706,12.9747,12.9762,12.9764,12.9736,12.9773,12.9731,12.9693,12.9816,12.9785,12.9693,12.9693,12.9734,12.9716,12.9716,12.9716,12.9716,12.9716,12.9716,12.9734,12.9693,12.9693,12.9785,12.9816,12.9816,12.9816,8.9182,8.9442,8.9458,8.9634,9.0481,9.1566,9.305,9.4881,9.6407,9.6746,9.7133,9.6829,9.516,9.4891,9.4982,9.5361,9.5066,9.5822,9.8859,9.7566,9.7034,9.9087,9.9299,9.9294,9.9312,10.196,10.4169,10.531,0.0,0.0,10.9957,11.064,11.064,11.0033,11.1551,11.2082,11.1475,11.3069,11.3903,11.3903,11.4586,11.4359,11.3372,11.4435,11.4283,11.3448,11.4435,0.0,0.0,11.5952,11.6408,11.6483,11.7546,11.8381,11.8912,11.8912,11.9367,11.9974,11.9974,12.0354,12.0961,12.0961,12.1644,12.2554,12.3237,12.4148,12.4603,12.2934,12.3237,12.3996,12.3996,12.4755,12.5666,12.6349,12.7714,12.8929,12.8929,12.9384,12.9839,12.9839,12.9881,12.9835,12.9842,12.9759,12.9736,12.9736,12.9764,12.9762,12.9817,12.9839,12.9782,12.9755,12.9709,12.9676,12.9769,12.9658,12.964,12.964,12.9697,12.9678,12.9678,12.9678,12.9678,12.9678,12.9678,12.9697,12.964,12.964,12.9658,12.9769,12.9769,12.9769,8.9196,8.9142,8.9163,8.9259,8.9184,9.015,9.3805,9.4607,9.5646,9.9157,9.8643,9.7133,9.5387,9.4932,9.4401,9.2959,9.3642,9.4477,9.4856,9.4629,9.4553,9.4856,9.4751,9.4757,9.5091,9.9155,10.197,10.2376,0.0,0.0,10.9806,11.1247,11.1475,11.0033,11.1551,11.1703,11.0261,11.1779,11.2613,11.2613,11.4283,11.5042,11.489,11.5042,11.5042,11.489,11.489,0.0,0.0,11.489,11.4966,11.5118,11.4966,11.6028,11.7622,11.7318,11.8229,11.9671,11.9671,12.0733,12.2023,12.2402,12.2554,12.2934,12.43,12.4755,12.4376,12.2706,12.2251,12.2251,12.2251,12.2251,12.263,12.4376,12.6045,12.7259,12.7259,12.8549,12.9612,12.9612,12.9763,12.9866,12.984,12.9841,12.9841,12.9841,12.9762,12.9736,12.9845,12.9785,12.9676,12.9676,12.9658,12.964,12.9678,12.9678,12.9678,12.9678,12.9678,12.9678,12.9678,12.9678,12.9678,12.9678,12.9678,12.9678,12.9678,12.9678,12.9678,12.9678,12.9678,12.9678,8.8822,8.8904,8.8957,8.9142,8.9184,9.011,9.355,9.4529,9.5606,9.8892,9.9507,9.8878,9.7133,9.5767,9.478,9.4401,9.2504,9.1973,9.4477,9.2656,9.1973,9.4553,9.3807,9.4035,9.6602,9.783,9.9575,10.2217,0.0,0.0,10.7984,10.9578,11.0337,11.0033,11.1551,11.2234,11.1854,11.3524,11.4359,11.4359,11.6028,11.618,11.489,11.6256,11.618,11.489,11.489,0.0,0.0,11.489,11.5649,11.6711,11.5421,11.6711,11.9064,11.6408,11.6483,11.7925,11.7925,11.8153,11.8912,12.1568,12.3389,12.43,12.3313,12.301,12.263,12.0961,12.0505,12.0505,12.0505,12.0505,12.0885,12.263,12.43,12.5514,12.5514,12.6804,12.8018,12.8018,12.9004,12.9849,12.9866,12.9858,12.9839,12.9839,12.9818,12.9782,12.9816,12.9801,12.9769,12.9697,12.9697,12.9678,12.9678,12.9678,12.9678,12.9678,12.9678,12.9678,12.9678,12.9678,12.9678,12.9678,12.9678,12.9678,12.9678,12.9678,12.9678,12.9678,12.9678,12.9678,8.867,8.8765,8.8796,8.8925,8.898,8.9608,9.2322,9.3067,9.4155,9.7503,9.8409,9.8359,9.7362,9.5886,9.4629,9.387,9.1669,9.0607,9.2276,9.1062,9.0607,9.2352,9.2504,9.3187,9.4932,9.7209,9.9333,10.1079,10.3583,10.5328,10.6239,10.7908,10.9199,11.0033,11.0792,11.1247,11.1247,11.2841,11.3676,11.3676,11.5421,11.618,11.6104,11.7015,11.7394,11.7242,11.5573,0.0,11.4738,11.322,11.3069,11.3752,11.2917,11.4055,11.6104,11.4283,11.4738,11.618,11.618,11.7242,11.876,11.9747,12.0657,12.1492,12.2251,12.2478,12.2251,12.1416,12.1112,12.0961,12.0126,11.9974,12.0126,12.1037,12.1947,12.2782,12.3617,12.5134,12.6273,12.6273,12.7553,12.868,12.868,12.934,12.9845,12.9845,12.9816,12.9785,12.9785,12.9769,12.9734,12.9678,12.9678,12.9678,12.9678,12.9678,12.9678,12.9678,12.9678,12.9678,12.9678,12.9678,12.9678,12.9678,12.9678,12.9678,12.9678,12.9678,12.9678,12.9678,12.9678,12.9678,8.8433,8.8577,8.8577,8.8612,8.8612,8.9161,9.1018,9.1509,9.2446,9.561,9.6747,9.7046,9.6652,9.5629,9.4325,9.2807,9.1138,9.0,9.0,9.0,9.0,9.0,9.1214,9.22,9.2504,9.645,9.9258,0.0,10.1989,10.3507,10.4038,10.5708,10.7529,10.9502,10.9881,11.0033,11.0033,11.1323,11.193,11.193,11.3676,11.5193,11.6559,11.6863,11.7774,11.8912,11.6104,0.0,11.4662,11.1627,11.064,11.0792,11.0261,11.1172,11.2689,11.2158,11.2993,11.4435,11.4435,11.6256,11.8381,11.7015,11.6711,11.747,12.0278,12.1112,12.1188,12.1492,12.1568,12.134,12.0202,11.9974,11.9974,11.9974,11.9974,12.0354,12.172,12.3085,12.4224,12.4527,12.5786,12.6976,12.7279,12.8466,12.9498,12.9801,12.9769,12.9658,12.9658,12.9621,12.9678,12.9678,12.9678,12.9678,12.9678,12.9678,12.9526,12.9223,12.9223,12.9072,12.8769,12.8769,12.8769,12.8769,12.8769,12.892,12.9223,12.9223,12.9375,12.9678,12.9678,12.9678,8.7839,8.8325,8.8325,8.8472,8.8577,8.9094,9.0849,9.1408,9.2091,9.3924,9.5817,9.6743,9.5227,9.4946,9.4325,9.2807,9.1138,9.0,9.0,9.0,9.0,9.0,9.0227,9.091,9.2428,9.4325,9.6753,9.9713,9.7588,9.7512,10.0396,10.2217,10.457,10.7757,10.9274,11.0033,11.0033,11.0261,11.0337,11.0337,11.193,11.2765,11.3069,11.4586,11.5345,11.5497,11.5042,0.0,11.4738,11.2841,11.2917,11.3979,11.1096,11.1854,11.4207,11.1399,11.1323,11.2689,11.2689,11.2993,11.3296,11.3069,11.4055,11.5345,11.5725,11.5876,11.618,11.7698,11.8077,11.8381,11.9595,11.9974,11.9974,11.9974,11.9974,11.9974,12.0202,12.0429,12.1027,12.2524,12.4093,12.5584,12.7101,12.7511,12.8101,12.9449,12.964,12.9678,12.9678,12.9678,12.9678,12.9678,12.9678,12.9678,12.9678,12.9678,12.9072,12.7557,12.7481,12.6799,12.536,12.5284,12.5284,12.5284,12.5284,12.5966,12.7481,12.7481,12.8238,12.9678,12.9678,12.9678,8.741,8.8058,8.8213,8.8023,8.8288,8.8692,8.9584,8.9868,9.0371,9.1989,9.3274,9.4113,9.4365,9.385,9.3126,9.2648,9.1138,9.0,9.0,9.0,9.0,9.0,9.0834,9.1745,9.2428,9.3946,9.5463,9.6981,9.5691,9.5463,9.6981,9.8726,10.0699,10.3128,10.4873,10.6239,10.715,10.715,10.715,10.7226,10.7908,10.8667,10.9654,11.0413,11.1703,11.3448,0.0,11.2613,11.3296,11.1609,11.139,11.2006,11.0471,11.085,11.2006,11.0564,11.0413,11.102,11.102,11.1011,11.0926,11.0926,11.1466,11.231,11.322,11.3448,11.3827,11.5497,11.5952,11.618,11.6939,11.7091,11.7318,11.8305,11.8532,11.876,11.9747,11.9974,12.0117,12.0865,12.2273,12.3598,12.4403,12.6021,12.7443,12.8125,12.9091,12.9678,12.9678,12.9678,12.9678,12.9678,12.9678,12.9678,12.9678,12.9678,12.892,12.7254,12.7102,12.6345,12.4678,12.4603,12.4603,12.4603,12.4603,12.4981,12.5739,12.5739,12.6118,12.6799,12.6799,12.6799,8.6563,8.7284,8.7633,8.7062,8.7607,8.8288,8.8543,8.8612,8.8985,9.0257,9.1077,9.1817,9.2772,9.2493,9.2072,9.1856,9.0744,9.0,9.0,9.0,9.0,9.0,9.1138,9.1897,9.1897,9.3339,9.4097,0.0,9.3642,9.3794,9.4249,9.5843,9.774,9.9865,10.1534,10.3279,10.4949,10.4949,10.4949,10.4949,10.4949,10.5624,10.6734,10.6829,10.8119,11.0299,10.9626,11.0015,11.1002,11.0147,10.992,10.994,10.9833,10.992,10.994,10.994,10.994,10.993,10.9833,10.9798,10.9709,10.9822,10.992,11.0167,11.1381,11.1694,11.2073,11.3743,11.4274,11.4359,11.4738,11.4881,11.5184,11.6474,11.6778,11.7223,11.8893,11.9272,11.9424,11.9792,12.0819,12.1598,12.1626,12.4015,12.6193,12.7027,12.8163,12.8996,12.8996,12.9375,12.9678,12.9678,12.9678,12.9678,12.9678,12.9678,12.8769,12.6648,12.6496,12.5587,12.3466,12.3391,12.3391,12.3391,12.3391,12.3523,12.3841,12.3841,12.4068,12.4446,12.4446,12.4467,8.4892,8.5716,8.6376,8.5351,8.6427,8.7864,8.8325,8.8577,8.8612,8.8761,9.0252,9.1086,8.9581,9.0886,9.1577,9.0,8.9875,9.0,9.0,9.0,9.0,9.0,9.0075,9.0151,9.0151,9.1669,0.0,9.0379,0.0,9.0986,9.258,9.4173,9.6526,9.9789,10.1534,10.3279,10.4949,10.4949,10.4949,10.4949,10.4949,10.4903,10.4712,10.4957,10.5008,10.5044,10.6726,10.7523,10.7675,10.9191,10.9798,10.9798,10.9798,10.9798,10.9874,10.9874,10.9874,10.9785,10.9401,10.9248,10.9363,10.9682,10.9798,10.9874,10.9949,10.9974,11.0299,11.1968,11.2519,11.2841,11.451,11.4871,11.4926,11.5002,11.4979,11.5485,11.7166,11.7545,11.7987,11.946,11.9823,11.9883,11.9849,12.1346,12.3542,12.6648,12.7178,12.7254,12.7254,12.8693,12.9678,12.9678,12.9678,12.9678,12.9678,12.9678,12.8238,12.4906,12.4754,12.3315,12.0134,11.9982,11.9982,11.9982,11.9982,12.0565,12.1834,12.1834,12.2589,12.4052,12.4052,12.4256,8.3687,8.425,8.4481,8.2749,8.4146,8.5982,8.6383,8.7542,8.8543,8.8612,8.9194,8.9546,8.9075,8.966,9.0014,8.9655,8.9647,8.9779,8.9993,9.0,9.0,9.0,9.0,9.0,9.0,0.0,0.0,9.0075,9.0,9.0303,9.091,9.1316,9.3018,9.6417,9.694,9.8606,10.1469,10.1496,10.1533,10.1745,10.1445,10.1224,10.0987,10.1053,10.1657,10.2724,10.4577,10.6028,10.7164,10.8777,10.9458,10.9401,10.914,10.9169,10.9192,10.9192,10.9192,10.9192,10.9268,10.9216,10.9303,10.9668,10.9798,10.9798,10.9822,10.9822,10.9962,11.0568,11.0732,11.0895,11.1502,11.1654,11.1892,11.303,11.3246,11.3702,11.5446,11.6635,11.7608,11.8125,11.9081,11.9731,11.9731,12.0227,12.1421,12.3694,12.483,12.589,12.7027,12.8617,12.9678,12.9678,12.9678,12.9678,12.9678,12.9678,12.8238,12.483,12.4603,12.3163,11.9906,11.9484,11.9392,11.9392,11.9136,11.9215,11.969,11.969,12.012,12.09,12.09,12.1132,8.4307,8.4191,8.4035,8.2253,8.2828,8.3978,8.4517,8.6202,8.7686,8.7755,8.8238,8.8712,8.8856,8.898,8.9204,8.9426,8.9621,8.9779,8.9993,9.0,9.0,9.0,9.0,0.0,0.0,0.0,0.0,8.9884,8.9884,8.9884,8.9884,8.9735,9.0867,9.3604,9.4099,9.5666,9.8581,9.9128,9.9483,9.9621,9.9355,9.9196,9.8955,9.8928,9.9475,10.0622,10.2477,10.431,10.5972,10.7584,10.8566,10.9019,10.8768,10.8675,10.8813,10.8813,10.8653,10.848,10.875,10.8843,10.8913,10.9439,10.9605,10.9621,10.9772,10.9861,10.9847,10.9847,10.9861,10.9798,10.9798,10.9798,11.0113,11.1251,11.1478,11.1997,11.3589,11.4865,11.5988,11.7125,11.8156,11.9049,11.9656,11.9773,12.0134,12.127,12.2785,12.4224,12.536,12.7405,12.8769,12.8769,12.9299,12.9678,12.9678,12.9147,12.7632,12.4754,12.4013,12.2478,11.9831,11.9217,11.9003,11.9163,11.8753,11.8504,11.835,11.835,11.8277,11.8114,11.8114,11.8386,8.6334,8.5418,8.5162,8.4016,8.28,8.202,8.2997,8.4822,8.6307,8.6157,8.7422,8.8612,8.8612,8.8904,8.9259,8.9184,8.9634,9.0,9.0,9.0,9.0,9.0,9.0,9.0,0.0,8.9769,8.9608,8.9608,8.9608,8.9608,8.9608,8.9594,9.0275,9.1676,9.3391,9.5052,9.6735,9.8298,9.9105,9.9132,9.9132,9.9007,9.8955,9.877,9.8635,9.863,10.0437,10.2186,10.3841,10.542,10.7074,10.8544,10.8619,10.8619,10.8619,10.8619,10.8286,10.7744,10.7958,10.8054,10.8216,10.9007,10.9271,10.932,10.9704,10.9865,10.9819,10.9819,10.9834,10.9785,10.9785,10.9847,10.9819,10.9819,10.9789,11.0211,11.1802,11.2105,11.3165,11.6422,11.7104,11.771,11.9376,11.9679,11.9679,11.9755,12.1118,12.2179,12.2255,12.5057,12.7027,12.7102,12.8617,12.9602,12.9602,12.8087,12.6421,12.4678,12.2719,12.1107,11.9812,11.8944,11.8719,11.9136,11.8644,11.8275,11.7924,11.785,11.717,11.5986,11.5986,11.638,8.0123,8.168,8.3395,8.2032,8.3728,8.5464,8.4639,8.7938,9.0186,8.6722,8.7316,8.8507,8.8507,8.8781,8.9133,8.9238,8.9474,8.9769,8.9993,9.0,9.0,9.0,9.0,9.0,9.0,8.9769,8.9608,8.9608,8.9426,8.9338,8.9375,8.9129,8.9736,9.1302,9.2813,9.4429,9.62,9.7915,9.8758,9.8825,9.8666,9.8537,9.8504,9.822,9.8015,9.808,10.0091,10.1249,10.1887,10.4659,10.6157,10.6643,10.7585,10.7974,10.7974,10.7974,10.7863,10.7744,10.7958,10.8054,10.8216,10.8988,10.9244,10.932,10.9739,10.9789,10.9849,10.9849,10.9865,10.9789,10.9789,10.9804,10.9819,10.9819,10.9804,10.9956,11.041,11.1364,11.2407,11.3392,11.4528,11.5892,11.7634,11.7937,11.8316,11.9528,12.0134,12.0891,12.2103,12.3012,12.4527,12.6875,12.8617,12.9147,12.7935,12.7405,12.589,12.3088,12.2115,12.0954,11.9368,11.8578,11.8186,11.831,11.6712,11.5854,11.5703,11.4587,11.4097,11.4217,11.4217,11.4645,8.1887,8.2689,8.254,8.1646,8.2805,8.383,8.2493,8.6264,8.8991,8.5494,8.6722,8.8361,8.8397,8.8781,8.9157,8.9238,8.9565,8.9789,8.9993,9.0,9.0,9.0,8.9769,8.9621,8.9608,8.9374,8.9184,8.9184,8.9053,8.9033,8.9033,8.885,8.9171,8.9985,9.1458,9.3138,9.4856,9.65,9.7695,9.8401,9.8258,9.8178,9.8063,9.7876,9.7742,9.7816,9.9016,9.9962,10.0783,10.2722,10.4289,10.5588,10.6306,10.71,10.762,10.6877,10.6655,10.6778,10.7584,10.7005,10.6134,10.8093,10.8421,10.8185,10.9227,10.9722,10.9832,10.9832,10.9832,10.9832,10.9832,10.9849,10.9789,10.9789,10.9789,10.9789,10.9789,11.053,11.1347,11.2029,11.2938,11.415,11.5892,11.6725,11.7558,11.8543,11.8694,11.93,12.0967,12.1194,12.2179,12.483,12.5966,12.6421,12.6118,12.5512,12.43,12.2406,12.1207,12.0145,11.9163,11.7752,11.6952,11.6952,11.4935,11.3933,11.3933,11.2968,11.2541,11.2563,11.2563,11.2608,8.748,8.5638,8.1956,8.2353,8.1633,8.0594,0.0,8.2964,8.5679,8.3857,8.5867,8.8064,8.8361,8.8869,8.9196,8.9238,8.9634,9.0,9.0,8.9993,8.9909,8.9901,8.9518,8.9174,8.9105,8.885,8.8676,8.8646,8.8615,8.8615,8.8751,8.8615,8.8562,8.8361,8.9891,9.1566,9.3205,9.481,9.6367,9.795,9.795,9.7906,9.7742,9.7742,9.7742,9.7742,9.7742,9.8633,10.0044,10.0267,10.205,10.4649,10.4798,10.5838,10.6952,10.5466,10.4872,10.5095,10.658,10.5243,10.3481,10.6732,10.7133,10.673,10.8611,10.9487,10.9739,10.9739,10.9815,10.9832,10.9832,10.9832,10.9832,10.9832,10.9832,10.9832,10.9832,10.9832,11.0211,11.165,11.1877,11.2407,11.415,11.5665,11.6649,11.6649,11.6952,11.7785,11.9225,11.9603,12.0361,12.2103,12.2255,12.3012,12.4754,12.3466,12.2482,12.2255,12.0275,11.8956,11.8805,11.6774,11.5487,11.5068,11.3446,11.2448,11.2225,11.2076,11.1646,11.0909,11.0909,11.0496,0.0,0.0,0.0,0.0,0.0,0.0,0.0,8.7864,8.8647,8.5636,8.5679,8.6648,8.8026,8.8811,8.9249,8.9196,8.9697,9.0,9.0,8.9789,8.9608,8.9392,8.9299,8.9217,8.9174,8.8931,8.8736,8.8646,8.8462,8.8361,8.8363,8.8363,8.825,8.8133,8.9654,9.1248,9.2957,9.4635,9.6227,9.7861,9.7861,9.7742,9.7742,9.7742,9.7742,9.7742,9.7742,9.7965,9.841,9.9747,10.0713,10.1381,10.2644,10.3312,10.3535,10.3238,10.3089,10.3164,10.3535,10.4055,10.482,10.5835,10.6864,10.7806,10.8578,10.9063,10.9343,10.9343,10.9571,10.9832,10.9832,10.9832,10.9832,10.9832,10.9832,10.9832,10.9832,10.9832,10.9908,11.0211,11.0287,11.0741,11.2332,11.2938,11.3165,11.3165,11.5437,11.7331,11.7634,11.8922,12.0361,12.2103,12.2255,12.3466,12.6421,12.5133,12.3618,12.233,12.0013,11.8048,11.6584,11.6861,11.5748,11.2968,11.2671,11.1854,11.0517,10.9254,10.881,10.9179,10.9179,10.9365,0.0,0.0,0.0,0.0,0.0,0.0,0.0,0.0,0.0,0.0,0.0,8.5863,8.6833,0.0,8.7979,8.8955,8.9426,8.9747,8.9834,8.971,8.9502,8.9174,8.8904,8.8736,8.8822,8.8627,8.8468,8.8323,8.8213,8.8172,8.8247,8.8207,8.8167,8.8167,8.887,9.0018,9.1652,9.336,9.4994,9.6628,9.7371,9.7742,9.7742,9.7742,9.7742,9.7742,9.7742,9.7742,9.7816,9.8707,9.9524,10.0267,9.9376,9.9524,10.0267,10.1158,10.1456,10.1604,10.2347,10.2124,10.18,10.3636,10.4822,10.5851,10.6908,10.8051,10.9007,10.917,10.9367,10.9571,10.9739,10.9832,10.9832,10.9832,10.9832,10.9832,10.9832,10.9832,10.9832,10.9832,10.9832,11.0059,11.0817,11.0968,11.1271,11.2029,11.4301,11.6271,11.7104,11.8694,12.0058,12.0891,12.0172,12.0682,12.3239,12.2595,12.1721,12.0964,11.9427,11.7678,11.5672,11.5228,11.3843,11.1229,11.0465,10.97,10.8883,10.8161,10.8129,10.8653,10.8813,10.8818,0.0,0.0,0.0,0.0,0.0,0.0,0.0,0.0,0.0,0.0,0.0,0.0,0.0,0.0,0.0,8.8331,8.9012,8.9392,8.9534,8.9468,8.9314,8.8904,8.8537,8.8288,8.8358,8.8175,8.8053,8.8012,8.8012,8.8053,8.8207,8.8127,8.8053,8.8247,8.8127,8.8829,9.0389,9.1726,9.3286,9.4994,0.0,0.0,9.6851,9.7519,9.7445,9.6851,9.7148,9.7148,9.6851,9.6851,9.7668,9.8633,9.5959,9.5514,9.6628,9.8633,9.9376,9.9599,10.1158,10.0193,9.8707,10.1307,10.2623,10.3371,10.4757,10.6307,0.0,10.8055,10.849,10.8814,10.9268,10.9605,10.9832,10.9832,10.9832,10.9832,10.9832,10.9832,10.9832,10.9832,10.9832,10.9832,10.9832,10.9832,11.0211,11.1499,11.3165,11.468,11.6043,11.8013,11.9149,11.877,11.7709,11.7633,11.9149,11.9127,11.9061,11.9061,11.8446,11.6814,11.3931,11.2672,11.1139,10.9055,10.809,10.7644,10.7694,10.7989,10.8255,10.8653,10.8055,10.7402,0.0,0.0,0.0,0.0,0.0,0.0,0.0,0.0,0.0,0.0,0.0,0.0,0.0,0.0,0.0,0.0,8.8102,8.912,8.9392,8.9033,8.8627,8.8323,8.8288,8.8213,8.825,8.8286,8.8207,8.8012,8.8012,8.8012,8.8053,0.0,0.0,0.0,0.0,8.8829,9.0389,9.0612,9.1503,9.3211,9.492,9.492,9.3583,9.6479,9.6182,9.3583,9.5068,9.4845,9.3508,9.3508,9.3583,9.3731,9.336,9.2394,9.1652,9.4845,9.5959,9.6182,9.7742,0.0,0.0,10.0416,10.1502,10.2738,10.2887,10.3394,10.3872,10.4335,10.569,10.7076,10.7508,10.8696,10.9832,10.9832,10.9832,10.9832,10.9832,10.9832,10.9832,10.9832,10.9832,10.9832,10.9832,10.9832,10.9908,11.0059,11.1423,11.2483,11.271,11.5513,11.6952,11.5437,0.0,0.0,11.7482,11.7386,11.7321,11.7321,11.6815,11.4034,10.8599,10.9426,10.8496,10.5408,10.6823,10.7593,10.7694,10.7989,10.8255,10.8578,10.4295,10.3257,0.0,0.0,0.0,0.0,0.0,0.0,0.0,0.0,0.0,0.0,0.0,0.0,0.0,0.0,0.0,0.0,8.7505,8.7413,8.7475,8.7963,8.8213,8.8172,8.8172,8.8133,8.8167,8.8167,8.8167,8.8012,8.8012,8.8012,8.8012,8.8012,8.8012,8.8012,8.8012,8.8384,8.9052,8.9943,9.076,9.1503,9.2172,9.2172,9.1577,9.388,9.3657,0.0,9.4251,9.4474,9.2914,9.2914,9.232,0.0,0.0,0.0,0.0,0.0,9.3137,9.4103,9.4697,9.6034,9.7445,9.7445,9.9227,10.1307,10.1307,10.2041,10.2989,10.36,10.4416,10.5141,10.5655,10.6348,10.6878,10.6878,10.6878,10.7181,10.8166,10.8317,10.862,10.9605,10.9832,0.0,10.9832,10.9832,10.9832,10.9832,11.112,11.1802,11.0893,11.3695,11.5059,11.3392,11.3753,11.4447,11.5569,11.5413,0.0,0.0,0.0,11.275,10.9223,10.838,0.0,0.0,0.0,0.0,0.0,0.0,0.0,0.0,10.1118,10.1311,0.0,0.0,0.0,0.0,0.0,0.0,0.0,0.0,0.0,0.0,0.0,0.0,0.0,0.0,0.0,0.0,0.0,8.668,8.668,8.7095,8.7492,8.8012,8.8012,8.8012,8.8012,8.8012,8.8012,8.8012,8.8012,8.8012,8.8012,8.8012,8.8012,8.8012,8.8012,8.8012,8.8012,8.8755,8.9052,8.9052,8.9572,8.9275,8.8532,9.1057,9.0835,8.8606,9.1429,9.2023,9.0909,9.0909,9.0463,8.9572,8.8012,8.8087,8.9126,8.9572,9.0835,9.2394,9.3286,9.44,9.5514,9.5959,9.7668,9.9599,9.9599,10.0416,10.1461,10.2215,10.2412,10.2563,10.3215,10.3394,10.3545,10.4,10.4075,10.453,10.6272,10.6575,10.7105,10.8772,10.915,10.915,10.915,10.9529,10.9832,10.9832,11.0817,0.0,10.9302,11.1574,11.2559,11.0362,11.0761,11.1604,11.2446,11.2317,11.1628,11.0346,11.0208,10.9645,10.8301,10.6052,10.5139,10.5617,10.3823,10.2469,0.0,0.0,0.0,0.0,0.0,0.0,0.0,0.0,0.0,0.0,0.0,0.0,0.0,0.0,0.0,0.0,0.0,0.0,0.0,0.0,0.0,0.0,0.0,0.0,8.7979,8.6601,8.623,8.7864,8.8012,8.8012,8.8012,8.8012,8.8012,8.8012,8.8012,8.8012,8.8012,8.8012,8.8012,8.8012,8.8012,8.8012,8.8012,8.6453,8.571,8.571,8.7344,8.6453,8.3556,8.8309,8.7864,8.3482,8.519,8.5784,8.5784,8.5784,8.6675,8.7938,8.6304,8.5636,8.5858,8.7492,8.9126,9.0909,9.4177,9.5365,9.5662,9.7222,9.7742,9.789,9.789,9.789,9.8068,9.8687,9.8878,9.9024,9.9658,9.9909,10.0288,10.1955,10.2333,10.2788,10.4454,10.4833,10.5363,10.703,10.7408,10.7408,10.7408,10.8772,10.9832,10.9832,10.9832,0.0,10.756,10.8923,10.8696,10.5363,10.7938,10.9226,10.7619,10.7294,10.7081,10.7081,10.4734,10.3307,10.3233,10.104,10.0494,10.1967,10.3681,10.303,10.0004,0.0,0.0,0.0,0.0,0.0,0.0,0.0,0.0,0.0,0.0,0.0,0.0,0.0,0.0,0.0,0.0,0.0,0.0,0.0,0.0,0.0,0.0,0.0,0.0,0.0,8.7789,8.9423,8.8681,8.8012,8.8012,8.8012,8.8012,8.8012,8.8012,8.8012,8.8012,8.8012,8.8012,8.8012,8.8012,8.8012,8.8012,8.6378,8.5561,8.5561,8.3927,8.259,8.1625,8.4373,8.415,8.1699,8.4373,8.4967,8.4002,8.4002,8.4967,8.623,8.4596,8.4002,8.4076,8.467,8.5858,8.7344,8.8458,8.9646,9.0983,9.3657,9.5291,9.6405,9.7445,9.7963,9.8032,9.7294,9.7292,9.7294,9.6665,9.7258,9.8167,9.8773,9.9758,10.1046,10.2712,10.3091,10.3621,10.5287,10.4681,10.3924,10.3924,10.6272,10.7787,10.6651,10.8393,10.9226,10.7484,10.7787,10.7257,10.4984,10.5767,10.6524,10.697,10.5848,10.5087,10.5002,10.297,10.2101,10.286,10.0867,10.1582,10.5355,10.4843,10.1943,9.6816,0.0,0.0,0.0,0.0,0.0,0.0,0.0,0.0,0.0,0.0,0.0,0.0,0.0,0.0,0.0,0.0,0.0,0.0,0.0,0.0,0.0,0.0,0.0,0.0,0.0,0.0,8.9349,8.8681,0.0,8.8012,8.8012,8.8012,8.8012,8.8012,8.8012,8.8012,8.8012,8.7789,8.7195,8.7195,8.6898,8.6304,8.467,8.3779,8.3779,8.1699,8.0362,7.9917,8.1551,8.1402,7.9917,8.2071,8.3036,8.311,8.1922,8.2368,8.3779,8.3333,8.3556,8.4076,8.4076,8.467,8.5561,8.5561,8.623,8.7715,9.0983,9.2766,9.3954,9.5588,9.5804,9.5454,9.5417,9.5156,9.4704,9.4092,9.4683,9.5592,9.6198,9.7637,9.9303,10.097,10.1349,10.1652,10.2788,10.256,10.203,10.1424,10.3621,10.5363,10.4833,10.6651,10.7863,10.7332,10.7332,10.6424,10.4151,10.4311,10.4765,10.5112,10.4087,10.3579,10.4039,10.2215,10.17,10.2956,10.1759,10.2151,10.465,10.2965,9.9782,0.0,0.0,0.0,0.0,0.0,0.0,0.0,0.0,0.0,0.0,0.0,0.0,0.0,0.0,0.0,0.0,0.0,0.0,0.0,0.0,0.0,0.0,0.0,0.0,0.0,0.0,0.0,8.7938,8.8012,0.0,0.0,0.0,0.0,8.8012,8.8012,8.8012,8.7938,8.8012,8.727,8.5487,8.5487,8.4819,8.3185,8.1551,8.0659,8.0659,8.0585,7.9768,7.8431,7.9842,7.9768,7.8357,7.8357,8.0065,8.2739,7.962,7.9248,8.0808,8.2368,8.3853,8.519,8.5264,8.5338,8.5413,8.5561,8.5561,8.6155,8.9201,9.024,9.0579,9.2097,9.1545,0.0,0.0,9.2515,9.1444,9.2032,9.2335,9.2865,9.4456,9.6122,9.7788,9.9379,9.9758,9.9682,0.0,10.0818,10.1424,9.9758,0.0,10.2712,10.4303,10.4757,10.5515,10.7105,10.7332,10.6045,10.2863,10.3848,10.4101,10.242,10.2014,10.2502,10.4107,10.2132,10.1626,10.3198,10.2848,10.1759,9.9829,9.8471,0.0,0.0,0.0,0.0,0.0,0.0,0.0,0.0,0.0,0.0,0.0,0.0,0.0,0.0,0.0,0.0,0.0,0.0,0.0,0.0,0.0,0.0,0.0,0.0,0.0,0.0,8.6601,8.6601,8.9423,8.7641,8.6675,0.0,0.0,0.0,0.0,0.0,0.0,8.623,8.7344,8.675,8.3853,8.4967,8.4819,8.3185,8.1551,8.0659,8.0659,7.9471,7.8728,7.8357,7.8728,7.8728,7.8357,7.8357,7.8803,7.9545,7.8728,7.9248,8.0585,7.9842,7.9842,8.0362,8.1476,8.2739,8.3927,8.5116,8.6499,8.7615,8.6978,0.0,8.877,8.7988,0.0,0.0,0.0,0.0,9.0258,9.0427,9.2335,9.4304,9.4759,9.7031,9.9228,9.9606,9.9758,9.9,0.0,9.741,9.794,9.6349,0.0,0.0,0.0,0.0,10.6802,10.7257,10.7332,10.6954,10.6121,10.5219,10.4896,10.5618,10.3232,10.2421,10.3934,10.1178,10.001,10.1239,9.8843,9.7824,9.844,0.0,0.0,0.0,0.0,0.0,0.0,0.0,0.0,0.0,0.0,0.0,0.0,0.0,0.0,0.0,0.0,0.0,0.0,0.0,0.0,0.0,0.0,0.0,0.0,0.0,0.0,0.0,8.571,8.623,8.8012,8.727,8.6972,0.0,0.0,0.0,0.0,0.0,0.0,0.0,0.0,0.0,8.3259,8.4076,8.3407,8.1105,8.0139,7.962,7.962,7.8803,7.8357,7.8357,7.8357,7.8357,7.8357,7.8357,7.8357,7.8357,7.8357,7.9694,8.1699,0.0,0.0,0.0,0.0,8.248,8.3409,8.3483,8.391,0.0,8.4765,0.0,0.0,0.0,0.0,0.0,0.0,0.0,0.0,0.0,0.0,9.3774,9.3774,9.5743,9.7637,9.7637,9.7637,9.7031,0.0,9.5592,9.5895,9.4986,0.0,0.0,0.0,0.0,10.5363,10.6121,10.7484,10.809,10.7408,10.6336,10.5707,10.5821,10.3256,10.2366,10.3916,10.1414,10.016,10.0722,9.8331,9.6236,0.0,0.0,0.0,0.0,0.0,0.0,0.0,0.0,0.0,0.0,0.0,0.0,0.0,0.0,0.0,0.0,0.0,0.0,0.0,0.0,0.0,0.0,0.0,0.0,0.0,0.0,0.0,0.0,0.0,8.4967,8.519,0.0,0.0,0.0,0.0,0.0,0.0,0.0,0.0,0.0,0.0,0.0,0.0,0.0,8.1922,7.9322,7.8877,7.8654,7.8654,7.8431,7.8431,7.8654,7.8654,7.8654,7.8654,7.8654,0.0,7.8425,7.8355,0.0,0.0,0.0,0.0,0.0,0.0,0.0,0.0,0.0,0.0,0.0,0.0,0.0,0.0,0.0,0.0,0.0,0.0,0.0,0.0,0.0,0.0,9.2335,9.2335,9.3622,9.4683,0.0,9.4077,9.4228,9.4228,9.438,0.0,0.0,0.0,0.0,0.0,0.0,0.0,10.4303,10.756,10.9226,10.777,10.7452,10.6668,10.4891,10.3003,10.2488,10.354,10.1689,10.0314,10.0089,9.8594,0.0,0.0,0.0,0.0,0.0,0.0,0.0,0.0,0.0,0.0,0.0,0.0,0.0,0.0,0.0,0.0,0.0,0.0,0.0,0.0,0.0,0.0,0.0,0.0,0.0,0.0,0.0,0.0,0.0,0.0,0.0,0.0,0.0,0.0,0.0,0.0,0.0,0.0,0.0,0.0,0.0,0.0,0.0,0.0,0.0,0.0,0.0,0.0,0.0,0.0,7.8951,7.9025,8.0288,8.0288,8.0288,8.0288,8.0288,7.9746,7.895,7.8771,0.0,0.0,0.0,0.0,0.0,0.0,0.0,0.0,0.0,0.0,0.0,0.0,0.0,0.0,0.0,0.0,0.0,0.0,0.0,0.0,0.0,0.0,0.0,0.0,9.3622,9.3698,0.0,0.0,0.0,0.0,0.0,0.0,0.0,0.0,0.0,0.0,0.0,0.0,10.2863,10.6878,10.9664,10.9117,10.8936,10.8188,10.6472,10.4671,10.312,10.1961,9.9073,9.6618,0.0,0.0,0.0,0.0,0.0,0.0,0.0,0.0,0.0,0.0,0.0,0.0,0.0,0.0,0.0,0.0,0.0,0.0,0.0,0.0,0.0,0.0,0.0,0.0,0.0,0.0,0.0,0.0,0.0,0.0,0.0,0.0,0.0,0.0,0.0,0.0,0.0,0.0,0.0,0.0,0.0,0.0,0.0,0.0,0.0,0.0,0.0,0.0,0.0,0.0,0.0,0.0,0.0,0.0,0.0,0.0,0.0,0.0,0.0,8.2092,0.0,0.0,0.0,0.0,0.0,0.0,0.0,0.0,0.0,0.0,0.0,0.0,0.0,0.0,0.0,0.0,0.0,0.0,0.0,0.0,0.0,0.0,0.0,0.0,0.0,0.0,0.0,0.0,0.0,0.0,0.0,0.0,0.0,0.0,0.0,0.0,0.0,0.0,0.0,0.0,10.0904,10.5295,10.8682,10.9379,10.9295,10.846,10.6896,10.5063,10.2863,10.0307,9.7701,0.0,0.0,0.0,0.0,0.0,0.0,0.0,0.0,0.0,0.0,0.0,0.0,0.0,0.0,0.0,0.0,0.0,0.0,0.0,0.0,0.0,0.0,0.0,0.0,0.0,0.0,0.0,0.0,0.0,0.0,0.0,0.0,0.0,0.0,0.0,0.0,0.0,0.0,0.0,0.0,0.0,0.0,0.0,0.0,0.0,0.0,0.0,0.0,0.0,0.0,0.0,0.0,0.0,0.0,0.0,0.0,0.0,0.0,0.0,8.3062,0.0,0.0,0.0,0.0,0.0,0.0,0.0,0.0,0.0,0.0,0.0,0.0,0.0,0.0,0.0,0.0,0.0,0.0,0.0,0.0,0.0,0.0,0.0,0.0,0.0,0.0,0.0,0.0,0.0,0.0,0.0,0.0,0.0,0.0,0.0,0.0,0.0,0.0,0.0,0.0,0.0,9.9072,10.3781,10.7543,10.8709,10.8665,10.7923,10.6312,10.4461,10.2036,9.8652,9.6361,0.0,0.0,0.0,0.0,0.0,0.0,0.0,0.0,0.0,0.0,0.0,0.0,0.0,0.0,0.0,0.0,0.0,0.0,0.0,0.0,0.0,0.0,0.0,0.0,0.0,0.0,0.0,0.0,0.0,0.0,0.0,0.0,0.0,0.0,0.0,0.0,0.0,0.0,0.0,0.0,0.0,0.0,0.0,0.0,0.0,0.0,0.0,0.0,0.0,0.0,0.0,0.0,0.0,0.0,0.0,0.0,0.0,0.0,0.0,0.0,0.0,0.0,0.0,0.0,0.0,0.0,0.0,0.0,0.0,0.0,0.0,0.0,0.0,0.0,0.0,0.0,0.0,0.0,0.0,0.0,0.0,0.0,0.0,0.0,0.0,0.0,0.0,0.0,0.0,0.0,0.0,0.0,0.0,0.0,0.0,0.0,0.0,0.0,0.0,0.0,0.0,9.761,10.2964,10.7024,10.6952,10.6972,10.6207,10.4399,10.2744,10.0307,9.7073,0.0,0.0,0.0,0.0,0.0,0.0,0.0,0.0,0.0,0.0,0.0,0.0,0.0,0.0,0.0,0.0,0.0,0.0,0.0,0.0,0.0,0.0,0.0,0.0,0.0,0.0,0.0,0.0,0.0,0.0,0.0,0.0,0.0,0.0,0.0,0.0,0.0,0.0,0.0,0.0,0.0,0.0,0.0,0.0,0.0,0.0,0.0,0.0,0.0,0.0,0.0,0.0,0.0,0.0,0.0,0.0,0.0,0.0,0.0,0.0,0.0,0.0,0.0,0.0,0.0,0.0,0.0,0.0,0.0,0.0,0.0,0.0,0.0,0.0,0.0,0.0,0.0,0.0,0.0,0.0,0.0,0.0,0.0,0.0,0.0,0.0,0.0,0.0,0.0,0.0,0.0,0.0,0.0,0.0,0.0,0.0,0.0,0.0,0.0,0.0,0.0,0.0,9.702,10.0917,10.3835,10.3655,10.3617,10.2504,9.978,9.8953,9.7148,9.3765,0.0,0.0,0.0,0.0,0.0,0.0,0.0,0.0,0.0,0.0,0.0,0.0,0.0,0.0,0.0,0.0,0.0,0.0,0.0,0.0,0.0,0.0,0.0,0.0,0.0,0.0,0.0,0.0,0.0,0.0,0.0,0.0,0.0,0.0,0.0,0.0,0.0,0.0,0.0,0.0,0.0,0.0,0.0,0.0,0.0,0.0,0.0,0.0,0.0,0.0,0.0,0.0,0.0,0.0,0.0,0.0,0.0,0.0,0.0,0.0,0.0,0.0,0.0,0.0,0.0,0.0,0.0,0.0,0.0,0.0,0.0,0.0,0.0,0.0,0.0,0.0,0.0,0.0,0.0,0.0,0.0,0.0,0.0,0.0,0.0,0.0,0.0,0.0,0.0,0.0,0.0,0.0,0.0,0.0,0.0,0.0,0.0,0.0,0.0,0.0,0.0,0.0,9.5311,9.8551,10.0736,10.0256,10.0518,9.963,9.6848,9.6171,9.4592,9.1735,0.0,0.0,0.0,0.0,0.0,0.0,0.0,0.0,0.0,0.0,0.0,0.0,0.0,0.0,0.0,0.0,0.0,0.0,0.0,0.0,0.0,0.0,0.0,0.0,0.0,0.0,0.0,0.0,0.0,0.0,0.0,0.0,0.0,0.0,0.0,0.0,0.0,0.0,0.0,0.0,0.0,0.0,0.0,0.0,0.0,0.0,0.0,0.0,0.0,0.0,0.0,0.0,0.0,0.0,0.0,0.0,0.0,0.0,0.0,0.0,0.0,0.0,0.0,0.0,0.0,0.0,0.0,0.0,0.0,0.0,0.0,0.0,0.0,0.0,0.0,0.0,0.0,0.0,0.0,0.0,0.0,0.0,0.0,0.0,0.0,0.0,0.0,0.0,0.0,0.0,0.0,0.0,0.0,0.0,0.0,0.0,0.0,0.0,0.0,0.0,0.0,0.0,9.1838,9.6011,9.8524,9.6877,9.8051,9.8352,9.6772,9.5043,9.3389,0.0,0.0,0.0,0.0,0.0,0.0,0.0,0.0,0.0,0.0,0.0,0.0,0.0,0.0,0.0,0.0,0.0,0.0,0.0,0.0,0.0,0.0,0.0,0.0,0.0,0.0,0.0,0.0,0.0,0.0,0.0,0.0,0.0,0.0,0.0,0.0,0.0,0.0,0.0,0.0,0.0,0.0,0.0,0.0,0.0,0.0,0.0,0.0,0.0,0.0,0.0,0.0,0.0,0.0,0.0,0.0,0.0,0.0,0.0,0.0,0.0,0.0,0.0,0.0,0.0,0.0,0.0,0.0,0.0,0.0,0.0,0.0,0.0,0.0,0.0,0.0,0.0,0.0,0.0,0.0,0.0,0.0,0.0,0.0,0.0,0.0,0.0,0.0,0.0,0.0,0.0,0.0,0.0,0.0,0.0,0.0,0.0,0.0,0.0,0.0,0.0,0.0,0.0,9.1584,9.3972,9.5025,0.0,9.3614,9.3238,9.1584,9.0907,9.0907,9.1509,0.0,0.0,0.0,0.0,0.0,0.0,0.0,0.0,0.0,0.0,0.0,0.0,0.0,0.0,0.0,0.0,0.0,0.0,0.0,0.0,0.0,0.0,0.0,0.0,0.0,0.0,0.0,0.0,0.0,0.0,0.0,0.0,0.0,0.0,0.0,0.0,0.0,0.0,0.0,0.0,0.0,0.0,0.0,0.0,0.0,0.0,0.0,0.0,0.0,0.0,0.0,0.0,0.0,0.0,0.0,0.0,0.0,0.0,0.0,0.0,0.0,0.0,0.0,0.0,0.0,0.0,0.0,0.0,0.0,0.0,0.0,0.0,0.0,0.0,0.0,0.0,0.0,0.0,0.0,0.0,0.0,0.0,0.0,0.0,0.0,0.0,0.0,0.0,0.0,0.0,0.0,0.0,0.0,0.0,0.0,0.0,0.0,0.0,0.0,0.0,0.0,0.0,0.0,9.2111,9.2487,0.0,9.1133,9.0832,8.9178,8.9028,8.9178,8.9704,0.0,0.0,0.0,0.0,0.0,0.0,0.0,0.0,0.0,0.0,0.0,0.0,0.0,0.0,0.0,0.0,0.0,0.0,0.0,0.0,0.0,0.0,0.0,0.0,0.0,0.0,0.0,0.0,0.0,0.0,0.0,0.0,0.0,0.0,0.0,0.0,0.0,0.0,0.0,0.0,0.0,0.0,0.0,0.0,0.0,0.0,0.0,0.0,0.0,0.0,0.0,0.0,0.0,0.0,0.0,0.0,0.0,0.0,0.0,0.0,0.0,0.0,0.0,0.0,0.0,0.0,0.0,0.0,0.0,0.0,0.0,0.0,0.0,0.0,0.0,0.0,0.0,0.0,0.0,0.0,0.0,0.0,0.0,0.0,0.0,0.0,0.0,0.0,0.0,0.0,0.0,0.0,0.0,0.0,0.0,0.0,0.0,0.0,0.0,0.0,0.0,0.0,0.0,9.0381,9.0757,8.9178,9.0456,9.0757,8.9178,8.9028,8.8426,8.7148,8.5268,0.0,0.0,0.0,0.0,0.0,0.0,0.0,0.0,0.0,0.0,0.0,0.0,0.0,0.0,0.0,0.0,0.0,0.0,0.0,0.0,0.0,0.0,0.0,0.0,0.0,0.0,0.0,0.0,0.0,0.0,0.0,0.0,0.0,0.0,0.0,0.0,0.0,0.0,0.0,0.0,0.0,0.0,0.0,0.0,0.0,0.0,0.0,0.0,0.0,0.0,0.0,0.0,0.0,0.0,0.0,0.0,0.0,0.0,0.0,0.0,0.0,0.0,0.0,0.0,0.0,0.0,0.0,0.0,0.0,0.0,0.0,0.0,0.0,0.0,0.0,0.0,0.0,0.0,0.0,0.0,0.0,0.0,0.0,0.0,0.0,0.0,0.0,0.0,0.0,0.0,0.0,0.0,0.0,0.0,0.0,0.0,0.0,0.0,0.0,0.0,0.0,0.0,8.9404,8.9479,8.9028,8.9404,8.9479,8.9028,8.9028,8.9404,9.0381,8.6471,0.0,0.0,0.0,0.0,0.0,0.0,0.0,0.0,0.0,0.0,0.0,0.0,0.0,0.0,0.0,0.0,0.0,0.0,0.0,0.0,0.0,0.0,0.0,0.0,0.0,0.0,0.0,0.0,0.0,0.0,0.0,0.0,0.0,0.0,0.0,0.0,0.0,0.0,0.0,0.0,0.0,0.0,0.0,0.0,0.0,0.0,0.0,0.0,0.0,0.0,0.0,0.0,0.0,0.0,0.0,0.0,0.0,0.0,0.0,0.0,0.0,0.0,0.0,0.0,0.0,0.0,0.0,0.0,0.0,0.0,0.0,0.0,0.0,0.0,0.0,0.0,0.0,0.0,0.0,0.0,0.0,0.0,0.0,0.0,0.0,0.0,0.0,0.0,0.0,0.0,0.0,0.0,0.0,0.0,0.0,0.0,0.0,0.0,0.0,0.0,0.0,0.0,8.8426,8.8201,8.8952,8.9028,8.9028,8.9028,8.9028,8.9103,8.9328,8.6847,0.0,0.0,0.0,0.0,0.0,0.0,0.0,0.0,0.0,0.0,0.0,0.0,0.0,0.0,0.0,0.0,0.0,0.0,0.0,0.0,0.0,0.0,0.0,0.0,0.0,0.0,0.0,0.0,0.0,0.0,0.0,0.0,0.0,0.0,0.0,0.0,0.0,0.0,0.0,0.0,0.0,0.0,0.0,0.0,0.0,0.0,0.0,0.0,0.0,0.0,0.0,0.0,0.0,0.0,0.0,0.0,0.0,0.0,0.0,0.0,0.0,0.0,0.0,0.0,0.0,0.0,0.0,0.0,0.0,0.0,0.0,0.0,0.0,0.0,0.0,0.0,0.0,0.0,0.0,0.0,0.0,0.0,0.0,0.0,0.0,0.0,0.0,0.0,0.0,0.0,0.0,0.0,0.0,0.0,0.0,0.0,0.0,0.0,0.0,0.0,0.0,0.0,0.0,8.7674,8.9253,8.9178,8.9028,8.9028,8.9028,8.8426,8.7148,0.0,0.0,0.0,0.0,0.0,0.0,0.0,0.0,0.0,0.0,0.0,0.0,0.0,0.0,0.0,0.0,0.0,0.0,0.0,0.0,0.0,0.0,0.0,0.0,0.0,0.0,0.0,0.0,0.0,0.0,0.0,0.0,0.0,0.0,0.0,0.0,0.0,0.0,0.0,0.0,0.0,0.0,0.0,0.0,0.0,0.0,0.0,0.0,0.0,0.0,0.0,0.0,0.0,0.0,0.0,0.0,0.0,0.0,0.0,0.0,0.0,0.0,0.0,0.0,0.0,0.0,0.0,0.0,0.0,0.0,0.0,0.0,0.0,0.0,0.0,0.0,0.0,0.0,0.0,0.0,0.0,0.0,0.0,0.0,0.0,0.0,0.0,0.0,0.0,0.0,0.0,0.0,0.0,0.0,0.0,0.0,0.0,0.0,0.0,0.0,0.0,0.0,0.0,0.0,0.0,9.0983,8.9855,8.9028,8.9028,8.9028,8.8952,8.8652,0.0,0.0,0.0,0.0,0.0,0.0,0.0,0.0,0.0,0.0,0.0,0.0,0.0,0.0]}],[{"header":{"parameterUnit":"kt","parameterCategory":2,"dx":1,"dy":1,"la1":29.285339999999998,"la2":30.599998999999997,"lo1":-89.70041500000002,"lo2":-87.6738589999976,"nx":112,"ny":82,"refTime":"2022-10-17T06:00:00:Z","depth":0,"parameterNumber":2,"parameterNumberName":"V-component_of_WINDS"},"data":[4.8412,4.8554,0.0,4.7189,4.6706,0.0,4.4942,0.0,0.0,0.0,0.0,0.0,0.0,0.0,0.0,0.0,0.0,0.0,0.0,0.0,0.0,0.0,0.0,0.0,0.0,0.0,0.0,0.0,0.0,0.0,0.0,0.0,4.0714,4.0714,4.0039,3.9024,3.8027,3.8347,3.7652,3.5292,3.6467,3.722,3.722,3.736,3.8586,4.0549,4.0549,4.1816,4.3948,4.3948,4.4932,4.6422,4.6422,4.661,4.684,4.6526,4.6422,4.6463,4.6777,4.6882,4.6882,4.6882,4.6882,4.6882,4.6882,4.6882,4.6882,4.6882,4.6882,4.6882,4.6882,4.6882,4.6504,4.6148,4.5791,4.5413,4.3246,4.3982,4.3624,3.8949,3.931,3.8932,3.6056,3.5331,3.5331,3.5331,3.5331,3.5331,3.5331,3.5331,3.5331,3.5331,3.5331,3.5331,3.5331,3.5331,3.5331,3.5331,3.5331,3.5331,3.5331,3.5331,3.5268,3.5158,3.5268,3.5268,3.5142,3.5268,3.5331,3.5331,3.5331,3.5331,0.0,0.0,4.7331,4.5653,0.0,0.0,0.0,0.0,0.0,0.0,0.0,0.0,0.0,0.0,0.0,0.0,0.0,0.0,0.0,0.0,0.0,0.0,0.0,0.0,0.0,0.0,0.0,0.0,0.0,0.0,0.0,3.8135,3.8337,3.8466,3.8613,3.8009,3.6991,3.7331,3.6652,3.4287,3.4628,3.4968,3.4968,3.4968,3.6126,3.8424,3.8424,3.9673,4.1758,4.2104,4.34,4.522,4.5919,4.6129,4.6359,4.6045,4.5919,4.5982,4.6296,4.6505,4.6631,4.6631,4.6736,4.6882,4.6882,4.6882,4.6882,4.6882,4.6882,4.6882,4.6882,4.6882,4.6882,4.6882,4.6504,4.5413,4.432,4.434,4.3624,3.931,3.931,3.8949,3.6056,3.5331,3.5331,3.5331,3.5331,3.5331,3.5331,3.5331,3.5331,3.5331,3.5331,3.5331,3.5331,3.5331,3.5331,3.5331,3.5331,3.5331,3.5331,3.5331,3.5331,3.5331,3.5331,3.5331,3.5331,3.5331,3.5331,3.5331,3.5331,3.5331,0.0,0.0,0.0,4.4259,0.0,0.0,0.0,0.0,4.2894,0.0,0.0,0.0,0.0,0.0,0.0,0.0,0.0,0.0,0.0,0.0,0.0,0.0,0.0,0.0,0.0,0.0,0.0,0.0,0.0,0.0,3.7235,3.7455,3.7657,3.8061,3.8129,3.8668,3.8668,3.6652,3.5989,3.5989,3.4287,3.3263,3.3263,3.3263,3.4287,3.5989,3.5989,3.722,3.9636,4.099,4.2253,4.2993,4.4746,4.5459,4.5438,4.5459,4.5459,4.5459,4.548,4.5773,4.6129,4.6129,4.6463,4.6861,4.6861,4.6861,4.6882,4.6882,4.6882,4.6882,4.6882,4.6882,4.6882,4.6882,4.5413,4.3963,4.3604,4.217,4.0373,3.8588,3.8244,3.7504,3.5694,3.5331,3.5331,3.5331,3.5331,3.5331,3.5331,3.5331,3.5331,3.5331,3.5331,3.5331,3.5331,3.5331,3.5331,3.5331,3.5331,3.5331,3.5331,3.5331,3.5331,3.5331,3.5331,3.5331,3.5331,3.5331,3.5331,3.5331,3.5331,3.5331,4.4203,0.0,0.0,0.0,0.0,0.0,0.0,0.0,0.0,0.0,0.0,0.0,0.0,0.0,0.0,0.0,0.0,0.0,0.0,0.0,0.0,0.0,0.0,0.0,0.0,0.0,0.0,0.0,0.0,0.0,3.4163,3.5051,3.4896,3.4022,3.4299,3.4611,3.4611,3.5649,3.5309,3.3946,3.4968,3.4628,3.3263,3.3263,3.4287,3.5989,3.4628,3.57,3.8851,3.7831,3.8766,4.0492,4.2213,4.2721,4.2481,4.2781,4.395,4.504,4.5375,4.5563,4.5668,4.5668,4.5982,4.6359,4.6359,4.6589,4.6882,4.6882,4.6882,4.6882,4.6882,4.6882,4.6504,4.5056,4.432,4.3246,4.0391,4.0391,4.0013,3.678,3.7142,3.7504,3.5694,3.5331,3.5331,3.5331,3.5331,3.5331,3.5331,3.5331,3.5331,3.5331,3.5331,3.5331,3.5331,3.5331,3.5331,3.5331,3.5331,3.5331,3.5331,3.5331,3.5331,3.5331,3.5331,3.5331,3.5331,3.5331,3.5331,3.5331,3.5331,3.5331,0.0,0.0,0.0,0.0,0.0,0.0,4.2496,0.0,4.1756,0.0,0.0,0.0,0.0,0.0,0.0,0.0,0.0,0.0,0.0,0.0,0.0,0.0,0.0,0.0,0.0,0.0,0.0,0.0,0.0,3.3928,3.5015,3.418,3.3415,3.2757,3.2791,3.29,3.3042,3.4205,3.4287,3.3263,3.4287,3.4287,3.3263,3.3263,3.3946,3.4628,3.3605,3.427,3.6312,3.5989,3.6808,3.837,4.074,4.1265,4.0415,4.2341,4.314,4.352,4.4469,4.4894,4.4936,4.5124,4.5501,4.5877,4.5877,4.6212,4.6568,4.6568,4.6715,4.6882,4.6882,4.6148,4.5372,4.4102,4.2619,4.0835,3.8347,3.8347,3.7679,3.5662,3.6418,3.678,3.5694,3.5205,3.5126,3.5126,3.4984,3.4889,3.4889,3.5031,3.5126,3.5126,3.5252,3.5331,3.5331,3.5331,3.5331,3.5331,3.5331,3.5331,3.5331,3.5331,3.5331,3.5331,3.5331,3.5331,3.5331,3.5331,3.5331,3.5331,3.5331,3.5331,0.0,0.0,0.0,0.0,4.2923,0.0,0.0,0.0,0.0,4.1813,0.0,0.0,0.0,0.0,0.0,0.0,0.0,0.0,0.0,0.0,0.0,0.0,0.0,0.0,0.0,0.0,3.7459,3.9505,3.5671,3.4272,3.6654,3.4092,3.2604,3.328,3.2431,3.2316,3.2632,3.3011,3.32,3.32,3.3247,3.3263,3.3263,3.3263,3.3263,3.3605,3.3263,3.3605,3.3946,3.5309,3.5989,3.6669,3.972,4.0039,3.9363,4.2734,4.3091,4.2082,4.3427,4.4098,4.4161,4.458,4.4998,4.5333,4.503,4.5362,4.5736,4.5736,4.5674,4.6003,4.6003,4.4915,4.3371,4.3,4.0077,3.7595,3.724,3.5816,3.4873,3.5205,3.5268,3.5252,3.5221,3.4968,3.4763,3.4763,3.4495,3.4289,3.4289,3.4574,3.4763,3.4763,3.5031,3.5205,3.5205,3.5252,3.5252,3.5205,3.5284,3.5316,3.5268,3.5316,3.5331,3.5331,3.5331,3.5331,3.5331,3.5331,3.5331,3.5331,3.5331,3.5331,0.0,0.0,0.0,0.0,0.0,4.2041,0.0,0.0,0.0,0.0,0.0,0.0,0.0,0.0,0.0,0.0,0.0,0.0,0.0,0.0,0.0,0.0,0.0,0.0,0.0,3.884,3.8934,3.7608,3.6357,3.4611,3.2864,3.2588,3.2074,3.0981,3.129,3.1827,3.189,3.2537,3.2853,3.2853,3.3137,3.3263,3.3263,3.3263,3.3946,3.5309,3.3946,3.4952,3.767,3.6329,3.6991,3.8009,3.7348,3.8704,4.107,4.1745,4.2755,4.3763,4.4098,4.4098,4.4119,4.4203,4.4287,4.4095,4.3083,4.2123,4.1407,4.1407,4.1115,4.119,4.119,4.119,4.0451,3.8642,3.7922,3.6867,3.509,3.4737,3.4495,3.4858,3.4921,3.4826,3.4542,3.4431,3.44,3.44,3.4337,3.4289,3.4289,3.4353,3.44,3.44,3.4447,3.4495,3.4495,3.4763,3.4795,3.451,3.5016,3.5205,3.4937,3.5189,3.5331,3.5331,3.5331,3.5331,3.5331,3.5331,3.5331,3.5331,3.5331,3.5331,0.0,0.0,0.0,4.0761,0.0,0.0,0.0,0.0,4.2379,4.2684,4.1778,4.0788,0.0,0.0,0.0,0.0,0.0,0.0,0.0,0.0,0.0,0.0,0.0,0.0,0.0,3.6475,3.647,3.5362,3.5134,3.4428,3.2651,3.2122,3.191,3.1374,3.0973,3.1164,3.1684,3.2048,3.2316,3.2505,3.2853,3.3011,3.3011,3.3184,3.3605,3.4628,3.3605,3.427,3.5972,3.4968,3.6312,3.8668,3.767,3.8347,4.0039,4.107,4.2082,4.2755,4.3763,4.4098,4.4098,4.4098,4.4098,4.414,4.3336,4.2541,4.2076,4.1258,4.1122,4.1274,4.0247,3.92,3.8447,3.7226,3.613,3.51,3.4402,3.4037,3.4147,3.4495,3.4431,3.4305,3.4289,3.4147,3.4037,3.4037,3.3895,3.3768,3.3768,3.3926,3.4037,3.4037,3.4195,3.4289,3.4289,3.4463,3.4479,3.4305,3.4621,3.4731,3.4558,3.4716,3.481,3.481,3.4984,3.4343,3.2886,3.2738,3.2664,3.2649,3.1201,3.0567,0.0,0.0,0.0,0.0,0.0,0.0,4.0988,4.1301,4.1331,0.0,4.026,0.0,0.0,0.0,0.0,0.0,0.0,0.0,0.0,0.0,0.0,0.0,0.0,0.0,0.0,3.3524,3.3745,3.3818,3.354,3.3244,3.293,3.176,3.1153,3.1756,3.0707,3.0564,3.1385,3.159,3.1795,3.2032,3.2458,3.2616,3.2569,3.2979,3.3168,3.3168,3.3232,3.3605,3.3605,3.3605,3.5632,3.8009,3.8009,3.8347,3.9024,4.0376,4.0733,4.107,4.2398,4.3406,4.3763,4.3763,4.3763,4.4098,4.3763,4.3763,4.3152,4.1801,4.1811,4.1719,4.0007,3.827,3.6826,3.6502,3.5071,3.3689,3.3689,3.3689,3.3768,3.4037,3.3879,3.3784,3.4037,3.3863,3.3689,3.3689,3.3453,3.3263,3.3263,3.3516,3.3689,3.3689,3.3926,3.4084,3.4084,3.4147,3.4163,3.4084,3.421,3.4258,3.4195,3.4258,3.4289,3.4289,3.4574,3.3646,3.1474,2.9387,2.8573,2.9333,2.7195,2.6251,3.8286,3.8912,3.9566,0.0,0.0,0.0,4.2951,4.3235,4.3078,0.0,0.0,0.0,0.0,0.0,0.0,0.0,0.0,0.0,0.0,0.0,0.0,0.0,0.0,0.0,0.0,3.3285,3.3451,3.38,3.2651,3.1165,2.9676,2.9378,2.9426,2.9506,2.9822,3.0216,3.0327,3.1242,3.1558,3.1321,3.1969,3.2127,3.1827,3.2505,3.2821,3.2837,3.3137,3.4287,3.5649,3.5649,3.5989,3.6329,3.6329,3.7331,3.8686,3.9006,3.9024,3.9024,3.9344,4.0376,4.1745,4.1745,4.2755,4.3763,4.2082,4.1745,4.1408,3.9419,3.9117,3.9154,3.8815,3.7472,3.6109,3.6058,3.4677,3.3311,3.3311,3.3311,3.3326,3.3374,3.3342,3.3326,3.3374,3.3342,3.3311,3.3311,3.3279,3.3263,3.3263,3.3295,3.3311,3.3311,3.3358,3.3374,3.3374,3.3674,3.3721,3.3389,3.3958,3.4163,3.3863,3.4131,3.4289,3.4289,3.4337,3.4,3.3632,2.6266,2.3789,2.6486,2.6131,2.6143,3.7148,3.7774,3.8315,3.8571,0.0,0.0,4.1443,4.2211,4.2216,0.0,4.0355,0.0,0.0,0.0,0.0,0.0,0.0,0.0,0.0,0.0,0.0,0.0,0.0,0.0,0.0,0.0,0.0,3.0827,3.0272,2.9467,2.908,2.9095,2.919,2.9395,2.9695,3.0043,3.0453,3.069,3.0927,3.1195,3.1479,3.1653,3.17,3.2221,3.2569,3.2774,3.29,3.3413,3.4254,3.3831,3.3668,3.3685,3.3896,3.4974,3.6675,3.6903,3.767,3.8668,3.8668,3.9024,3.9701,3.9701,4.0376,4.0714,4.0039,3.9701,3.9701,3.9024,3.8009,3.6991,3.5632,3.4952,3.4287,3.4287,3.3946,3.3263,3.3263,3.3263,3.3263,3.3263,3.3263,3.3263,3.3263,3.3263,3.3263,3.3263,3.3263,3.2565,3.1182,3.084,3.0156,2.8785,2.8442,2.8442,2.8442,2.8563,2.8577,2.8455,2.8671,2.8752,2.8631,2.8739,2.8806,2.8806,2.7402,2.7131,2.905,2.5289,2.3479,2.288,2.149,2.0506,3.6352,0.0,0.0,0.0,0.0,0.0,3.9626,4.0392,4.0307,3.8443,3.8116,0.0,0.0,0.0,0.0,0.0,0.0,0.0,0.0,0.0,0.0,0.0,0.0,0.0,0.0,0.0,0.0,0.0,2.8448,2.859,2.8938,2.8953,2.9159,2.9616,2.9711,3.0058,3.0658,3.0516,3.0643,3.1037,3.1148,3.1274,3.1416,3.1874,3.2221,3.2474,3.2569,3.1733,3.0886,3.0412,3.0551,3.1244,3.0486,3.158,3.3285,3.2963,3.4108,3.6157,3.5904,3.6974,3.8009,3.8009,3.8347,3.8668,3.8668,3.8668,3.8668,3.8668,3.767,3.6312,3.4952,3.427,3.3946,3.3946,3.3605,3.3263,3.3263,3.3263,3.3263,3.3263,3.3263,3.2922,3.2223,3.2223,3.1881,3.1197,3.0855,3.0156,2.8428,2.8085,2.7399,2.5348,2.5004,2.5004,2.5004,2.5004,2.5004,2.5004,2.5004,2.5004,2.5004,2.5004,2.5004,2.5004,2.2924,2.3011,2.5265,2.3704,2.1554,1.9479,1.7764,1.6795,0.0,0.0,0.0,3.7787,3.7083,3.6722,3.8386,3.8095,3.6958,3.632,3.6441,0.0,0.0,0.0,0.0,0.0,0.0,0.0,0.0,0.0,0.0,0.0,0.0,0.0,0.0,0.0,0.0,0.0,0.0,2.8227,2.859,2.8606,2.8922,2.9601,2.9964,3.0311,3.0658,3.099,3.1006,3.0674,3.1021,3.1021,3.0721,3.14,3.1716,3.1748,3.2095,2.9571,2.4899,2.4875,2.6206,2.8214,2.5886,2.6219,2.827,2.5867,2.6657,2.9417,2.9358,3.2208,3.5989,3.5989,3.7331,3.8668,3.8668,3.8668,3.8668,3.8668,3.8686,3.8668,3.8668,3.7331,3.5989,3.5989,3.4628,3.3263,3.3263,3.3263,3.3263,3.3263,3.3263,3.2565,2.9799,2.9114,2.8428,2.5692,2.5348,2.5348,2.5348,2.5348,2.5004,2.5004,2.5004,2.5004,2.5004,2.5004,2.5004,2.5004,2.5004,2.5004,2.5004,2.5004,2.5004,2.5004,2.5004,2.5004,2.5016,1.9498,1.7078,1.6731,1.6731,1.6731,3.441,3.5187,3.5306,3.6299,3.675,3.7125,3.7878,3.8222,3.7831,3.6211,3.6167,0.0,0.0,0.0,0.0,0.0,0.0,0.0,0.0,0.0,0.0,0.0,0.0,0.0,0.0,0.0,0.0,0.0,0.0,0.0,2.8211,2.8227,2.8448,2.8922,2.9048,2.9506,3.0327,3.0674,3.0895,3.1006,3.0895,2.9943,2.8441,2.8658,2.7888,2.645,2.6555,2.5506,2.3697,2.3697,2.435,2.5014,2.4216,2.4618,2.5315,2.4911,2.5009,2.6026,2.6115,2.6956,2.847,2.847,2.8948,2.9785,2.9785,3.0811,3.2177,3.2177,3.3573,3.4952,3.4952,3.4611,3.4287,3.4287,3.3605,3.3263,3.3263,3.0498,2.7755,2.7755,2.7755,2.7412,2.6712,2.6368,2.6024,2.5348,2.5004,2.4315,2.2579,2.2234,2.1554,1.9834,1.9488,1.9488,1.9488,1.9368,1.9285,1.9285,1.9155,1.9146,1.9285,1.9155,1.9211,1.9488,1.9359,1.922,1.9081,1.752,1.6557,1.6557,1.6676,1.6731,3.3204,3.3721,3.3926,3.5217,3.5859,3.6192,3.6358,3.6684,3.6529,3.5282,3.4782,0.0,0.0,0.0,0.0,0.0,0.0,0.0,0.0,0.0,0.0,0.0,0.0,0.0,0.0,0.0,0.0,0.0,0.0,0.0,2.7864,2.788,2.8038,2.8385,2.7648,2.7824,2.8409,2.8335,2.8078,2.8279,2.8064,2.744,2.6015,2.6015,2.515,2.3685,2.1726,2.0987,2.085,2.085,2.1173,2.2155,2.1334,2.1399,2.2413,2.1656,2.2074,2.2761,2.2851,2.3656,2.4457,2.4457,2.4576,2.4731,2.4826,2.6218,2.761,2.7716,2.9128,3.0156,3.0156,3.0156,3.0156,3.0156,3.0156,3.0156,3.0156,2.7412,2.5004,2.5004,2.5004,2.4659,2.3625,2.3614,2.328,2.2245,2.2245,2.1554,1.9488,1.9479,1.8796,1.7078,1.6676,1.6636,1.6636,1.6477,1.6374,1.6374,1.6326,1.6318,1.6366,1.6382,1.6437,1.6541,1.6493,1.6382,1.6199,1.6318,1.6374,1.6374,1.6557,1.6636,3.1996,3.3072,3.3442,3.4398,3.4518,3.4033,3.3975,3.3403,3.3048,3.3048,3.3048,0.0,0.0,0.0,0.0,0.0,0.0,0.0,0.0,0.0,0.0,0.0,0.0,0.0,0.0,0.0,0.0,0.0,2.7012,2.7169,2.7517,2.7533,2.739,2.7719,2.6007,2.5281,2.5571,2.4237,2.3365,2.3412,2.3412,2.3412,2.3436,2.3436,2.3101,2.2767,1.7924,1.566,1.5668,1.5668,1.7293,1.923,1.6643,1.7293,1.926,1.6845,1.7564,1.9901,2.0109,2.185,2.4184,2.4184,2.4196,2.3921,2.4167,2.4238,2.4636,2.4885,2.4968,2.498,2.498,2.4992,2.5004,2.5004,2.5004,2.5004,2.5004,2.5004,2.4659,2.4659,2.4659,2.3614,2.1188,2.0497,1.9806,1.7046,1.6707,1.6707,1.6707,1.6707,1.6707,1.6707,1.6557,1.6453,1.6453,1.6287,1.6191,1.6199,1.6342,1.6358,1.6207,1.6509,1.6525,1.6207,1.6358,1.635,1.6176,1.6183,1.6183,1.6191,1.6374,1.6453,3.1498,3.2084,3.2413,3.3737,3.3801,3.338,3.3868,3.3403,3.3048,0.0,3.3048,0.0,0.0,0.0,0.0,0.0,0.0,0.0,0.0,0.0,0.0,0.0,0.0,0.0,0.0,0.0,0.0,0.0,2.6885,2.6225,2.4906,2.4626,2.4206,2.2789,2.2294,2.2307,2.2859,2.2665,2.2867,2.3139,2.3139,2.2273,2.0526,2.0526,1.9465,1.7403,1.6128,1.5556,1.5668,1.5668,1.5993,1.6643,1.5993,1.5993,1.6651,1.6049,1.6392,1.6719,1.6769,1.7538,1.7983,1.7983,1.8082,1.8215,1.8269,1.9961,2.1653,2.1716,2.3199,2.4707,2.4707,2.4849,2.5004,2.5004,2.5004,2.5004,2.5004,2.191,1.8804,1.8804,1.8804,1.8405,1.7922,1.7553,1.7169,1.6358,1.6334,1.6334,1.6334,1.6334,1.6334,1.6334,1.6295,1.6271,1.6271,1.6104,1.6057,1.6191,1.5993,1.5969,1.6191,1.6033,1.6025,1.6199,1.6112,1.5985,1.5803,1.5937,1.6001,1.6009,1.6183,1.6271,2.8536,2.9946,3.1478,3.3069,3.3257,3.3131,3.3403,3.3257,3.3048,3.3048,3.3048,0.0,0.0,0.0,0.0,0.0,0.0,0.0,0.0,0.0,0.0,0.0,0.0,0.0,0.0,0.0,0.0,0.0,2.6601,2.624,2.4863,2.4162,2.3186,2.222,2.0348,1.9498,1.9996,1.9339,1.9148,1.9721,1.9721,1.8831,1.7679,1.7679,1.6667,1.531,1.531,1.5406,1.5564,1.5564,1.5564,1.5572,1.5644,1.5628,1.5572,1.5644,1.5668,1.5668,1.5668,1.5739,1.5818,1.5818,1.589,1.5985,1.6057,1.7081,1.8433,1.8524,1.9634,2.1062,2.1062,2.1165,2.1257,2.1257,2.1339,2.138,2.1277,1.8474,1.6406,1.6485,1.6501,1.6493,1.6469,1.6406,1.6342,1.6318,1.6255,1.6199,1.6199,1.6199,1.6199,1.6199,1.6128,1.6088,1.6088,1.5922,1.5866,1.5961,1.5858,1.5842,1.5961,1.593,1.5922,1.5969,1.5803,1.566,1.5564,1.5588,1.5596,1.5596,1.5779,1.5898,2.5267,2.7901,3.0745,3.2524,3.2964,3.2985,3.3048,3.3048,3.3048,3.3048,3.3048,3.3048,0.0,0.0,0.0,0.0,0.0,0.0,0.0,0.0,0.0,0.0,0.0,0.0,0.0,0.0,0.0,0.0,2.5984,2.59,2.5628,2.3688,2.2732,2.2494,1.8817,1.6856,1.7258,1.5395,1.4747,1.5056,1.5104,1.5136,1.516,1.5112,1.5104,1.5128,1.5128,1.5223,1.539,1.539,1.539,1.5406,1.5549,1.5533,1.5437,1.5556,1.562,1.5636,1.5636,1.5636,1.5644,1.5668,1.5668,1.5699,1.5858,1.5898,1.593,1.6088,1.6128,1.6128,1.6128,1.6144,1.6168,1.6168,1.6247,1.6287,1.6128,1.5993,1.5945,1.6104,1.6128,1.6176,1.6334,1.6231,1.6176,1.631,1.6215,1.6128,1.6128,1.6128,1.6128,1.6128,1.5993,1.5898,1.5898,1.5755,1.5683,1.5707,1.5826,1.5842,1.5715,1.5977,1.5961,1.5612,1.5461,1.539,1.539,1.5231,1.516,1.516,1.5318,1.5469,2.6411,2.8411,3.0683,3.2148,3.2503,3.2608,3.2964,3.3048,3.3048,3.3048,3.3048,3.3048,3.3048,0.0,0.0,0.0,0.0,0.0,0.0,0.0,0.0,0.0,0.0,0.0,0.0,0.0,0.0,0.0,0.0,2.2577,2.0666,1.8823,1.7038,1.5297,1.4656,1.4301,1.4516,1.4543,1.4437,1.4501,1.4802,1.5017,1.5152,1.4858,1.4802,1.4937,1.4937,1.5041,1.5207,1.5207,1.5207,1.5207,1.5239,1.5318,1.5414,1.5295,1.5342,1.5469,1.5469,1.5469,1.5493,1.5628,1.5668,1.5676,1.5707,1.5715,1.5723,1.5755,1.5763,1.5763,1.5763,1.5874,1.5977,1.5977,1.5787,1.5596,1.5564,1.5644,1.5723,1.5755,1.5763,1.5771,1.5803,1.5787,1.5723,1.562,1.5691,1.5763,1.5763,1.5763,1.5763,1.5763,1.5731,1.5715,1.5715,1.5691,1.5731,1.5882,1.5779,1.5771,1.5882,1.581,1.5604,1.5255,1.5223,1.5207,1.5207,1.5175,1.516,1.516,1.5191,1.5223,2.4762,2.6937,2.9261,2.9421,3.0398,3.1679,3.265,3.288,3.2483,3.1006,3.1878,3.2796,3.2041,3.2061,0.0,0.0,0.0,0.0,0.0,0.0,0.0,0.0,0.0,0.0,0.0,0.0,0.0,0.0,0.0,2.0643,1.9314,1.7696,1.6248,1.5252,1.4144,1.381,1.3993,1.4239,1.4414,1.4501,1.4675,1.4802,1.4874,1.4707,1.4675,1.4755,1.4755,1.4858,1.5025,1.5025,1.5025,1.5033,1.512,1.5152,1.5152,1.516,1.5215,1.5287,1.5287,1.5287,1.5302,1.5382,1.5469,1.5525,1.5429,1.5469,1.5525,1.5429,1.5406,1.5406,1.5406,1.5469,1.5533,1.5533,1.5406,1.5287,1.5287,1.5279,1.5295,1.539,1.5326,1.5295,1.539,1.5477,1.5517,1.5437,1.5414,1.5406,1.5406,1.5406,1.5406,1.5406,1.5406,1.5406,1.5406,1.5406,1.5437,1.5525,1.5453,1.5445,1.5525,1.5453,1.5326,1.5168,1.5064,1.5025,1.5025,1.4929,1.4882,1.4882,1.4882,1.4929,2.2984,2.5148,2.7601,2.7183,2.8432,2.9891,3.1168,3.2256,3.1945,2.9449,3.0997,3.2464,3.1748,3.1396,0.0,0.0,0.0,0.0,0.0,0.0,0.0,0.0,0.0,0.0,0.0,0.0,0.0,0.0,0.0,0.0,1.8597,1.6834,1.5993,1.6079,1.4476,1.3882,1.4056,1.4223,1.4398,0.0,1.4572,1.4588,1.4628,1.4548,1.4541,1.4572,1.4612,1.4707,1.4834,1.4834,1.4834,1.485,1.4993,1.4985,1.4906,1.5009,1.5072,1.5104,1.5104,1.5104,1.5112,1.5144,1.5255,1.5342,1.5199,1.5255,1.5342,1.5199,1.5128,1.5104,1.5104,1.5104,1.5096,1.5056,1.5049,1.5049,1.5049,1.4937,1.4882,1.5017,1.4929,1.4882,1.5017,1.516,1.5263,1.5302,1.5223,1.516,1.516,1.516,1.516,1.516,1.516,1.516,1.516,1.516,1.516,1.516,1.516,1.516,1.516,1.5088,1.5049,1.5049,1.4906,1.4834,1.4834,1.4699,1.4628,1.4628,1.4628,1.4707,2.3553,2.4702,2.6092,2.778,2.732,2.6971,2.8073,3.0075,3.1452,3.0551,3.0762,3.1562,3.2568,3.2131,3.1372,0.0,0.0,0.0,0.0,0.0,0.0,0.0,0.0,0.0,0.0,0.0,0.0,0.0,0.0,0.0,0.0,1.4422,1.3271,1.3587,1.3789,1.3699,1.3874,1.4056,1.4223,1.439,1.439,1.4469,1.462,1.4302,1.4247,1.4398,1.4556,1.4636,1.4652,1.4652,1.4652,1.4652,1.4668,1.4763,1.4874,1.4731,1.4779,1.4922,1.4922,1.4922,1.4945,1.5104,1.5168,1.5183,1.5168,1.5175,1.5183,1.5168,1.5041,1.4922,1.4922,1.4922,1.4882,1.4715,1.4675,1.4675,1.4675,1.466,1.466,1.4675,1.466,1.466,1.4675,1.4691,1.4755,1.4922,1.5064,1.516,1.516,1.516,1.516,1.516,1.516,1.516,1.516,1.516,1.516,1.516,1.516,1.516,1.516,1.485,1.4675,1.4675,1.466,1.4652,1.4652,1.4636,1.4628,1.4628,1.4628,1.4636,2.074,2.2256,2.3823,2.346,2.472,2.635,2.6832,2.6293,2.59,2.6036,2.8541,3.0214,2.8974,2.9202,0.0,2.8351,0.0,0.0,0.0,0.0,0.0,0.0,0.0,0.0,0.0,0.0,0.0,0.0,0.0,0.0,0.0,1.3606,1.3183,1.3318,1.3493,1.3675,1.385,1.3921,1.4041,1.4215,1.4215,1.4255,1.4318,1.4183,1.4152,1.4223,1.4287,1.4318,1.4326,1.4429,1.4469,1.4477,1.4588,1.4668,1.4723,1.4652,1.4675,1.4731,1.4731,1.4731,1.4731,1.4691,1.4747,1.4802,1.4596,1.4675,1.4818,1.4707,1.4707,1.4731,1.4731,1.4731,1.4715,1.4644,1.4628,1.4628,1.4628,1.4628,1.4628,1.4628,1.4628,1.4628,1.4628,1.4628,1.4652,1.4723,1.4795,1.4842,1.4842,1.4842,1.4842,1.4842,1.4842,1.4842,1.4842,1.4842,1.4842,1.4842,1.4842,1.4842,1.4842,1.4707,1.4628,1.4628,1.4628,1.4628,1.4628,1.4628,1.4628,1.4628,1.4628,1.4628,1.7552,1.8908,2.0586,2.025,2.194,2.3794,2.5285,2.3102,2.1617,2.3742,2.6909,2.8447,2.6801,2.7342,0.0,2.6622,2.6646,0.0,0.0,0.0,0.0,0.0,0.0,0.0,0.0,0.0,0.0,0.0,0.0,0.0,0.0,1.3231,1.335,1.3398,1.3525,1.3644,1.3771,1.3771,1.3866,1.4041,1.4041,1.4009,1.3961,1.3961,1.3993,1.4041,1.4041,1.4072,1.4128,1.4239,1.4287,1.4302,1.4429,1.4477,1.4477,1.4477,1.4509,1.4548,1.4548,1.458,1.4604,1.4485,1.4493,1.4501,1.4263,1.4326,1.4453,1.4326,1.4414,1.4548,1.4548,1.4517,1.4493,1.4541,1.4548,1.4564,1.4612,1.4628,1.4628,1.4628,1.4628,1.4628,1.4628,1.4628,1.4628,1.4628,1.4628,1.4628,1.4628,1.4628,1.4628,1.4628,1.4628,1.4628,1.4628,1.4628,1.4628,1.4628,1.4628,1.4628,1.4628,1.4628,1.4628,1.4628,1.4628,1.4628,1.4628,1.4628,1.4628,1.4628,1.4628,1.4628,1.4842,1.504,1.6142,1.9618,1.9046,1.8864,2.2908,2.1354,2.0635,2.5507,2.6287,2.636,2.7795,2.715,2.6548,2.6501,2.6441,2.5304,0.0,0.0,0.0,0.0,0.0,0.0,0.0,0.0,0.0,0.0,0.0,0.0,0.0,1.3231,1.3406,1.358,1.3588,1.3588,1.3588,1.3588,1.3675,1.385,1.385,1.3763,1.3588,1.3588,1.3691,1.385,1.385,1.3953,1.412,1.412,1.412,1.412,1.412,1.412,1.412,1.412,1.4223,1.4366,1.4366,1.4485,1.4628,1.4628,1.4509,1.4366,1.4358,1.4247,1.412,1.412,1.4239,1.4366,1.4366,1.4247,1.416,1.4326,1.4366,1.4414,1.4588,1.4628,1.4628,1.4628,1.4628,1.4628,1.4628,1.4628,1.4628,1.4628,1.4628,1.4628,1.4628,1.4628,1.4628,1.4628,1.4628,1.4628,1.4628,1.4628,1.4628,1.4628,1.4628,1.4628,1.4628,1.4628,1.4628,1.4628,1.4628,1.4628,1.4628,1.4628,1.4628,1.4628,1.4628,1.4628,1.3909,1.4563,1.5586,1.6112,1.6549,1.6872,1.7807,1.7541,1.7617,1.9566,2.0006,2.0409,2.2147,2.3175,2.3381,2.2718,2.174,2.073,0.0,0.0,0.0,0.0,0.0,0.0,0.0,0.0,0.0,0.0,0.0,0.0,0.0,1.3231,1.335,1.3406,1.3525,1.3588,1.3588,1.3588,1.3612,1.3667,1.3667,1.3644,1.3588,1.3588,1.362,1.3667,1.3667,1.3699,1.3755,1.3755,1.3826,1.3945,1.4072,1.412,1.412,1.412,1.4152,1.4215,1.4326,1.4398,1.4445,1.4445,1.4334,1.4175,1.4048,1.3977,1.3937,1.3937,1.4064,1.4168,1.4041,1.4064,1.4128,1.4183,1.4199,1.4207,1.4271,1.4366,1.4445,1.4445,1.4541,1.4628,1.4628,1.4628,1.4628,1.4628,1.4628,1.4628,1.4628,1.4628,1.4628,1.4628,1.4628,1.4628,1.4628,1.4628,1.4628,1.4628,1.4628,1.4628,1.4628,1.4628,1.4628,1.4628,1.4628,1.4628,1.4628,1.4628,1.4628,1.4628,1.4628,1.4628,1.1888,1.2651,1.3357,1.3456,1.3629,1.3812,1.43,1.4669,1.519,1.6485,1.6786,1.7234,1.8504,1.9538,2.0183,1.987,1.8764,1.7935,1.7531,0.0,0.0,0.0,0.0,0.0,0.0,0.0,0.0,0.0,0.0,0.0,1.2969,1.3136,1.3231,1.3231,1.3334,1.3421,1.3485,1.3485,1.3485,1.3485,1.3485,1.3525,1.3588,1.3588,1.3588,1.3588,1.3588,1.3588,1.3588,1.3588,1.3652,1.3763,1.3874,1.3921,1.3921,1.3921,1.3961,1.4033,1.4136,1.4215,1.4271,1.4271,1.4152,1.4001,1.3882,1.3802,1.3755,1.3755,1.3882,1.3977,1.3794,1.3834,1.3937,1.4001,1.4017,1.4033,1.4104,1.4199,1.4271,1.4271,1.4414,1.4525,1.4525,1.458,1.4628,1.4628,1.4628,1.4628,1.4628,1.4628,1.4628,1.4628,1.4628,1.4628,1.4628,1.4628,1.4628,1.4628,1.4628,1.4628,1.4628,1.4628,1.4628,1.4628,1.4628,1.4596,1.4525,1.4525,1.4493,1.4437,1.4437,1.4437,0.9358,0.9651,1.0316,1.1726,1.0933,1.0341,1.2183,1.2775,1.341,1.5311,1.5786,1.6071,1.6309,1.6772,1.7068,1.7607,1.7478,1.6756,1.5223,0.0,0.0,0.0,0.0,0.0,0.0,0.0,0.0,0.0,0.0,0.0,1.2794,1.2961,1.3056,1.3056,1.3072,1.3152,1.3302,1.3302,1.3302,1.3302,1.3302,1.3398,1.3564,1.3564,1.3572,1.3588,1.3588,1.3588,1.3588,1.3588,1.3588,1.3588,1.3588,1.3588,1.3588,1.3588,1.3691,1.3834,1.385,1.3961,1.4104,1.4112,1.4001,1.385,1.385,1.3731,1.3588,1.3588,1.3707,1.3794,1.3628,1.3588,1.3628,1.3794,1.3834,1.3882,1.4048,1.4088,1.4096,1.4096,1.4231,1.435,1.4358,1.4501,1.4612,1.4628,1.4628,1.4628,1.4628,1.4628,1.4628,1.4628,1.4628,1.4628,1.4628,1.4628,1.4628,1.4628,1.4628,1.4324,1.4324,1.4309,1.3998,1.3998,1.399,1.3899,1.3747,1.3747,1.3671,1.3827,1.3827,1.412,0.9389,0.9556,0.9892,0.9953,0.9925,1.0135,1.0547,1.0691,1.08,1.1317,1.1575,1.227,1.3837,1.4446,1.4742,1.5366,1.4086,1.2843,1.2588,1.2503,1.2284,0.0,0.0,0.0,0.0,0.0,0.0,0.0,0.0,0.0,1.2604,1.2779,1.2874,1.2874,1.3001,1.3096,1.3136,1.3136,1.3136,1.3136,1.3136,1.3223,1.3382,1.3382,1.3461,1.3588,1.3588,1.3588,1.3588,1.3588,1.3588,1.3588,1.3588,1.3588,1.3588,1.3588,1.3612,1.3667,1.3802,1.3882,1.3937,1.4072,1.4001,1.385,1.385,1.3731,1.3588,1.3588,1.362,1.3636,1.3596,1.3588,1.3596,1.3636,1.3652,1.366,1.3699,1.3818,1.3914,1.3914,1.4056,1.4215,1.4342,1.4398,1.4469,1.4604,1.4628,1.4628,1.4628,1.4628,1.4628,1.4628,1.4628,1.4628,1.4628,1.4628,1.4628,1.4628,1.4628,1.3406,1.0962,1.0866,0.9913,0.7209,0.7141,0.7393,0.7372,0.7372,0.8541,1.0586,1.0586,1.176,0.9262,0.9413,0.9461,0.9128,0.9247,0.9429,0.935,0.9588,0.9802,0.9707,0.9969,1.0688,1.1709,1.2216,1.2552,1.2736,1.209,1.1469,1.1731,1.1683,1.1723,0.0,0.0,0.0,0.0,0.0,0.0,0.0,0.0,0.0,1.2548,1.2636,1.2691,1.2691,1.2779,1.2874,1.2953,1.2874,1.2874,1.2953,1.2953,1.304,1.3207,1.3207,1.3263,1.3358,0.0,1.3461,1.3469,1.2142,1.2452,1.3306,1.047,1.0187,1.1317,0.9899,1.0187,1.1895,1.3123,1.3731,1.3747,1.3842,1.381,1.3731,1.3731,1.366,1.3588,1.3588,1.3588,1.3588,1.3588,1.3588,1.3588,1.3588,1.3588,1.3588,1.3588,1.366,1.3731,1.3731,1.3874,1.4025,1.4112,1.4199,1.431,1.4485,1.4509,1.4533,1.462,1.4628,1.4628,1.4628,1.4628,1.4628,1.4628,1.4628,1.4628,1.4628,1.188,0.9416,0.755,0.7505,0.6859,0.5043,0.5009,0.4978,0.4952,0.4952,0.5809,0.7223,0.7223,0.8954,0.9072,0.9024,0.8633,0.8224,0.8612,0.8889,0.8739,0.9024,0.9326,0.9358,0.9604,0.9921,1.027,1.0501,1.0683,1.0866,1.1088,1.1342,1.1644,1.1659,1.1715,1.1913,0.0,0.0,0.0,0.0,0.0,0.0,0.0,1.2548,1.2548,1.2548,1.2548,1.2548,1.2548,1.262,1.2771,1.262,1.262,1.2771,1.2771,1.2866,1.3033,1.2491,1.2228,1.2265,0.0,1.2168,1.1907,0.9516,0.9853,1.1846,0.649,0.6215,0.8205,0.5377,0.6222,0.877,1.1317,1.217,1.217,1.2734,1.3016,1.3016,1.3588,1.3588,1.3306,1.2452,1.2452,1.3016,1.3016,1.3306,1.3588,1.3588,1.3588,1.3588,1.3588,1.3588,1.3588,1.3588,1.3707,1.3818,1.385,1.3977,1.4136,1.4302,1.435,1.4421,1.4572,1.4612,1.4628,1.4628,1.4628,1.4628,1.4628,1.402,1.3702,1.3066,0.7882,0.4826,0.5074,0.4474,0.4151,0.3514,0.3506,0.3486,0.3453,0.3453,0.3433,0.368,0.368,0.5377,0.8921,0.7823,0.6511,0.6453,0.7851,0.9104,0.908,0.9016,0.9008,0.9159,0.9231,0.9382,0.9723,1.0048,1.0334,1.0509,1.0929,1.1255,1.131,1.1191,1.1215,1.154,1.1604,0.0,0.0,0.0,0.0,0.0,0.0,1.2548,1.2548,1.2548,1.2548,1.2548,1.2548,1.2556,1.2588,1.2556,1.2556,1.2588,1.2588,1.2675,1.285,1.0428,0.9413,0.9517,0.0,0.0,0.6,0.5468,0.5508,0.5842,0.5008,0.4764,0.5095,0.4529,0.4809,0.5374,0.5657,0.594,0.6226,0.9052,0.9899,1.0187,1.2734,1.3588,1.2452,0.7357,0.7639,0.9899,0.9899,1.1599,1.3588,1.3588,1.3588,1.3588,1.3588,1.3588,1.3588,1.3588,1.3612,1.3675,1.3826,1.3874,1.3953,1.4128,1.4271,1.4374,1.4398,1.4533,1.4628,1.4628,1.4628,1.4628,1.4628,1.2183,0.9401,0.6601,0.5642,0.5014,0.5006,0.2356,-0.0293,-0.3185,-0.315,-0.313,-0.3125,-0.3125,-0.1703,0.0567,0.0567,0.2265,0.5552,0.4832,0.4304,0.417,0.4948,0.5922,0.7105,0.7382,0.7848,0.907,0.9358,0.9508,0.9762,0.9945,1.0143,1.0413,1.0818,1.1128,1.1223,1.1247,1.1318,1.1485,1.1588,1.1707,0.0,0.0,0.0,0.0,0.0,1.2405,1.2405,1.2493,1.2548,1.2548,1.2548,1.2548,1.2548,1.2548,1.2548,1.2548,1.0978,1.0221,1.0286,0.7375,0.6078,0.0,0.0,0.0,0.4306,0.2983,0.3276,0.4391,0.1099,0.0827,0.1942,0.028,0.0561,0.1963,0.1977,0.3114,0.4809,0.6222,0.6505,0.6791,0.8205,0.877,0.8205,0.5374,0.5377,0.6505,0.6505,0.877,1.1317,1.1317,1.2452,1.3588,1.3588,1.3588,1.3588,1.3588,1.3588,1.3612,1.3691,1.3707,1.3771,1.3945,1.4041,1.4152,1.4342,1.4437,1.4525,1.462,1.4628,1.4013,1.2183,0.7521,0.3874,0.2371,0.0884,-0.0294,-0.0294,-0.1752,-0.3196,-0.4624,-0.4563,-0.4534,-0.4534,-0.4534,-0.3684,-0.2549,-0.2549,-0.085,0.1576,0.0,0.2143,0.1993,0.2366,0.3111,0.0,0.5159,0.5845,0.7432,0.8344,0.8893,0.9024,0.9524,1.008,1.0358,1.0683,1.0969,1.1151,1.1326,1.1453,1.1501,1.162,1.1707,1.1707,0.0,0.0,0.0,0.0,1.1454,1.2215,1.1868,1.1959,1.2485,1.1404,1.0622,1.0656,1.0656,1.0676,1.071,0.8358,0.731,0.731,0.4437,0.3131,0.0,0.0,0.0,0.2124,0.0,0.054,0.2167,-0.244,-0.299,-0.1091,-0.3585,-0.3045,-0.1109,-0.1123,0.0564,0.2255,0.2262,0.2829,0.368,0.4243,0.3395,0.2263,0.2263,0.2829,0.3397,0.3397,0.5657,0.7922,0.7922,0.9899,1.1599,1.2452,1.1888,1.1888,1.3306,1.3016,1.2734,1.3588,1.3588,1.3636,1.3771,1.3826,1.3945,1.4207,1.4279,1.406,1.3583,1.3296,1.2084,0.8757,0.3554,-0.0,-0.0878,-0.3214,-0.4669,-0.4669,-0.4627,-0.46,-0.46,-0.4558,-0.4534,-0.4534,-0.4534,-0.4534,-0.4534,-0.4534,-0.3118,0.0,-0.1105,0.0189,0.019,0.1517,0.286,0.2914,0.2894,0.0,0.3124,0.4971,0.6647,0.6859,0.8706,1.0183,1.0207,1.0501,1.0786,1.0961,1.1144,1.1318,1.1485,1.1509,1.1517,1.1517,0.0,0.0,0.0,0.0,0.0,1.2032,0.9912,0.9733,1.2294,0.7583,0.4802,0.4868,0.4868,0.4896,0.4695,0.4437,0.4434,0.4434,0.1566,0.0261,0.0,0.0,0.0,0.0,-0.3935,-0.3703,-0.3747,-0.4015,-0.4047,-0.4092,-0.4097,-0.4097,-0.4104,-0.4161,-0.39,-0.3907,-0.3951,-0.1983,0.085,0.368,0.0566,-0.3968,-0.3968,-0.17,0.0283,0.0283,0.2548,0.4809,0.4809,0.5095,0.5943,0.877,0.7074,0.6791,1.2452,1.1317,1.047,1.3016,1.3588,1.3588,1.3604,1.3747,1.3858,1.3882,1.4033,1.2962,1.0316,1.0022,0.8545,0.5595,0.2327,-0.1156,-0.4049,-0.4291,-0.4547,-0.4547,-0.4542,-0.4539,-0.4539,-0.4537,-0.4534,-0.4534,-0.4534,-0.4534,-0.4534,-0.4534,-0.4251,-0.2553,-0.2407,-0.1878,-0.1902,-0.1347,-0.0583,0.0783,0.0992,0.1199,0.2752,0.3577,0.4225,0.4426,0.6368,0.7992,0.8161,0.9672,1.0802,1.1096,1.1191,1.1263,1.1326,1.1334,1.1382,0.0,1.0109,0.0,0.0,0.0,0.0,0.7158,0.6259,0.6279,0.722,0.5244,0.4268,0.4291,0.4291,0.4302,0.4068,0.2543,0.178,0.1528,-0.1285,-0.2581,0.0,0.0,0.0,0.0,-0.419,-0.42,-0.4221,-0.4221,-0.4235,-0.4258,-0.4296,-0.4309,-0.4319,-0.4378,-0.4399,-0.4402,-0.4423,-0.3617,-0.2521,-0.14,-0.2801,-0.4492,-0.4526,-0.3684,-0.2832,-0.2832,-0.0567,0.1699,0.1699,0.3114,0.4809,0.5943,0.5374,0.5095,0.7357,0.8487,0.9617,1.0752,1.2452,1.3588,1.3588,1.1936,1.0865,1.0947,0.9558,0.7867,0.6749,0.6756,0.4669,-0.0575,-0.2575,-0.3995,-0.5139,-0.5684,-0.5954,-0.5954,-0.5954,-0.5954,-0.5954,-0.5954,-0.567,-0.5101,-0.5101,-0.4817,-0.4534,-0.4534,-0.4534,-0.2984,-0.3008,-0.3032,-0.3071,-0.3114,-0.2757,-0.1393,-0.1016,-0.0824,0.0808,0.1625,0.2042,0.2234,0.412,0.5882,0.5802,0.7221,0.8488,0.8727,0.8759,0.9008,0.9053,0.9755,0.9796,0.9195,0.0,0.0,0.0,0.0,0.0,0.389,0.3453,0.247,0.1703,0.1728,0.174,0.174,0.174,0.1744,0.1502,-0.025,-0.1252,-0.1254,-0.3292,-0.4073,0.0,0.0,0.0,0.0,-0.4182,-0.419,-0.419,-0.419,-0.419,-0.4192,-0.4235,-0.4248,-0.4256,-0.4317,-0.4338,-0.4341,-0.4359,-0.4391,-0.4425,-0.4425,-0.4425,-0.4433,-0.447,-0.4494,-0.4508,-0.4508,-0.2826,-0.1416,-0.1416,0.0283,0.1981,0.2831,0.2265,0.2265,0.3961,0.5377,0.6791,0.877,1.0752,1.217,1.217,1.047,0.8795,0.7443,0.573,0.4025,0.3189,0.3192,0.0865,-0.4826,-0.567,-0.5954,-0.5954,-0.652,-0.6803,-0.6803,-0.6803,-0.6803,-0.6803,-0.6803,-0.652,-0.5954,-0.5954,-0.567,-0.5101,-0.5101,-0.5101,-0.3055,-0.3098,-0.3143,-0.3143,-0.3143,-0.3175,-0.3286,-0.3312,-0.3331,-0.3389,-0.1699,0.0,0.0208,0.1887,0.3395,0.3395,0.3442,0.3501,0.3784,0.3792,0.3815,0.4099,0.6164,0.6625,0.4336,0.3936,0.0,0.0,0.0,0.0,0.359,0.1457,-0.0974,-0.3845,-0.3895,-0.3925,-0.3925,-0.3925,-0.3954,-0.4012,-0.4012,-0.4012,-0.4012,-0.4012,-0.4012,0.0,0.0,0.0,0.0,-0.4163,-0.4187,-0.4187,-0.419,-0.419,-0.419,-0.419,-0.419,-0.4198,-0.4256,-0.4277,-0.4285,-0.4343,-0.4364,-0.4364,-0.4364,-0.4364,-0.4364,-0.4364,-0.4407,-0.4452,-0.4452,-0.4492,-0.4534,-0.4534,-0.4534,-0.3684,-0.0567,-0.2266,-0.2832,0.3112,0.1982,0.1982,0.7922,0.9052,0.9052,0.9052,0.9052,0.7635,0.3673,0.3107,0.1978,-0.0848,-0.1132,-0.2831,-0.652,-0.6803,-0.6803,-0.6803,-0.6803,-0.6803,-0.6803,-0.6803,-0.6803,-0.6803,-0.6803,-0.6803,-0.6803,-0.6803,-0.6803,-0.6803,-0.6803,-0.652,-0.5612,-0.527,-0.4901,-0.3536,-0.3175,-0.3214,-0.3246,-0.3318,-0.3368,-0.3344,-0.295,-0.2325,-0.2285,-0.0415,0.1047,0.1059,0.2532,0.3621,0.3773,0.3716,0.392,0.3807,0.4494,0.4719,0.3818,0.3874,0.3242,0.0,0.0,0.0,-0.1678,-0.2168,-0.3135,-0.3842,-0.3895,-0.3925,-0.3925,-0.3964,-0.3993,-0.4012,-0.4012,-0.3991,-0.3951,-0.3993,-0.3988,-0.3954,-0.4012,0.0,0.0,-0.4102,-0.4126,-0.4131,-0.4171,-0.419,-0.419,-0.419,-0.419,-0.4192,-0.4208,-0.4213,-0.4219,-0.4235,-0.4269,-0.4304,-0.4304,-0.4333,-0.4357,-0.4314,-0.4346,-0.4391,-0.4391,-0.4433,-0.4476,-0.4476,-0.4508,-0.4251,-0.3401,-0.3968,-0.3968,-0.2266,-0.085,0.0567,0.2265,0.4529,0.594,0.594,0.3963,0.2265,0.1132,-0.0849,-0.2831,-0.4248,-0.5381,-0.623,-0.6803,-0.737,-0.7648,-0.7648,-0.8219,-0.8502,-0.8502,-0.8502,-0.8502,-0.8502,-0.8502,-0.8219,-0.7648,-0.7648,-0.737,-0.6803,-0.6803,-0.6803,-0.7802,-0.7432,-0.7237,-0.5875,-0.5732,-0.54,-0.4673,-0.4557,-0.442,-0.359,-0.3392,-0.3381,-0.3323,-0.2071,-0.1243,-0.1248,-0.0,0.0836,0.0863,0.1064,0.1059,0.0865,0.195,0.2167,0.1083,0.178,0.1364,-0.1149,0.0,0.0,-0.384,-0.3864,-0.3864,-0.3842,-0.3895,-0.3914,-0.3893,-0.3948,-0.3978,-0.3978,-0.4001,-0.3993,-0.3959,-0.3996,-0.3991,-0.3962,-0.3996,0.0,0.0,-0.4049,-0.4065,-0.4068,-0.4105,-0.4134,-0.4152,-0.4152,-0.4168,-0.419,-0.419,-0.4203,-0.4224,-0.4224,-0.4248,-0.428,-0.4304,-0.4335,-0.4351,-0.4293,-0.4304,-0.433,-0.433,-0.4357,-0.4388,-0.4412,-0.446,-0.4502,-0.4502,-0.4518,-0.4534,-0.4534,-0.3118,-0.1416,-0.0283,0.1416,0.2831,0.2831,0.0849,-0.1132,-0.2549,-0.4534,-0.595,-0.6516,-0.7365,-0.7931,-0.7653,-0.8214,-0.8497,-0.8497,-0.8785,-0.9068,-0.9068,-0.9068,-0.9068,-0.9068,-0.9068,-0.8785,-0.8497,-0.8497,-0.8214,-0.7653,-0.7653,-0.7653,-0.9966,-0.9763,-0.9568,-0.9382,-0.9374,-0.8879,-0.7177,-0.6616,-0.585,-0.4113,-0.366,-0.3392,-0.3331,-0.3315,-0.3297,-0.3246,-0.327,-0.3299,-0.3312,-0.3305,-0.3302,-0.3312,-0.1447,-0.1034,-0.3113,-0.1514,-0.1112,-0.3351,0.0,0.0,-0.3834,-0.3885,-0.3893,-0.3842,-0.3895,-0.3901,-0.385,-0.3903,-0.3933,-0.3933,-0.3991,-0.4017,-0.4012,-0.4017,-0.4017,-0.4012,-0.4012,0.0,0.0,-0.4012,-0.4015,-0.402,-0.4015,-0.4052,-0.4107,-0.4097,-0.4129,-0.4179,-0.4179,-0.4216,-0.4261,-0.4274,-0.428,-0.4293,-0.4341,-0.4357,-0.4343,-0.4285,-0.4269,-0.4269,-0.4269,-0.4269,-0.4282,-0.4343,-0.4402,-0.4444,-0.4444,-0.4489,-0.4526,-0.4526,-0.4531,-0.3684,-0.085,-0.0567,-0.0567,-0.0567,-0.1132,-0.2831,-0.6237,-0.737,-0.7931,-0.7931,-0.8214,-0.8497,-0.9068,-0.9068,-0.9068,-0.9068,-0.9068,-0.9068,-0.9068,-0.9068,-0.9068,-0.9068,-0.9068,-0.9068,-0.9068,-0.9068,-0.9068,-0.9068,-0.9068,-0.9068,-1.2879,-1.2297,-1.1909,-0.9763,-0.9374,-0.9272,-0.9214,-0.7647,-0.6476,-0.6265,-0.478,-0.3453,-0.3392,-0.3344,-0.331,-0.3297,-0.323,-0.3212,-0.3299,-0.3236,-0.3212,-0.3302,-0.2866,-0.2873,-0.3373,-0.2989,-0.3042,-0.3569,0.0,0.0,-0.3771,-0.3827,-0.3853,-0.3842,-0.3895,-0.3919,-0.3906,-0.3964,-0.3993,-0.3993,-0.4052,-0.4057,-0.4012,-0.406,-0.4057,-0.4012,-0.4012,0.0,0.0,-0.4012,-0.4039,-0.4076,-0.4031,-0.4076,-0.4158,-0.4065,-0.4068,-0.4118,-0.4118,-0.4126,-0.4152,-0.4245,-0.4309,-0.4341,-0.4306,-0.4296,-0.4282,-0.4224,-0.4208,-0.4208,-0.4208,-0.4208,-0.4221,-0.4282,-0.4341,-0.4383,-0.4383,-0.4428,-0.447,-0.447,-0.4505,-0.4251,-0.3684,-0.3968,-0.4534,-0.4534,-0.5101,-0.595,-0.6803,-0.7087,-0.7653,-0.8785,-0.8785,-0.9068,-0.9068,-0.9068,-0.9068,-0.9068,-0.9068,-0.9068,-0.9068,-0.9068,-0.9068,-0.9068,-0.9068,-0.9068,-0.9068,-0.9068,-0.9068,-0.9068,-0.9068,-0.9068,-1.4838,-1.4258,-1.4064,-1.2695,-1.2307,-1.2195,-1.1336,-1.0192,-0.9273,-0.853,-0.6666,-0.494,-0.5103,-0.4186,-0.3305,-0.3278,-0.3201,-0.3164,-0.3222,-0.318,-0.3164,-0.3225,-0.323,-0.3254,-0.3315,-0.3395,-0.3469,-0.353,-0.3617,-0.3678,-0.371,-0.3768,-0.3813,-0.3842,-0.3869,-0.3885,-0.3885,-0.394,-0.397,-0.397,-0.4031,-0.4057,-0.4054,-0.4086,-0.4099,-0.4094,-0.4036,0.0,-0.4007,-0.3954,-0.3948,-0.3972,-0.3943,-0.3983,-0.4054,-0.3991,-0.4007,-0.4057,-0.4057,-0.4094,-0.4147,-0.4182,-0.4213,-0.4243,-0.4269,-0.4277,-0.4269,-0.424,-0.4229,-0.4224,-0.4195,-0.419,-0.4195,-0.4227,-0.4258,-0.4288,-0.4317,-0.437,-0.441,-0.441,-0.4733,-0.5056,-0.5056,-0.5647,-0.6237,-0.6237,-0.6803,-0.737,-0.737,-0.7653,-0.8219,-0.9068,-0.9068,-0.9068,-0.9068,-0.9068,-0.9068,-0.9068,-0.9068,-0.9068,-0.9068,-0.9068,-0.9068,-0.9068,-0.9068,-0.9068,-0.9068,-0.9068,-0.9068,-0.9068,-0.9068,-0.9068,-1.6191,-1.5818,-1.5818,-1.5625,-1.5625,-1.512,-1.3603,-1.2861,-1.2171,-1.0682,-0.8464,-0.6573,-0.6759,-0.4803,-0.3294,-0.3241,-0.3183,-0.3143,-0.3143,-0.3143,-0.3143,-0.3143,-0.3185,-0.322,-0.323,-0.3368,-0.3466,0.0,-0.3562,-0.3615,-0.3633,-0.3691,-0.3755,-0.3824,-0.3837,-0.3842,-0.3842,-0.3887,-0.3909,-0.3909,-0.397,-0.4023,-0.407,-0.4081,-0.4113,-0.4152,-0.4054,0.0,-0.4004,-0.3898,-0.3864,-0.3869,-0.385,-0.3882,-0.3935,-0.3917,-0.3946,-0.3996,-0.3996,-0.406,-0.4134,-0.4086,-0.4076,-0.4102,-0.42,-0.4229,-0.4232,-0.4243,-0.4245,-0.4237,-0.4198,-0.419,-0.419,-0.419,-0.419,-0.4203,-0.4251,-0.4298,-0.4338,-0.4349,-0.5217,-0.5821,-0.5835,-0.6452,-0.707,-0.7087,-0.7653,-0.8214,-0.8214,-0.878,-0.9068,-0.9068,-0.9068,-0.9068,-0.9068,-0.9068,-0.9057,-0.9036,-0.9036,-0.9026,-0.9004,-0.9004,-0.9004,-0.9004,-0.9004,-0.9015,-0.9036,-0.9036,-0.9047,-0.9068,-0.9068,-0.9068,-1.7672,-1.7169,-1.6769,-1.6397,-1.5818,-1.5509,-1.5611,-1.4069,-1.2533,-1.2574,-0.9437,-0.6553,-0.645,-0.4768,-0.3294,-0.3241,-0.3183,-0.3143,-0.3143,-0.3143,-0.3143,-0.3143,-0.3151,-0.3175,-0.3228,-0.3294,-0.3379,-0.3482,-0.3408,-0.3405,-0.3506,-0.3569,-0.3652,-0.3763,-0.3816,-0.3842,-0.3842,-0.385,-0.3853,-0.3853,-0.3909,-0.3938,-0.3948,-0.4001,-0.4028,-0.4033,-0.4017,0.0,-0.4007,-0.394,-0.3943,-0.398,-0.388,-0.3906,-0.3988,-0.389,-0.3887,-0.3935,-0.3935,-0.3946,-0.3956,-0.3948,-0.3983,-0.4028,-0.4041,-0.4046,-0.4057,-0.411,-0.4123,-0.4134,-0.4176,-0.419,-0.419,-0.419,-0.419,-0.419,-0.4198,-0.4205,-0.4491,-0.5082,-0.5689,-0.6307,-0.6383,-0.7241,-0.7555,-0.7917,-0.8497,-0.9068,-0.9068,-0.9068,-0.9068,-0.9068,-0.9068,-0.9068,-0.9068,-0.9068,-0.9026,-0.892,-0.8914,-0.8867,-0.8766,-0.8761,-0.8761,-0.8761,-0.8761,-0.8808,-0.8914,-0.8914,-0.8967,-0.9068,-0.9068,-0.9068,-1.8979,-1.8116,-1.7347,-1.7909,-1.6962,-1.6038,-1.5796,-1.5039,-1.4313,-1.4775,-1.228,-0.9684,-0.8671,-0.6563,-0.4677,-0.3438,-0.3183,-0.3143,-0.3143,-0.3143,-0.3143,-0.3143,-0.3172,-0.3204,-0.3228,-0.3281,-0.3334,-0.3387,-0.3342,-0.3334,-0.3387,-0.3448,-0.3516,-0.3601,-0.3662,-0.371,-0.3742,-0.3742,-0.3742,-0.3744,-0.3768,-0.3795,-0.3829,-0.3856,-0.3901,-0.3962,0.0,-0.3933,-0.3956,-0.4385,-0.4133,-0.3911,-0.434,-0.4355,-0.3911,-0.3861,-0.3856,-0.3877,-0.3877,-0.4119,-0.4358,-0.4358,-0.4136,-0.3922,-0.3954,-0.3962,-0.3975,-0.4033,-0.4049,-0.4057,-0.4084,-0.4089,-0.4097,-0.4131,-0.4139,-0.4147,-0.4182,-0.419,-0.4457,-0.4749,-0.5606,-0.6478,-0.7064,-0.7984,-0.8353,-0.8398,-0.8744,-0.9068,-0.9068,-0.9068,-0.9068,-0.9068,-0.9068,-0.9068,-0.9068,-0.9068,-0.9015,-0.8898,-0.8888,-0.8835,-0.8718,-0.8713,-0.8713,-0.8713,-0.8713,-0.874,-0.8793,-0.8793,-0.8819,-0.8867,-0.8867,-0.8867,-1.9985,-1.955,-1.9027,-1.9501,-1.8422,-1.6962,-1.6011,-1.5625,-1.5691,-1.5915,-1.4222,-1.2292,-1.0775,-0.8295,-0.5833,-0.4211,-0.3565,-0.3143,-0.3143,-0.3143,-0.3143,-0.3143,-0.3183,-0.3209,-0.3209,-0.3259,-0.3286,0.0,-0.327,-0.3275,-0.3291,-0.3347,-0.3413,-0.3487,-0.3546,-0.3607,-0.3665,-0.3665,-0.3665,-0.3665,-0.3665,-0.3919,-0.466,-0.4197,-0.4248,-0.4816,-0.4547,-0.4323,-0.4361,-0.4809,-0.4799,-0.432,-0.5036,-0.4799,-0.432,-0.432,-0.432,-0.4559,-0.5036,-0.5754,-0.599,-0.5275,-0.4799,-0.4328,-0.4376,-0.4144,-0.4159,-0.422,-0.424,-0.3993,-0.4007,-0.4263,-0.4274,-0.4322,-0.4333,-0.4606,-0.4671,-0.4686,-0.4692,-0.4968,-0.5803,-0.6905,-0.7705,-0.84,-0.8824,-0.8883,-0.8962,-0.902,-0.902,-0.9047,-0.9068,-0.9068,-0.9068,-0.9068,-0.9068,-0.9068,-0.9004,-0.8856,-0.8845,-0.8782,-0.8634,-0.8628,-0.8628,-0.8628,-0.8628,-0.8908,-0.9746,-0.9746,-0.9764,-0.9794,-0.9794,-0.9523,-2.0773,-2.2168,-2.2943,-2.0491,-1.9556,-1.8676,-1.6769,-1.5818,-1.5625,-1.5651,-1.4093,-1.2599,-1.2391,-0.9152,-0.6404,-0.6096,-0.4317,-0.3143,-0.3143,-0.3143,-0.3143,-0.3143,-0.3146,-0.3148,-0.3148,-0.3201,0.0,-0.3156,0.0,-0.3177,-0.3233,-0.3289,-0.3371,-0.3485,-0.3546,-0.3607,-0.3665,-0.3665,-0.3665,-0.3665,-0.3665,-0.4809,-0.6863,-0.5271,-0.5733,-0.7576,-0.6294,-0.5635,-0.5643,-0.5722,-0.5754,-0.5754,-0.5754,-0.5754,-0.5758,-0.5758,-0.5758,-0.5994,-0.837,-0.9318,-0.8847,-0.6468,-0.5754,-0.5758,-0.5762,-0.5282,-0.4816,-0.4889,-0.4421,-0.394,-0.3999,-0.4513,-0.5018,-0.5021,-0.5523,-0.6052,-0.5884,-0.5903,-0.6183,-0.7045,-0.7329,-0.7595,-0.8118,-0.8485,-0.8639,-0.8856,-0.8893,-0.8898,-0.8898,-0.8999,-0.9068,-0.9068,-0.9068,-0.9068,-0.9068,-0.9068,-0.8967,-0.8734,-0.8724,-0.8623,-0.8401,-0.839,-0.839,-0.839,-0.839,-0.9753,-1.2537,-1.2537,-1.2614,-1.2491,-1.2491,-1.1144,-2.4392,-2.4357,-2.3826,-2.3533,-2.1566,-1.9456,-1.7968,-1.6818,-1.6011,-1.5625,-1.4926,-1.4183,-1.2717,-1.1208,-0.9461,-0.6663,-0.5679,-0.4705,-0.3339,-0.3143,-0.3143,-0.3143,-0.3143,-0.3143,-0.3143,0.0,0.0,-0.3146,-0.3143,-0.3153,-0.3175,-0.4386,-0.5282,-0.5686,-0.6991,-0.7111,-0.6428,-0.5986,-0.5321,-0.3998,-0.5538,-0.7744,-1.0391,-0.973,-0.9788,-1.057,-0.869,-0.7647,-0.7729,-0.8561,-0.8615,-0.837,-1.0509,-1.0993,-1.0755,-1.0755,-1.0755,-1.0755,-1.0762,-1.0516,-0.9563,-0.6708,-0.5754,-0.5754,-0.5275,-0.5275,-0.5522,-0.5553,-0.5319,-0.5084,-0.5112,-0.5119,-0.4885,-0.4935,-0.5192,-0.5213,-0.5293,-0.5857,-0.6164,-0.6449,-0.7023,-0.7585,-0.7585,-0.8144,-0.8491,-0.865,-0.8729,-0.8803,-0.8883,-0.8994,-0.9068,-0.9068,-0.9068,-0.9068,-0.9068,-0.9068,-0.8967,-0.8729,-0.8713,-0.8612,-0.8385,-0.9928,-1.0971,-1.0971,-1.2784,-1.411,-1.5227,-1.5227,-1.4217,-1.2707,-1.2707,-1.113,-2.6784,-2.6142,-2.5092,-2.4951,-2.297,-2.0355,-1.835,-1.6951,-1.6054,-1.5671,-1.5559,-1.5044,-1.3676,-1.2307,-1.0558,-0.7627,-0.607,-0.4705,-0.3339,-0.3143,-0.3143,-0.3143,-0.3143,0.0,0.0,0.0,0.0,-0.4121,-0.4121,-0.4121,-0.4121,-0.5488,-0.6753,-0.7778,-0.9061,-0.9422,-0.8408,-0.8237,-0.7611,-0.6748,-0.8256,-0.9989,-1.215,-1.2366,-1.2875,-1.3471,-1.1449,-1.0733,-1.0904,-1.1545,-1.165,-1.1699,-1.3837,-1.4549,-1.4084,-1.4084,-1.527,-1.6454,-1.4559,-1.3847,-1.265,-0.8853,-0.7664,-0.7425,-0.6233,-0.5998,-0.6238,-0.6238,-0.5998,-0.5754,-0.5754,-0.5754,-0.553,-0.5587,-0.5598,-0.587,-0.5953,-0.6271,-0.6586,-0.6651,-0.7227,-0.7542,-0.7581,-0.8113,-0.8401,-0.848,-0.8586,-0.8687,-0.8766,-0.8909,-0.9004,-0.9004,-0.9041,-0.9068,-0.9068,-0.9031,-0.8925,-0.8724,-0.9488,-0.9639,-0.8379,-1.2004,-1.3296,-1.2525,-1.5371,-1.7182,-1.8216,-1.8216,-1.6623,-1.3719,-1.3719,-1.1921,-2.7428,-2.7548,-2.6852,-2.4887,-2.3352,-2.1594,-1.7831,-1.6488,-1.5996,-1.5968,-1.5808,-1.5625,-1.5625,-1.2297,-0.9382,-0.9374,-0.5875,-0.3143,-0.3143,-0.3143,-0.3143,-0.3143,-0.3143,-0.3143,0.0,-0.4901,-0.6266,-0.6266,-0.6266,-0.6266,-0.6266,-0.6461,-0.7501,-0.9635,-1.0022,-1.02,-1.0167,-1.0548,-1.0854,-1.1295,-1.1295,-1.1718,-1.215,-1.3003,-1.4521,-1.6505,-1.4787,-1.4361,-1.4594,-1.4816,-1.5048,-1.5496,-1.5507,-1.5507,-1.5507,-1.5507,-1.8607,-2.2656,-2.0009,-1.9053,-1.8109,-1.3143,-1.1485,-1.1008,-0.8393,-0.7201,-0.6717,-0.6717,-0.6477,-0.5994,-0.5994,-0.6238,-0.6717,-0.6717,-0.7196,-0.7707,-0.7818,-0.7839,-0.7913,-0.8141,-0.8189,-0.8231,-0.8348,-0.8369,-0.8369,-0.8374,-0.8469,-0.8544,-0.8549,-0.8745,-0.8883,-0.8888,-0.8994,-0.9063,-0.9063,-0.8957,-0.884,-0.8718,-1.1276,-1.1395,-0.8641,-1.3815,-1.563,-1.2784,-1.562,-1.8204,-2.0793,-2.078,-1.9345,-1.6559,-1.6559,-1.3517,-2.7588,-2.7727,-2.6896,-2.5668,-2.3417,-2.1309,-1.954,-1.8692,-1.7939,-1.6661,-1.638,-1.6204,-1.6204,-1.3665,-1.1142,-0.9576,-0.7042,-0.4901,-0.3339,-0.3143,-0.3143,-0.3143,-0.3143,-0.3143,-0.3143,-0.4901,-0.6266,-0.6266,-0.7627,-0.8602,-0.9,-1.0549,-1.1814,-1.3238,-1.4908,-1.5379,-1.4377,-1.4197,-1.366,-1.2572,-1.4306,-1.5166,-1.5381,-1.754,-1.9052,-1.9509,-1.7424,-1.6489,-1.6822,-1.7279,-1.7527,-1.7846,-1.994,-2.0744,-2.0744,-2.0744,-2.17,-2.2656,-2.0009,-1.9053,-1.8109,-1.2659,-1.1,-1.1008,-0.7914,-0.7196,-0.7441,-0.7441,-0.7201,-0.7196,-0.7196,-0.6956,-0.6717,-0.6717,-0.6956,-0.6966,-0.6995,-0.7543,-0.786,-0.7929,-0.8009,-0.8104,-0.8226,-0.8247,-0.8273,-0.8358,-0.8401,-0.8454,-0.8538,-0.8602,-0.8708,-0.8872,-0.8994,-0.9031,-0.8946,-0.8909,-0.8803,-0.8607,-1.1221,-1.2179,-1.1231,-1.6665,-1.9248,-1.8474,-2.1105,-2.2782,-2.354,-2.3313,-2.0632,-1.6052,-1.6052,-1.3316,-2.5623,-2.5083,-2.4254,-2.3798,-2.2188,-2.0319,-1.9045,-1.8533,-1.8105,-1.7006,-1.6661,-1.6576,-1.6383,-1.3665,-1.0947,-0.9576,-0.6852,-0.4509,-0.3339,-0.3143,-0.3143,-0.3143,-0.4901,-0.607,-0.6266,-0.8212,-0.9374,-0.9374,-1.054,-1.1326,-1.1326,-1.2685,-1.4123,-1.526,-1.6951,-1.7472,-1.6939,-1.6799,-1.6568,-1.6026,-1.7326,-1.8196,-1.8396,-2.0136,-2.0776,-2.0791,-1.9471,-1.8978,-1.9134,-1.9502,-1.98,-2.0285,-2.2112,-2.2765,-2.2875,-2.2717,-2.267,-2.2453,-2.1156,-2.0557,-1.9431,-1.5432,-1.3553,-1.2326,-0.9556,-0.8154,-0.768,-0.768,-0.768,-0.768,-0.768,-0.7441,-0.7196,-0.7196,-0.7196,-0.7196,-0.7196,-0.7487,-0.7786,-0.7834,-0.7897,-0.7982,-0.8104,-0.8162,-0.822,-0.8289,-0.83,-0.8342,-0.8459,-0.8475,-0.8544,-0.8729,-0.8808,-0.884,-0.8819,-0.8777,-0.8692,-0.8559,-1.1137,-1.2628,-1.2525,-1.7598,-2.0622,-2.0622,-2.3123,-2.4217,-2.4217,-2.4012,-2.1112,-1.582,-1.582,-1.3079,-2.2624,-2.1551,-2.0624,-2.0915,-2.0353,-1.9163,0.0,-1.7256,-1.7626,-1.7061,-1.708,-1.6919,-1.6576,-1.3083,-0.9966,-0.9576,-0.5875,-0.3143,-0.3143,-0.3339,-0.3533,-0.3729,-0.7438,-1.016,-1.0743,-1.2685,-1.3847,-1.404,-1.4233,-1.4233,-1.3858,-1.4233,-1.5019,-1.6576,-1.7473,-1.8006,-1.8328,-1.8429,-1.9169,-2.0151,-2.0151,-2.0364,-2.0776,-2.0776,-2.0776,-2.0776,-2.0776,-2.0965,-2.1265,-2.1312,-2.1691,-2.2244,-2.2275,-2.2496,-2.2733,-2.2418,-2.2291,-2.2339,-2.2654,-2.237,-2.1524,-1.9541,-1.7208,-1.4763,-1.2615,-1.006,-0.7914,-0.7914,-0.792,-0.768,-0.768,-0.768,-0.768,-0.768,-0.768,-0.768,-0.768,-0.768,-0.7707,-0.7807,-0.7823,-0.786,-0.7982,-0.8088,-0.8157,-0.8157,-0.8178,-0.8236,-0.8337,-0.8363,-0.8416,-0.8538,-0.8549,-0.8602,-0.8724,-0.8634,-0.8565,-0.8549,-1.1316,-1.3028,-1.3011,-1.7973,-2.0623,-2.0808,-2.2823,-2.3902,-2.3854,-2.3823,-2.0944,-1.5587,-1.5587,-1.2834,0.0,0.0,0.0,0.0,0.0,0.0,0.0,-1.8676,-1.8641,-1.8202,-1.7626,-1.7432,-1.751,-1.3471,-1.0169,-0.9966,-0.6076,-0.3143,-0.3143,-0.4509,-0.6266,-0.8017,-0.8992,-0.9771,-1.016,-1.2103,-1.346,-1.404,-1.5598,-1.6576,-1.6976,-1.6976,-1.7554,-1.8131,-1.8648,-1.9187,-1.9547,-1.9684,-2.0234,-2.0578,-2.0578,-2.0776,-2.0776,-2.0776,-2.0776,-2.0776,-2.0776,-2.0823,-2.0918,-2.1202,-2.1407,-2.1549,-2.1818,-2.196,-2.2007,-2.1944,-2.1912,-2.1928,-2.2007,-2.2118,-2.1803,-1.9377,-1.8363,-1.7799,-1.526,-1.2667,-1.0769,-1.0769,-0.9105,-0.768,-0.768,-0.768,-0.768,-0.768,-0.768,-0.768,-0.768,-0.768,-0.7686,-0.7707,-0.7712,-0.7744,-0.7855,-0.7897,-0.7913,-0.7913,-0.8072,-0.8205,-0.8226,-0.8316,-0.8416,-0.8538,-0.8549,-0.8634,-0.884,-0.875,-0.8644,-0.8554,-1.3144,-1.6066,-1.6125,-2.1132,-2.4076,-2.4012,-2.3949,-2.3775,-2.3491,-2.3223,-2.0412,-1.5344,-1.5344,-1.2702,0.0,0.0,0.0,0.0,0.0,0.0,0.0,0.0,0.0,0.0,0.0,-1.786,-1.7666,0.0,-1.1778,-1.0725,-0.7627,-0.5293,-0.5101,-0.588,-0.7634,-1.016,-1.2297,-1.346,-1.2879,-1.4632,-1.5998,-1.637,-1.7347,-1.7939,-1.7954,-1.8146,-1.8339,-1.8339,-1.8687,-1.9134,-1.9481,-1.9844,-2.0192,-2.0539,-2.0697,-2.0776,-2.0776,-2.0776,-2.0776,-2.0776,-2.0776,-2.0776,-2.0791,-2.0981,-2.1155,-2.1312,-2.1123,-2.1155,-2.1312,-2.1502,-2.1565,-2.1597,-2.1754,-2.1707,-2.1406,-2.0379,-1.9428,-1.8426,-1.7172,-1.5186,-1.3143,-1.1715,-1.0531,-0.9105,-0.7914,-0.768,-0.768,-0.768,-0.768,-0.768,-0.768,-0.768,-0.768,-0.768,-0.768,-0.7696,-0.7749,-0.776,-0.7781,-0.7834,-0.7993,-0.813,-0.8189,-0.83,-0.8395,-0.8454,-0.893,-0.9233,-0.8618,-0.911,-0.958,-0.952,-1.3607,-1.7062,-1.9098,-2.1616,-2.3162,-2.415,-2.3732,-2.3317,-2.3144,-2.176,-1.9066,-1.527,-1.4084,-1.1437,0.0,0.0,0.0,0.0,0.0,0.0,0.0,0.0,0.0,0.0,0.0,0.0,0.0,0.0,0.0,-1.1433,-0.9552,-0.8017,-0.7243,-0.8024,-0.9584,-1.2297,-1.5611,-1.7361,-1.6177,-1.7539,-1.8516,-1.8708,-1.8708,-1.8516,-1.8146,-1.8531,-1.8516,-1.7954,-1.8531,-1.8881,-1.9213,-1.9497,-1.9828,-2.0192,0.0,0.0,-2.0586,-2.0728,-2.0713,-2.0586,-2.0649,-2.0649,-2.0586,-2.0586,-2.076,-2.0965,-2.0397,-2.0302,-2.0539,-2.0965,-2.1123,-2.117,-2.1502,-2.1297,-2.0981,-2.1533,-2.0413,-1.8925,-1.8943,-1.7551,0.0,-1.2789,-1.1642,-1.0717,-0.812,-0.7664,-0.768,-0.768,-0.768,-0.768,-0.768,-0.768,-0.768,-0.768,-0.768,-0.768,-0.768,-0.768,-0.7707,-0.7797,-0.7913,-0.8019,-0.8115,-0.8252,-0.8332,-0.8305,-0.9264,-0.9258,-0.8332,-0.9637,-1.0416,-1.0416,-1.3495,-1.7198,-2.1116,-2.1646,-2.2359,-2.3429,-2.3222,-2.3126,-2.2891,-2.0258,-1.7873,-1.527,-1.2789,-1.0342,0.0,0.0,0.0,0.0,0.0,0.0,0.0,0.0,0.0,0.0,0.0,0.0,0.0,0.0,0.0,0.0,-1.0818,-0.9957,-0.8017,-1.1326,-1.4632,-1.637,-1.6962,-1.7347,-1.7554,-1.7761,-1.8146,-1.8708,-1.8708,-1.8708,-1.8516,0.0,0.0,0.0,0.0,-1.8881,-1.9213,-1.926,-1.945,-1.9813,-2.0176,-2.0176,-1.9892,-2.0507,-2.0444,-1.9892,-2.0207,-2.016,-1.9876,-1.9876,-1.9892,-1.9923,-1.9844,-1.9639,-1.9481,-2.016,-2.0397,-2.0444,-2.0776,0.0,0.0,-2.1344,-2.1344,-2.137,-2.14,-1.963,-1.7382,-1.4895,-1.2743,-1.0546,-0.8225,-0.7601,-0.768,-0.768,-0.768,-0.768,-0.768,-0.768,-0.768,-0.768,-0.768,-0.768,-0.768,-0.768,-0.7686,-0.7696,-0.7791,-0.7866,-0.7881,-0.8077,-0.8178,-0.8072,0.0,0.0,-0.8215,-0.9496,-1.0264,-1.0264,-1.3051,-1.6788,-2.111,-2.3509,-2.455,-2.4093,-2.3682,-2.3361,-2.2891,-2.0258,-1.7873,-1.526,-1.3499,-1.1308,0.0,0.0,0.0,0.0,0.0,0.0,0.0,0.0,0.0,0.0,0.0,0.0,0.0,0.0,0.0,0.0,-1.3468,-1.3064,-1.2099,-1.4917,-1.7347,-1.7939,-1.7939,-1.8131,-1.8339,-1.8339,-1.8339,-1.8708,-1.8708,-1.8708,-1.8708,-1.8708,-1.8708,-1.8708,-1.8708,-1.8787,-1.8929,-1.9118,-1.9292,-1.945,-1.9592,-1.9592,-1.9465,-1.9955,-1.9907,0.0,-2.0034,-2.0081,-1.975,-1.975,-1.9623,0.0,0.0,0.0,0.0,0.0,-1.9797,-2.0002,-2.0128,-2.0413,-2.0713,-2.0713,-2.1091,-2.1533,-2.1533,-2.0992,-1.932,-1.5714,-1.3747,-1.2212,-0.8547,-0.7437,-0.7474,-0.7474,-0.7474,-0.7495,-0.7564,-0.7574,-0.7595,-0.7664,-0.768,0.0,-0.768,-0.768,-0.768,-0.768,-0.777,-0.7818,-0.7754,-0.795,-0.8046,-0.7929,-0.9202,-1.0013,-0.9349,-1.1113,0.0,0.0,0.0,-1.8615,-2.1478,-2.4027,0.0,0.0,0.0,0.0,0.0,0.0,0.0,0.0,-1.1968,-1.0202,0.0,0.0,0.0,0.0,0.0,0.0,0.0,0.0,0.0,0.0,0.0,0.0,0.0,0.0,0.0,0.0,0.0,-1.6065,-1.6065,-1.7522,-1.8597,-1.8708,-1.8708,-1.8708,-1.8708,-1.8708,-1.8708,-1.8708,-1.8708,-1.8708,-1.8708,-1.8708,-1.8708,-1.8708,-1.8708,-1.8708,-1.8708,-1.8865,-1.8929,-1.8929,-1.9039,-1.8976,-1.8818,-1.9355,-1.9307,-1.8834,-1.9434,-1.956,-1.9323,-1.9323,-1.9229,-1.9039,-1.8708,-1.8723,-1.8944,-1.9039,-1.9307,-1.9639,-1.9828,-2.0065,-2.0302,-2.0397,-2.076,-2.117,-2.117,-2.1344,-2.0412,-1.5732,-1.4393,-1.3275,-0.8576,-0.723,-0.7241,-0.7272,-0.7278,-0.7309,-0.7431,-0.7452,-0.749,-0.7606,-0.7633,-0.7633,-0.7633,-0.7659,-0.768,-0.768,-0.7749,0.0,-0.7643,-0.7802,-0.7871,-0.7717,-0.9447,-1.0255,-0.9344,-1.1557,-1.2965,-1.2816,-1.7209,-2.0074,-2.1052,-2.3997,-2.5242,-2.487,-2.4208,-2.3657,0.0,0.0,0.0,0.0,0.0,0.0,0.0,0.0,0.0,0.0,0.0,0.0,0.0,0.0,0.0,0.0,0.0,0.0,0.0,0.0,0.0,0.0,0.0,0.0,-1.85,-1.8408,-1.8329,-1.8676,-1.8708,-1.8708,-1.8708,-1.8708,-1.8708,-1.8708,-1.8708,-1.8708,-1.8708,-1.8708,-1.8708,-1.8708,-1.8708,-1.8708,-1.8708,-1.8376,-1.8218,-1.8218,-1.8566,-1.8376,-1.776,-1.8771,-1.8676,-1.7745,-1.8108,-1.8234,-1.8234,-1.8234,-1.8423,-1.8692,-1.8344,-1.8202,-1.825,-1.8597,-1.8944,-1.9323,-2.0018,-2.0271,-2.0334,-2.0665,-2.0776,-2.0807,-2.0807,-2.0807,-1.9952,-1.5189,-1.3896,-1.2817,-0.8281,-0.6986,-0.7013,-0.7129,-0.7156,-0.7188,-0.7304,-0.7331,-0.7368,-0.7484,-0.7511,-0.7511,-0.7511,-0.7606,-0.768,-0.768,-0.768,0.0,-0.7521,-0.7617,-0.7601,-0.7368,-0.7548,-0.7638,-0.7761,-0.9859,-1.1255,-1.1255,-1.6822,-2.0081,-2.0066,-2.3095,-2.5056,-2.5423,-2.5131,-2.426,-2.2858,0.0,0.0,0.0,0.0,0.0,0.0,0.0,0.0,0.0,0.0,0.0,0.0,0.0,0.0,0.0,0.0,0.0,0.0,0.0,0.0,0.0,0.0,0.0,0.0,0.0,-1.866,-1.9008,-1.885,-1.8708,-1.8708,-1.8708,-1.8708,-1.8708,-1.8708,-1.8708,-1.8708,-1.8708,-1.8708,-1.8708,-1.8708,-1.8708,-1.8708,-1.836,-1.8187,-1.8187,-1.7839,-1.7555,-1.735,-1.7934,-1.7887,-1.7366,-1.7934,-1.806,-1.7855,-1.7855,-1.806,-1.8329,-1.7981,-1.7855,-1.7871,-1.7997,-1.825,-1.8566,-1.8802,-1.9055,-1.9339,-1.9907,-2.0255,-2.0492,-2.0713,-1.9708,-1.7727,-1.4758,-1.2593,-1.0655,-0.7608,-0.6801,-0.6865,-0.6907,-0.6976,-0.7066,-0.7182,-0.7209,-0.7246,-0.7362,-0.732,-0.7267,-0.7267,-0.7431,-0.7537,-0.7458,-0.758,-0.7638,-0.7516,-0.7537,-0.75,-0.7341,-0.8092,-0.9086,-1.0065,-1.1359,-1.267,-1.3358,-1.6309,-1.8693,-1.9994,-2.2131,-2.3452,-2.4323,-2.5171,-2.4239,-2.1463,0.0,0.0,0.0,0.0,0.0,0.0,0.0,0.0,0.0,0.0,0.0,0.0,0.0,0.0,0.0,0.0,0.0,0.0,0.0,0.0,0.0,0.0,0.0,0.0,0.0,0.0,-1.8992,-1.885,0.0,-1.8708,-1.8708,-1.8708,-1.8708,-1.8708,-1.8708,-1.8708,-1.8708,-1.866,-1.8534,-1.8534,-1.8471,-1.8344,-1.7997,-1.7808,-1.7808,-1.7366,-1.7082,-1.6987,-1.7334,-1.7303,-1.6987,-1.7445,-1.765,-1.7666,-1.7413,-1.7508,-1.7808,-1.7713,-1.776,-1.7871,-1.7871,-1.7997,-1.8187,-1.8187,-1.8329,-1.8644,-1.9339,-1.9718,-1.9971,-2.0318,-1.9274,-1.7476,-1.4473,-1.2528,-1.0581,-0.7405,-0.6621,-0.6684,-0.6727,-0.6827,-0.6944,-0.706,-0.7087,-0.7108,-0.7188,-0.7172,-0.7135,-0.7092,-0.7246,-0.7368,-0.7331,-0.7458,-0.7542,-0.7505,-0.7505,-0.7442,-0.7283,-0.8209,-0.9166,-1.0353,-1.1399,-1.2489,-1.3697,-1.5732,-1.7475,-1.9082,-2.0472,-2.1946,-2.2961,-2.3535,-2.2807,0.0,0.0,0.0,0.0,0.0,0.0,0.0,0.0,0.0,0.0,0.0,0.0,0.0,0.0,0.0,0.0,0.0,0.0,0.0,0.0,0.0,0.0,0.0,0.0,0.0,0.0,0.0,-1.8692,-1.8708,0.0,0.0,0.0,0.0,-1.8708,-1.8708,-1.8708,-1.8692,-1.8708,-1.855,-1.8171,-1.8171,-1.8029,-1.7681,-1.7334,-1.7145,-1.7145,-1.7129,-1.6955,-1.6671,-1.6971,-1.6955,-1.6655,-1.6655,-1.7018,-1.7587,-1.6924,-1.6845,-1.7176,-1.7508,-1.7824,-1.8108,-1.8123,-1.8139,-1.8155,-1.8187,-1.8187,-1.8313,-1.896,-1.9181,-1.9047,-1.9576,-1.925,0.0,0.0,-1.2796,-1.1633,-0.7445,-0.6457,-0.6494,-0.6605,-0.6722,-0.6838,-0.6949,-0.6976,-0.697,0.0,-0.705,-0.7092,-0.6976,0.0,-0.7182,-0.7294,-0.7325,-0.7378,-0.749,-0.7505,-0.7415,-0.7193,-0.7262,-0.7964,-0.8961,-1.0047,-1.1226,-1.2552,-1.5264,-1.7006,-1.7269,-1.883,-2.0472,-2.1903,-2.0258,0.0,0.0,0.0,0.0,0.0,0.0,0.0,0.0,0.0,0.0,0.0,0.0,0.0,0.0,0.0,0.0,0.0,0.0,0.0,0.0,0.0,0.0,0.0,0.0,0.0,0.0,-1.8408,-1.8408,-1.9008,-1.8629,-1.8423,0.0,0.0,0.0,0.0,0.0,0.0,-1.8329,-1.8566,-1.8439,-1.7824,-1.806,-1.8029,-1.7681,-1.7334,-1.7145,-1.7145,-1.6892,-1.6734,-1.6655,-1.6734,-1.6734,-1.6655,-1.6655,-1.675,-1.6908,-1.6734,-1.6845,-1.7129,-1.6971,-1.6971,-1.7082,-1.7318,-1.7587,-1.7839,-1.8092,-1.7402,-1.6436,-1.8091,0.0,-1.6453,-1.6506,0.0,0.0,0.0,0.0,-0.7698,-0.6522,-0.6457,-0.6594,-0.6626,-0.6785,-0.6939,-0.6965,-0.6976,-0.6923,0.0,-0.6812,-0.6849,-0.6737,0.0,0.0,0.0,0.0,-0.7468,-0.75,-0.7505,-0.7479,-0.7421,-0.8281,-0.9408,-1.0635,-1.1534,-1.2576,-1.3914,-1.4445,-1.6064,-1.8763,-1.8766,-1.9237,-2.0028,0.0,0.0,0.0,0.0,0.0,0.0,0.0,0.0,0.0,0.0,0.0,0.0,0.0,0.0,0.0,0.0,0.0,0.0,0.0,0.0,0.0,0.0,0.0,0.0,0.0,0.0,0.0,-1.8218,-1.8329,-1.8708,-1.855,-1.8487,0.0,0.0,0.0,0.0,0.0,0.0,0.0,0.0,0.0,-1.7697,-1.7871,-1.7729,-1.7239,-1.7034,-1.6924,-1.6924,-1.675,-1.6655,-1.6655,-1.6655,-1.6655,-1.6655,-1.6655,-1.6655,-1.6655,-1.6655,-1.6939,-1.7366,0.0,0.0,0.0,0.0,-1.6968,-1.6591,-1.6606,-1.5173,0.0,-1.5137,0.0,0.0,0.0,0.0,0.0,0.0,0.0,0.0,0.0,0.0,-0.6557,-0.6557,-0.6695,-0.6827,-0.6827,-0.6827,-0.6785,0.0,-0.6684,-0.6706,-0.6642,0.0,0.0,0.0,0.0,-0.7368,-0.7421,-0.7516,-0.7558,-0.7511,-0.8602,-0.9713,-1.0889,-1.1993,-1.3023,-1.4604,-1.493,-1.6088,-1.8213,-1.7781,-1.7836,0.0,0.0,0.0,0.0,0.0,0.0,0.0,0.0,0.0,0.0,0.0,0.0,0.0,0.0,0.0,0.0,0.0,0.0,0.0,0.0,0.0,0.0,0.0,0.0,0.0,0.0,0.0,0.0,0.0,-1.806,-1.8108,0.0,0.0,0.0,0.0,0.0,0.0,0.0,0.0,0.0,0.0,0.0,0.0,0.0,-1.7413,-1.6861,-1.6766,-1.6718,-1.6718,-1.6671,-1.6671,-1.6718,-1.6718,-1.6718,-1.6718,-1.6718,0.0,-1.5956,-1.6298,0.0,0.0,0.0,0.0,0.0,0.0,0.0,0.0,0.0,0.0,0.0,0.0,0.0,0.0,0.0,0.0,0.0,0.0,0.0,0.0,0.0,0.0,-0.6457,-0.6457,-0.6547,-0.6621,0.0,-0.6578,-0.6589,-0.6589,-0.66,0.0,0.0,0.0,0.0,0.0,0.0,0.0,-0.7294,-0.7521,-0.7638,-0.7772,-0.8929,-1.0036,-1.1024,-1.2191,-1.3265,-1.4552,-1.5651,-1.6562,-1.6525,-1.672,0.0,0.0,0.0,0.0,0.0,0.0,0.0,0.0,0.0,0.0,0.0,0.0,0.0,0.0,0.0,0.0,0.0,0.0,0.0,0.0,0.0,0.0,0.0,0.0,0.0,0.0,0.0,0.0,0.0,0.0,0.0,0.0,0.0,0.0,0.0,0.0,0.0,0.0,0.0,0.0,0.0,0.0,0.0,0.0,0.0,0.0,0.0,0.0,0.0,0.0,-1.6782,-1.6797,-1.7066,-1.7066,-1.7066,-1.7066,-1.7066,-1.514,-1.2152,-1.3712,0.0,0.0,0.0,0.0,0.0,0.0,0.0,0.0,0.0,0.0,0.0,0.0,0.0,0.0,0.0,0.0,0.0,0.0,0.0,0.0,0.0,0.0,0.0,0.0,-0.6547,-0.6552,0.0,0.0,0.0,0.0,0.0,0.0,0.0,0.0,0.0,0.0,0.0,0.0,-0.7193,-0.7474,-0.7909,-0.9067,-1.025,-1.161,-1.2602,-1.3548,-1.4263,-1.433,-1.4144,-1.4655,0.0,0.0,0.0,0.0,0.0,0.0,0.0,0.0,0.0,0.0,0.0,0.0,0.0,0.0,0.0,0.0,0.0,0.0,0.0,0.0,0.0,0.0,0.0,0.0,0.0,0.0,0.0,0.0,0.0,0.0,0.0,0.0,0.0,0.0,0.0,0.0,0.0,0.0,0.0,0.0,0.0,0.0,0.0,0.0,0.0,0.0,0.0,0.0,0.0,0.0,0.0,0.0,0.0,0.0,0.0,0.0,0.0,0.0,0.0,-1.3186,0.0,0.0,0.0,0.0,0.0,0.0,0.0,0.0,0.0,0.0,0.0,0.0,0.0,0.0,0.0,0.0,0.0,0.0,0.0,0.0,0.0,0.0,0.0,0.0,0.0,0.0,0.0,0.0,0.0,0.0,0.0,0.0,0.0,0.0,0.0,0.0,0.0,0.0,0.0,0.0,-0.7941,-0.8287,-0.8792,-0.9569,-1.1246,-1.2597,-1.2889,-1.4065,-1.4456,-1.4097,-1.4602,0.0,0.0,0.0,0.0,0.0,0.0,0.0,0.0,0.0,0.0,0.0,0.0,0.0,0.0,0.0,0.0,0.0,0.0,0.0,0.0,0.0,0.0,0.0,0.0,0.0,0.0,0.0,0.0,0.0,0.0,0.0,0.0,0.0,0.0,0.0,0.0,0.0,0.0,0.0,0.0,0.0,0.0,0.0,0.0,0.0,0.0,0.0,0.0,0.0,0.0,0.0,0.0,0.0,0.0,0.0,0.0,0.0,0.0,0.0,-1.1304,0.0,0.0,0.0,0.0,0.0,0.0,0.0,0.0,0.0,0.0,0.0,0.0,0.0,0.0,0.0,0.0,0.0,0.0,0.0,0.0,0.0,0.0,0.0,0.0,0.0,0.0,0.0,0.0,0.0,0.0,0.0,0.0,0.0,0.0,0.0,0.0,0.0,0.0,0.0,0.0,0.0,-0.8886,-0.908,-0.9645,-1.0228,-1.2141,-1.3251,-1.3289,-1.3984,-1.434,-1.3865,-1.4831,0.0,0.0,0.0,0.0,0.0,0.0,0.0,0.0,0.0,0.0,0.0,0.0,0.0,0.0,0.0,0.0,0.0,0.0,0.0,0.0,0.0,0.0,0.0,0.0,0.0,0.0,0.0,0.0,0.0,0.0,0.0,0.0,0.0,0.0,0.0,0.0,0.0,0.0,0.0,0.0,0.0,0.0,0.0,0.0,0.0,0.0,0.0,0.0,0.0,0.0,0.0,0.0,0.0,0.0,0.0,0.0,0.0,0.0,0.0,0.0,0.0,0.0,0.0,0.0,0.0,0.0,0.0,0.0,0.0,0.0,0.0,0.0,0.0,0.0,0.0,0.0,0.0,0.0,0.0,0.0,0.0,0.0,0.0,0.0,0.0,0.0,0.0,0.0,0.0,0.0,0.0,0.0,0.0,0.0,0.0,0.0,0.0,0.0,0.0,0.0,0.0,-0.9829,-0.9688,-1.0305,-1.2422,-1.2898,-1.3511,-1.444,-1.4211,-1.4097,-1.3643,0.0,0.0,0.0,0.0,0.0,0.0,0.0,0.0,0.0,0.0,0.0,0.0,0.0,0.0,0.0,0.0,0.0,0.0,0.0,0.0,0.0,0.0,0.0,0.0,0.0,0.0,0.0,0.0,0.0,0.0,0.0,0.0,0.0,0.0,0.0,0.0,0.0,0.0,0.0,0.0,0.0,0.0,0.0,0.0,0.0,0.0,0.0,0.0,0.0,0.0,0.0,0.0,0.0,0.0,0.0,0.0,0.0,0.0,0.0,0.0,0.0,0.0,0.0,0.0,0.0,0.0,0.0,0.0,0.0,0.0,0.0,0.0,0.0,0.0,0.0,0.0,0.0,0.0,0.0,0.0,0.0,0.0,0.0,0.0,0.0,0.0,0.0,0.0,0.0,0.0,0.0,0.0,0.0,0.0,0.0,0.0,0.0,0.0,0.0,0.0,0.0,0.0,-1.1054,-1.1052,-1.1601,-1.2498,-1.3412,-1.3722,-1.4023,-1.3907,-1.3653,-1.3178,0.0,0.0,0.0,0.0,0.0,0.0,0.0,0.0,0.0,0.0,0.0,0.0,0.0,0.0,0.0,0.0,0.0,0.0,0.0,0.0,0.0,0.0,0.0,0.0,0.0,0.0,0.0,0.0,0.0,0.0,0.0,0.0,0.0,0.0,0.0,0.0,0.0,0.0,0.0,0.0,0.0,0.0,0.0,0.0,0.0,0.0,0.0,0.0,0.0,0.0,0.0,0.0,0.0,0.0,0.0,0.0,0.0,0.0,0.0,0.0,0.0,0.0,0.0,0.0,0.0,0.0,0.0,0.0,0.0,0.0,0.0,0.0,0.0,0.0,0.0,0.0,0.0,0.0,0.0,0.0,0.0,0.0,0.0,0.0,0.0,0.0,0.0,0.0,0.0,0.0,0.0,0.0,0.0,0.0,0.0,0.0,0.0,0.0,0.0,0.0,0.0,0.0,-1.1914,-1.2319,-1.2592,-1.2754,-1.368,-1.4002,-1.3611,-1.3516,-1.3294,-1.2892,0.0,0.0,0.0,0.0,0.0,0.0,0.0,0.0,0.0,0.0,0.0,0.0,0.0,0.0,0.0,0.0,0.0,0.0,0.0,0.0,0.0,0.0,0.0,0.0,0.0,0.0,0.0,0.0,0.0,0.0,0.0,0.0,0.0,0.0,0.0,0.0,0.0,0.0,0.0,0.0,0.0,0.0,0.0,0.0,0.0,0.0,0.0,0.0,0.0,0.0,0.0,0.0,0.0,0.0,0.0,0.0,0.0,0.0,0.0,0.0,0.0,0.0,0.0,0.0,0.0,0.0,0.0,0.0,0.0,0.0,0.0,0.0,0.0,0.0,0.0,0.0,0.0,0.0,0.0,0.0,0.0,0.0,0.0,0.0,0.0,0.0,0.0,0.0,0.0,0.0,0.0,0.0,0.0,0.0,0.0,0.0,0.0,0.0,0.0,0.0,0.0,0.0,-1.2703,-1.2427,-1.2534,-1.34,-1.378,-1.3822,-1.36,-1.3357,-1.3125,0.0,0.0,0.0,0.0,0.0,0.0,0.0,0.0,0.0,0.0,0.0,0.0,0.0,0.0,0.0,0.0,0.0,0.0,0.0,0.0,0.0,0.0,0.0,0.0,0.0,0.0,0.0,0.0,0.0,0.0,0.0,0.0,0.0,0.0,0.0,0.0,0.0,0.0,0.0,0.0,0.0,0.0,0.0,0.0,0.0,0.0,0.0,0.0,0.0,0.0,0.0,0.0,0.0,0.0,0.0,0.0,0.0,0.0,0.0,0.0,0.0,0.0,0.0,0.0,0.0,0.0,0.0,0.0,0.0,0.0,0.0,0.0,0.0,0.0,0.0,0.0,0.0,0.0,0.0,0.0,0.0,0.0,0.0,0.0,0.0,0.0,0.0,0.0,0.0,0.0,0.0,0.0,0.0,0.0,0.0,0.0,0.0,0.0,0.0,0.0,0.0,0.0,0.0,-1.2871,-1.2789,-1.2932,0.0,-1.3157,-1.3104,-1.2871,-1.2776,-1.2776,-1.2861,0.0,0.0,0.0,0.0,0.0,0.0,0.0,0.0,0.0,0.0,0.0,0.0,0.0,0.0,0.0,0.0,0.0,0.0,0.0,0.0,0.0,0.0,0.0,0.0,0.0,0.0,0.0,0.0,0.0,0.0,0.0,0.0,0.0,0.0,0.0,0.0,0.0,0.0,0.0,0.0,0.0,0.0,0.0,0.0,0.0,0.0,0.0,0.0,0.0,0.0,0.0,0.0,0.0,0.0,0.0,0.0,0.0,0.0,0.0,0.0,0.0,0.0,0.0,0.0,0.0,0.0,0.0,0.0,0.0,0.0,0.0,0.0,0.0,0.0,0.0,0.0,0.0,0.0,0.0,0.0,0.0,0.0,0.0,0.0,0.0,0.0,0.0,0.0,0.0,0.0,0.0,0.0,0.0,0.0,0.0,0.0,0.0,0.0,0.0,0.0,0.0,0.0,0.0,-1.2945,-1.2998,0.0,-1.2808,-1.2766,-1.2533,-1.2512,-1.2533,-1.2607,0.0,0.0,0.0,0.0,0.0,0.0,0.0,0.0,0.0,0.0,0.0,0.0,0.0,0.0,0.0,0.0,0.0,0.0,0.0,0.0,0.0,0.0,0.0,0.0,0.0,0.0,0.0,0.0,0.0,0.0,0.0,0.0,0.0,0.0,0.0,0.0,0.0,0.0,0.0,0.0,0.0,0.0,0.0,0.0,0.0,0.0,0.0,0.0,0.0,0.0,0.0,0.0,0.0,0.0,0.0,0.0,0.0,0.0,0.0,0.0,0.0,0.0,0.0,0.0,0.0,0.0,0.0,0.0,0.0,0.0,0.0,0.0,0.0,0.0,0.0,0.0,0.0,0.0,0.0,0.0,0.0,0.0,0.0,0.0,0.0,0.0,0.0,0.0,0.0,0.0,0.0,0.0,0.0,0.0,0.0,0.0,0.0,0.0,0.0,0.0,0.0,0.0,0.0,-1.2702,-1.2755,-1.2533,-1.2713,-1.2755,-1.2533,-1.2512,-1.2427,-1.2248,-1.1984,0.0,0.0,0.0,0.0,0.0,0.0,0.0,0.0,0.0,0.0,0.0,0.0,0.0,0.0,0.0,0.0,0.0,0.0,0.0,0.0,0.0,0.0,0.0,0.0,0.0,0.0,0.0,0.0,0.0,0.0,0.0,0.0,0.0,0.0,0.0,0.0,0.0,0.0,0.0,0.0,0.0,0.0,0.0,0.0,0.0,0.0,0.0,0.0,0.0,0.0,0.0,0.0,0.0,0.0,0.0,0.0,0.0,0.0,0.0,0.0,0.0,0.0,0.0,0.0,0.0,0.0,0.0,0.0,0.0,0.0,0.0,0.0,0.0,0.0,0.0,0.0,0.0,0.0,0.0,0.0,0.0,0.0,0.0,0.0,0.0,0.0,0.0,0.0,0.0,0.0,0.0,0.0,0.0,0.0,0.0,0.0,0.0,0.0,0.0,0.0,0.0,0.0,-1.2565,-1.2575,-1.2512,-1.2565,-1.2575,-1.2512,-1.2512,-1.2565,-1.2702,-1.2153,0.0,0.0,0.0,0.0,0.0,0.0,0.0,0.0,0.0,0.0,0.0,0.0,0.0,0.0,0.0,0.0,0.0,0.0,0.0,0.0,0.0,0.0,0.0,0.0,0.0,0.0,0.0,0.0,0.0,0.0,0.0,0.0,0.0,0.0,0.0,0.0,0.0,0.0,0.0,0.0,0.0,0.0,0.0,0.0,0.0,0.0,0.0,0.0,0.0,0.0,0.0,0.0,0.0,0.0,0.0,0.0,0.0,0.0,0.0,0.0,0.0,0.0,0.0,0.0,0.0,0.0,0.0,0.0,0.0,0.0,0.0,0.0,0.0,0.0,0.0,0.0,0.0,0.0,0.0,0.0,0.0,0.0,0.0,0.0,0.0,0.0,0.0,0.0,0.0,0.0,0.0,0.0,0.0,0.0,0.0,0.0,0.0,0.0,0.0,0.0,0.0,0.0,-1.2427,-1.2396,-1.2501,-1.2512,-1.2512,-1.2512,-1.2512,-1.2523,-1.2554,-1.2206,0.0,0.0,0.0,0.0,0.0,0.0,0.0,0.0,0.0,0.0,0.0,0.0,0.0,0.0,0.0,0.0,0.0,0.0,0.0,0.0,0.0,0.0,0.0,0.0,0.0,0.0,0.0,0.0,0.0,0.0,0.0,0.0,0.0,0.0,0.0,0.0,0.0,0.0,0.0,0.0,0.0,0.0,0.0,0.0,0.0,0.0,0.0,0.0,0.0,0.0,0.0,0.0,0.0,0.0,0.0,0.0,0.0,0.0,0.0,0.0,0.0,0.0,0.0,0.0,0.0,0.0,0.0,0.0,0.0,0.0,0.0,0.0,0.0,0.0,0.0,0.0,0.0,0.0,0.0,0.0,0.0,0.0,0.0,0.0,0.0,0.0,0.0,0.0,0.0,0.0,0.0,0.0,0.0,0.0,0.0,0.0,0.0,0.0,0.0,0.0,0.0,0.0,0.0,-1.2322,-1.2544,-1.2533,-1.2512,-1.2512,-1.2512,-1.2427,-1.2248,0.0,0.0,0.0,0.0,0.0,0.0,0.0,0.0,0.0,0.0,0.0,0.0,0.0,0.0,0.0,0.0,0.0,0.0,0.0,0.0,0.0,0.0,0.0,0.0,0.0,0.0,0.0,0.0,0.0,0.0,0.0,0.0,0.0,0.0,0.0,0.0,0.0,0.0,0.0,0.0,0.0,0.0,0.0,0.0,0.0,0.0,0.0,0.0,0.0,0.0,0.0,0.0,0.0,0.0,0.0,0.0,0.0,0.0,0.0,0.0,0.0,0.0,0.0,0.0,0.0,0.0,0.0,0.0,0.0,0.0,0.0,0.0,0.0,0.0,0.0,0.0,0.0,0.0,0.0,0.0,0.0,0.0,0.0,0.0,0.0,0.0,0.0,0.0,0.0,0.0,0.0,0.0,0.0,0.0,0.0,0.0,0.0,0.0,0.0,0.0,0.0,0.0,0.0,0.0,0.0,-1.2787,-1.2628,-1.2512,-1.2512,-1.2512,-1.2501,-1.2459,0.0,0.0,0.0,0.0,0.0,0.0,0.0,0.0,0.0,0.0,0.0,0.0,0.0,0.0]}]]]